﻿<?xml version="1.0" encoding="UTF-8" standalone="no"?>
<gpx xmlns="http://www.topografix.com/GPX/1/1" xmlns:gpxtpx="http://www.garmin.com/xmlschemas/TrackPointExtension/v1" xmlns:xsi="http://www.w3.org/2001/XMLSchema-instance" creator="Hribi.net" version="1.1" xsi:schemaLocation="http://www.topografix.com/GPX/1/1 http://www.topografix.com/GPX/1/1/gpx.xsd http://www.garmin.com/xmlschemas/TrackPointExtension/v1 http://www.garmin.com/xmlschemas/TrackPointExtensionv1.xsd">
  <metadata>
    <name>GPS sled</name>
    <desc>www.hribi.net</desc>
    <author>
      <name>hribi.net</name>
    </author>
    <link href="http://www.hribi.net">
      <text>Hribi.net</text>
    </link>
  </metadata>
  <trk>
    <trkseg>
      <trkpt lat="46.241427" lon="13.663050">
        <ele>1000.9632</ele>
        <time>2012-01-28T06:21:05Z</time>
      </trkpt>
      <trkpt lat="46.241426" lon="13.663051">
        <ele>1000.0488</ele>
        <time>2012-01-28T06:21:27Z</time>
      </trkpt>
      <trkpt lat="46.241427" lon="13.663063">
        <ele>1000.9632</ele>
        <time>2012-01-28T06:21:30Z</time>
      </trkpt>
      <trkpt lat="46.241427" lon="13.663063">
        <ele>1000.3536</ele>
        <time>2012-01-28T06:21:32Z</time>
      </trkpt>
      <trkpt lat="46.241427" lon="13.663080">
        <ele>999.4392</ele>
        <time>2012-01-28T06:21:44Z</time>
      </trkpt>
      <trkpt lat="46.241421" lon="13.663071">
        <ele>999.4392</ele>
        <time>2012-01-28T06:21:57Z</time>
      </trkpt>
      <trkpt lat="46.241422" lon="13.663062">
        <ele>998.8296</ele>
        <time>2012-01-28T06:22:15Z</time>
      </trkpt>
      <trkpt lat="46.241420" lon="13.663067">
        <ele>998.5248</ele>
        <time>2012-01-28T06:22:28Z</time>
      </trkpt>
      <trkpt lat="46.241407" lon="13.663064">
        <ele>998.5248</ele>
        <time>2012-01-28T06:22:42Z</time>
      </trkpt>
      <trkpt lat="46.241405" lon="13.663066">
        <ele>998.5248</ele>
        <time>2012-01-28T06:22:57Z</time>
      </trkpt>
      <trkpt lat="46.241405" lon="13.663066">
        <ele>997.9152</ele>
        <time>2012-01-28T06:23:14Z</time>
      </trkpt>
      <trkpt lat="46.241406" lon="13.663064">
        <ele>997.6104</ele>
        <time>2012-01-28T06:23:32Z</time>
      </trkpt>
      <trkpt lat="46.241406" lon="13.663068">
        <ele>997.0008</ele>
        <time>2012-01-28T06:23:49Z</time>
      </trkpt>
      <trkpt lat="46.241408" lon="13.663070">
        <ele>997.0008</ele>
        <time>2012-01-28T06:24:04Z</time>
      </trkpt>
      <trkpt lat="46.241408" lon="13.663070">
        <ele>996.3912</ele>
        <time>2012-01-28T06:24:23Z</time>
      </trkpt>
      <trkpt lat="46.241401" lon="13.663071">
        <ele>996.3912</ele>
        <time>2012-01-28T06:24:38Z</time>
      </trkpt>
      <trkpt lat="46.241403" lon="13.663072">
        <ele>996.0864</ele>
        <time>2012-01-28T06:24:54Z</time>
      </trkpt>
      <trkpt lat="46.241401" lon="13.663067">
        <ele>995.4768</ele>
        <time>2012-01-28T06:25:17Z</time>
      </trkpt>
      <trkpt lat="46.241385" lon="13.663076">
        <ele>995.4768</ele>
        <time>2012-01-28T06:25:29Z</time>
      </trkpt>
      <trkpt lat="46.241385" lon="13.663076">
        <ele>995.172</ele>
        <time>2012-01-28T06:25:45Z</time>
      </trkpt>
      <trkpt lat="46.241386" lon="13.663071">
        <ele>995.172</ele>
        <time>2012-01-28T06:26:08Z</time>
      </trkpt>
      <trkpt lat="46.241352" lon="13.663066">
        <ele>995.172</ele>
        <time>2012-01-28T06:26:23Z</time>
      </trkpt>
      <trkpt lat="46.241321" lon="13.663105">
        <ele>994.5624</ele>
        <time>2012-01-28T06:26:37Z</time>
      </trkpt>
      <trkpt lat="46.241325" lon="13.663095">
        <ele>994.5624</ele>
        <time>2012-01-28T06:26:47Z</time>
      </trkpt>
      <trkpt lat="46.241326" lon="13.663096">
        <ele>994.5624</ele>
        <time>2012-01-28T06:27:04Z</time>
      </trkpt>
      <trkpt lat="46.241348" lon="13.663085">
        <ele>994.5624</ele>
        <time>2012-01-28T06:27:13Z</time>
      </trkpt>
      <trkpt lat="46.241404" lon="13.663093">
        <ele>994.5624</ele>
        <time>2012-01-28T06:27:28Z</time>
      </trkpt>
      <trkpt lat="46.241397" lon="13.663096">
        <ele>994.5624</ele>
        <time>2012-01-28T06:27:44Z</time>
      </trkpt>
      <trkpt lat="46.241398" lon="13.663090">
        <ele>994.5624</ele>
        <time>2012-01-28T06:27:55Z</time>
      </trkpt>
      <trkpt lat="46.241392" lon="13.663071">
        <ele>994.2576</ele>
        <time>2012-01-28T06:28:11Z</time>
      </trkpt>
      <trkpt lat="46.241398" lon="13.663075">
        <ele>994.2576</ele>
        <time>2012-01-28T06:28:23Z</time>
      </trkpt>
      <trkpt lat="46.241385" lon="13.663076">
        <ele>994.2576</ele>
        <time>2012-01-28T06:28:35Z</time>
      </trkpt>
      <trkpt lat="46.241339" lon="13.663065">
        <ele>994.2576</ele>
        <time>2012-01-28T06:28:39Z</time>
      </trkpt>
      <trkpt lat="46.241305" lon="13.663104">
        <ele>993.648</ele>
        <time>2012-01-28T06:28:52Z</time>
      </trkpt>
      <trkpt lat="46.241307" lon="13.663103">
        <ele>993.648</ele>
        <time>2012-01-28T06:29:09Z</time>
      </trkpt>
      <trkpt lat="46.241346" lon="13.663053">
        <ele>994.2576</ele>
        <time>2012-01-28T06:29:16Z</time>
      </trkpt>
      <trkpt lat="46.241382" lon="13.663013">
        <ele>993.648</ele>
        <time>2012-01-28T06:29:31Z</time>
      </trkpt>
      <trkpt lat="46.241386" lon="13.663009">
        <ele>993.648</ele>
        <time>2012-01-28T06:29:42Z</time>
      </trkpt>
      <trkpt lat="46.241388" lon="13.662986">
        <ele>994.2576</ele>
        <time>2012-01-28T06:29:59Z</time>
      </trkpt>
      <trkpt lat="46.241409" lon="13.662962">
        <ele>994.2576</ele>
        <time>2012-01-28T06:30:10Z</time>
      </trkpt>
      <trkpt lat="46.241411" lon="13.662963">
        <ele>994.2576</ele>
        <time>2012-01-28T06:30:30Z</time>
      </trkpt>
      <trkpt lat="46.241411" lon="13.662963">
        <ele>994.2576</ele>
        <time>2012-01-28T06:30:49Z</time>
      </trkpt>
      <trkpt lat="46.241441" lon="13.662944">
        <ele>994.2576</ele>
        <time>2012-01-28T06:31:01Z</time>
      </trkpt>
      <trkpt lat="46.241488" lon="13.662903">
        <ele>994.5624</ele>
        <time>2012-01-28T06:31:16Z</time>
      </trkpt>
      <trkpt lat="46.241564" lon="13.662884">
        <ele>995.4768</ele>
        <time>2012-01-28T06:31:31Z</time>
      </trkpt>
      <trkpt lat="46.241542" lon="13.662824">
        <ele>995.172</ele>
        <time>2012-01-28T06:31:47Z</time>
      </trkpt>
      <trkpt lat="46.241626" lon="13.662802">
        <ele>994.2576</ele>
        <time>2012-01-28T06:31:59Z</time>
      </trkpt>
      <trkpt lat="46.241681" lon="13.662796">
        <ele>993.648</ele>
        <time>2012-01-28T06:32:13Z</time>
      </trkpt>
      <trkpt lat="46.241786" lon="13.662785">
        <ele>992.124</ele>
        <time>2012-01-28T06:32:25Z</time>
      </trkpt>
      <trkpt lat="46.241920" lon="13.662771">
        <ele>990.9048</ele>
        <time>2012-01-28T06:32:41Z</time>
      </trkpt>
      <trkpt lat="46.241983" lon="13.662775">
        <ele>990.9048</ele>
        <time>2012-01-28T06:32:45Z</time>
      </trkpt>
      <trkpt lat="46.242065" lon="13.662783">
        <ele>990.2952</ele>
        <time>2012-01-28T06:32:52Z</time>
      </trkpt>
      <trkpt lat="46.242226" lon="13.662692">
        <ele>990.2952</ele>
        <time>2012-01-28T06:33:08Z</time>
      </trkpt>
      <trkpt lat="46.242258" lon="13.662640">
        <ele>990.2952</ele>
        <time>2012-01-28T06:33:12Z</time>
      </trkpt>
      <trkpt lat="46.242319" lon="13.662521">
        <ele>991.2096</ele>
        <time>2012-01-28T06:33:20Z</time>
      </trkpt>
      <trkpt lat="46.242423" lon="13.662486">
        <ele>992.124</ele>
        <time>2012-01-28T06:33:35Z</time>
      </trkpt>
      <trkpt lat="46.242463" lon="13.662490">
        <ele>995.172</ele>
        <time>2012-01-28T06:33:46Z</time>
      </trkpt>
      <trkpt lat="46.242464" lon="13.662485">
        <ele>995.172</ele>
        <time>2012-01-28T06:34:08Z</time>
      </trkpt>
      <trkpt lat="46.242434" lon="13.662480">
        <ele>993.0384</ele>
        <time>2012-01-28T06:34:24Z</time>
      </trkpt>
      <trkpt lat="46.242421" lon="13.662437">
        <ele>991.8192</ele>
        <time>2012-01-28T06:34:26Z</time>
      </trkpt>
      <trkpt lat="46.242425" lon="13.662420">
        <ele>991.8192</ele>
        <time>2012-01-28T06:34:28Z</time>
      </trkpt>
      <trkpt lat="46.242438" lon="13.662226">
        <ele>992.124</ele>
        <time>2012-01-28T06:34:37Z</time>
      </trkpt>
      <trkpt lat="46.242421" lon="13.662159">
        <ele>992.7336</ele>
        <time>2012-01-28T06:34:41Z</time>
      </trkpt>
      <trkpt lat="46.242361" lon="13.661905">
        <ele>994.5624</ele>
        <time>2012-01-28T06:34:55Z</time>
      </trkpt>
      <trkpt lat="46.242327" lon="13.661638">
        <ele>996.3912</ele>
        <time>2012-01-28T06:35:08Z</time>
      </trkpt>
      <trkpt lat="46.242313" lon="13.661546">
        <ele>997.6104</ele>
        <time>2012-01-28T06:35:14Z</time>
      </trkpt>
      <trkpt lat="46.242335" lon="13.661466">
        <ele>998.5248</ele>
        <time>2012-01-28T06:35:22Z</time>
      </trkpt>
      <trkpt lat="46.242328" lon="13.661309">
        <ele>999.4392</ele>
        <time>2012-01-28T06:35:34Z</time>
      </trkpt>
      <trkpt lat="46.242320" lon="13.661212">
        <ele>1000.3536</ele>
        <time>2012-01-28T06:35:42Z</time>
      </trkpt>
      <trkpt lat="46.242309" lon="13.661036">
        <ele>1001.268</ele>
        <time>2012-01-28T06:35:54Z</time>
      </trkpt>
      <trkpt lat="46.242288" lon="13.660910">
        <ele>1002.1824</ele>
        <time>2012-01-28T06:36:04Z</time>
      </trkpt>
      <trkpt lat="46.242255" lon="13.660802">
        <ele>1003.7064</ele>
        <time>2012-01-28T06:36:12Z</time>
      </trkpt>
      <trkpt lat="46.242242" lon="13.660756">
        <ele>1004.316</ele>
        <time>2012-01-28T06:36:14Z</time>
      </trkpt>
      <trkpt lat="46.242228" lon="13.660704">
        <ele>1004.6208</ele>
        <time>2012-01-28T06:36:18Z</time>
      </trkpt>
      <trkpt lat="46.242228" lon="13.660586">
        <ele>1005.5352</ele>
        <time>2012-01-28T06:36:28Z</time>
      </trkpt>
      <trkpt lat="46.242243" lon="13.660519">
        <ele>1006.1448</ele>
        <time>2012-01-28T06:36:32Z</time>
      </trkpt>
      <trkpt lat="46.242246" lon="13.660395">
        <ele>1007.6688</ele>
        <time>2012-01-28T06:36:44Z</time>
      </trkpt>
      <trkpt lat="46.242280" lon="13.660382">
        <ele>1007.6688</ele>
        <time>2012-01-28T06:37:07Z</time>
      </trkpt>
      <trkpt lat="46.242276" lon="13.660378">
        <ele>1007.6688</ele>
        <time>2012-01-28T06:37:21Z</time>
      </trkpt>
      <trkpt lat="46.242271" lon="13.660337">
        <ele>1007.6688</ele>
        <time>2012-01-28T06:37:23Z</time>
      </trkpt>
      <trkpt lat="46.242272" lon="13.660293">
        <ele>1007.9736</ele>
        <time>2012-01-28T06:37:26Z</time>
      </trkpt>
      <trkpt lat="46.242283" lon="13.660271">
        <ele>1007.9736</ele>
        <time>2012-01-28T06:37:29Z</time>
      </trkpt>
      <trkpt lat="46.242289" lon="13.660238">
        <ele>1007.9736</ele>
        <time>2012-01-28T06:37:30Z</time>
      </trkpt>
      <trkpt lat="46.242303" lon="13.660216">
        <ele>1008.5832</ele>
        <time>2012-01-28T06:37:33Z</time>
      </trkpt>
      <trkpt lat="46.242318" lon="13.660186">
        <ele>1008.5832</ele>
        <time>2012-01-28T06:37:34Z</time>
      </trkpt>
      <trkpt lat="46.242361" lon="13.660144">
        <ele>1008.5832</ele>
        <time>2012-01-28T06:37:39Z</time>
      </trkpt>
      <trkpt lat="46.242393" lon="13.660129">
        <ele>1008.888</ele>
        <time>2012-01-28T06:37:42Z</time>
      </trkpt>
      <trkpt lat="46.242463" lon="13.660123">
        <ele>1009.4976</ele>
        <time>2012-01-28T06:37:49Z</time>
      </trkpt>
      <trkpt lat="46.242503" lon="13.660134">
        <ele>1010.1072</ele>
        <time>2012-01-28T06:37:53Z</time>
      </trkpt>
      <trkpt lat="46.242587" lon="13.660140">
        <ele>1011.0216</ele>
        <time>2012-01-28T06:38:02Z</time>
      </trkpt>
      <trkpt lat="46.242608" lon="13.660139">
        <ele>1011.3264</ele>
        <time>2012-01-28T06:38:05Z</time>
      </trkpt>
      <trkpt lat="46.242628" lon="13.660127">
        <ele>1011.3264</ele>
        <time>2012-01-28T06:38:06Z</time>
      </trkpt>
      <trkpt lat="46.242739" lon="13.660113">
        <ele>1013.46</ele>
        <time>2012-01-28T06:38:19Z</time>
      </trkpt>
      <trkpt lat="46.242851" lon="13.660149">
        <ele>1015.8984</ele>
        <time>2012-01-28T06:38:32Z</time>
      </trkpt>
      <trkpt lat="46.242860" lon="13.660152">
        <ele>1015.2888</ele>
        <time>2012-01-28T06:38:33Z</time>
      </trkpt>
      <trkpt lat="46.242906" lon="13.660169">
        <ele>1016.2032</ele>
        <time>2012-01-28T06:38:39Z</time>
      </trkpt>
      <trkpt lat="46.243044" lon="13.660144">
        <ele>1017.7272</ele>
        <time>2012-01-28T06:38:52Z</time>
      </trkpt>
      <trkpt lat="46.243126" lon="13.660097">
        <ele>1020.1656</ele>
        <time>2012-01-28T06:39:05Z</time>
      </trkpt>
      <trkpt lat="46.243141" lon="13.660088">
        <ele>1020.1656</ele>
        <time>2012-01-28T06:39:07Z</time>
      </trkpt>
      <trkpt lat="46.243267" lon="13.660047">
        <ele>1021.9944</ele>
        <time>2012-01-28T06:39:21Z</time>
      </trkpt>
      <trkpt lat="46.243293" lon="13.660037">
        <ele>1022.9088</ele>
        <time>2012-01-28T06:39:23Z</time>
      </trkpt>
      <trkpt lat="46.243406" lon="13.659990">
        <ele>1024.4328</ele>
        <time>2012-01-28T06:39:37Z</time>
      </trkpt>
      <trkpt lat="46.243531" lon="13.659968">
        <ele>1026.8712</ele>
        <time>2012-01-28T06:39:50Z</time>
      </trkpt>
      <trkpt lat="46.243675" lon="13.659948">
        <ele>1029.3096</ele>
        <time>2012-01-28T06:40:04Z</time>
      </trkpt>
      <trkpt lat="46.243723" lon="13.659902">
        <ele>1030.5288</ele>
        <time>2012-01-28T06:40:12Z</time>
      </trkpt>
      <trkpt lat="46.243740" lon="13.659888">
        <ele>1031.1384</ele>
        <time>2012-01-28T06:40:15Z</time>
      </trkpt>
      <trkpt lat="46.243769" lon="13.659885">
        <ele>1031.748</ele>
        <time>2012-01-28T06:40:17Z</time>
      </trkpt>
      <trkpt lat="46.243907" lon="13.659877">
        <ele>1034.1864</ele>
        <time>2012-01-28T06:40:31Z</time>
      </trkpt>
      <trkpt lat="46.243993" lon="13.659875">
        <ele>1035.1008</ele>
        <time>2012-01-28T06:40:39Z</time>
      </trkpt>
      <trkpt lat="46.244137" lon="13.659870">
        <ele>1037.844</ele>
        <time>2012-01-28T06:40:55Z</time>
      </trkpt>
      <trkpt lat="46.244266" lon="13.659894">
        <ele>1040.2824</ele>
        <time>2012-01-28T06:41:07Z</time>
      </trkpt>
      <trkpt lat="46.244275" lon="13.659892">
        <ele>1040.2824</ele>
        <time>2012-01-28T06:41:09Z</time>
      </trkpt>
      <trkpt lat="46.244385" lon="13.659945">
        <ele>1042.7208</ele>
        <time>2012-01-28T06:41:24Z</time>
      </trkpt>
      <trkpt lat="46.244396" lon="13.659936">
        <ele>1043.0256</ele>
        <time>2012-01-28T06:41:33Z</time>
      </trkpt>
      <trkpt lat="46.244440" lon="13.659989">
        <ele>1044.5496</ele>
        <time>2012-01-28T06:41:45Z</time>
      </trkpt>
      <trkpt lat="46.244518" lon="13.660051">
        <ele>1047.5976</ele>
        <time>2012-01-28T06:41:56Z</time>
      </trkpt>
      <trkpt lat="46.244614" lon="13.660027">
        <ele>1050.036</ele>
        <time>2012-01-28T06:42:08Z</time>
      </trkpt>
      <trkpt lat="46.244683" lon="13.660057">
        <ele>1052.1696</ele>
        <time>2012-01-28T06:42:22Z</time>
      </trkpt>
      <trkpt lat="46.244766" lon="13.660041">
        <ele>1054.608</ele>
        <time>2012-01-28T06:42:34Z</time>
      </trkpt>
      <trkpt lat="46.244853" lon="13.660040">
        <ele>1057.0464</ele>
        <time>2012-01-28T06:42:46Z</time>
      </trkpt>
      <trkpt lat="46.244978" lon="13.660003">
        <ele>1060.0944</ele>
        <time>2012-01-28T06:43:01Z</time>
      </trkpt>
      <trkpt lat="46.244994" lon="13.659995">
        <ele>1060.3992</ele>
        <time>2012-01-28T06:43:02Z</time>
      </trkpt>
      <trkpt lat="46.245112" lon="13.659987">
        <ele>1062.8376</ele>
        <time>2012-01-28T06:43:16Z</time>
      </trkpt>
      <trkpt lat="46.245210" lon="13.659976">
        <ele>1066.1904</ele>
        <time>2012-01-28T06:43:25Z</time>
      </trkpt>
      <trkpt lat="46.245306" lon="13.659945">
        <ele>1066.8</ele>
        <time>2012-01-28T06:43:37Z</time>
      </trkpt>
      <trkpt lat="46.245406" lon="13.659918">
        <ele>1068.6288</ele>
        <time>2012-01-28T06:43:49Z</time>
      </trkpt>
      <trkpt lat="46.245480" lon="13.659927">
        <ele>1070.1528</ele>
        <time>2012-01-28T06:43:56Z</time>
      </trkpt>
      <trkpt lat="46.245594" lon="13.659911">
        <ele>1071.9816</ele>
        <time>2012-01-28T06:44:10Z</time>
      </trkpt>
      <trkpt lat="46.245686" lon="13.659939">
        <ele>1075.0296</ele>
        <time>2012-01-28T06:44:23Z</time>
      </trkpt>
      <trkpt lat="46.245771" lon="13.659907">
        <ele>1078.3824</ele>
        <time>2012-01-28T06:44:34Z</time>
      </trkpt>
      <trkpt lat="46.245798" lon="13.659885">
        <ele>1078.6872</ele>
        <time>2012-01-28T06:44:38Z</time>
      </trkpt>
      <trkpt lat="46.245841" lon="13.659826">
        <ele>1080.2112</ele>
        <time>2012-01-28T06:44:45Z</time>
      </trkpt>
      <trkpt lat="46.245953" lon="13.659785">
        <ele>1082.04</ele>
        <time>2012-01-28T06:44:58Z</time>
      </trkpt>
      <trkpt lat="46.246070" lon="13.659772">
        <ele>1084.4784</ele>
        <time>2012-01-28T06:45:09Z</time>
      </trkpt>
      <trkpt lat="46.246157" lon="13.659724">
        <ele>1086.9168</ele>
        <time>2012-01-28T06:45:21Z</time>
      </trkpt>
      <trkpt lat="46.246235" lon="13.659685">
        <ele>1089.3552</ele>
        <time>2012-01-28T06:45:33Z</time>
      </trkpt>
      <trkpt lat="46.246254" lon="13.659659">
        <ele>1090.8792</ele>
        <time>2012-01-28T06:45:39Z</time>
      </trkpt>
      <trkpt lat="46.246266" lon="13.659571">
        <ele>1092.0984</ele>
        <time>2012-01-28T06:45:48Z</time>
      </trkpt>
      <trkpt lat="46.246318" lon="13.659561">
        <ele>1094.5368</ele>
        <time>2012-01-28T06:45:59Z</time>
      </trkpt>
      <trkpt lat="46.246340" lon="13.659563">
        <ele>1096.0608</ele>
        <time>2012-01-28T06:46:15Z</time>
      </trkpt>
      <trkpt lat="46.246355" lon="13.659567">
        <ele>1097.5848</ele>
        <time>2012-01-28T06:46:29Z</time>
      </trkpt>
      <trkpt lat="46.246355" lon="13.659567">
        <ele>1097.5848</ele>
        <time>2012-01-28T06:46:49Z</time>
      </trkpt>
      <trkpt lat="46.246358" lon="13.659568">
        <ele>1096.9752</ele>
        <time>2012-01-28T06:47:16Z</time>
      </trkpt>
      <trkpt lat="46.246364" lon="13.659569">
        <ele>1096.9752</ele>
        <time>2012-01-28T06:47:36Z</time>
      </trkpt>
      <trkpt lat="46.246409" lon="13.659532">
        <ele>1097.8896</ele>
        <time>2012-01-28T06:47:51Z</time>
      </trkpt>
      <trkpt lat="46.246429" lon="13.659515">
        <ele>1099.4136</ele>
        <time>2012-01-28T06:47:55Z</time>
      </trkpt>
      <trkpt lat="46.246509" lon="13.659508">
        <ele>1102.1568</ele>
        <time>2012-01-28T06:48:06Z</time>
      </trkpt>
      <trkpt lat="46.246602" lon="13.659524">
        <ele>1105.5096</ele>
        <time>2012-01-28T06:48:18Z</time>
      </trkpt>
      <trkpt lat="46.246637" lon="13.659479">
        <ele>1107.0336</ele>
        <time>2012-01-28T06:48:26Z</time>
      </trkpt>
      <trkpt lat="46.246712" lon="13.659511">
        <ele>1109.472</ele>
        <time>2012-01-28T06:48:36Z</time>
      </trkpt>
      <trkpt lat="46.246801" lon="13.659555">
        <ele>1111.9104</ele>
        <time>2012-01-28T06:48:48Z</time>
      </trkpt>
      <trkpt lat="46.246814" lon="13.659552">
        <ele>1112.52</ele>
        <time>2012-01-28T06:48:49Z</time>
      </trkpt>
      <trkpt lat="46.246831" lon="13.659531">
        <ele>1113.4344</ele>
        <time>2012-01-28T06:49:00Z</time>
      </trkpt>
      <trkpt lat="46.246839" lon="13.659506">
        <ele>1113.7392</ele>
        <time>2012-01-28T06:49:01Z</time>
      </trkpt>
      <trkpt lat="46.246888" lon="13.659492">
        <ele>1115.2632</ele>
        <time>2012-01-28T06:49:08Z</time>
      </trkpt>
      <trkpt lat="46.246956" lon="13.659504">
        <ele>1116.7872</ele>
        <time>2012-01-28T06:49:15Z</time>
      </trkpt>
      <trkpt lat="46.246976" lon="13.659530">
        <ele>1117.7016</ele>
        <time>2012-01-28T06:49:17Z</time>
      </trkpt>
      <trkpt lat="46.246989" lon="13.659567">
        <ele>1118.616</ele>
        <time>2012-01-28T06:49:21Z</time>
      </trkpt>
      <trkpt lat="46.247018" lon="13.659614">
        <ele>1119.5304</ele>
        <time>2012-01-28T06:49:28Z</time>
      </trkpt>
      <trkpt lat="46.247029" lon="13.659635">
        <ele>1120.4448</ele>
        <time>2012-01-28T06:49:30Z</time>
      </trkpt>
      <trkpt lat="46.247046" lon="13.659653">
        <ele>1121.0544</ele>
        <time>2012-01-28T06:49:32Z</time>
      </trkpt>
      <trkpt lat="46.247084" lon="13.659632">
        <ele>1123.4928</ele>
        <time>2012-01-28T06:49:43Z</time>
      </trkpt>
      <trkpt lat="46.247168" lon="13.659589">
        <ele>1126.236</ele>
        <time>2012-01-28T06:49:57Z</time>
      </trkpt>
      <trkpt lat="46.247236" lon="13.659531">
        <ele>1129.5888</ele>
        <time>2012-01-28T06:50:09Z</time>
      </trkpt>
      <trkpt lat="46.247305" lon="13.659513">
        <ele>1132.6368</ele>
        <time>2012-01-28T06:50:22Z</time>
      </trkpt>
      <trkpt lat="46.247360" lon="13.659503">
        <ele>1135.38</ele>
        <time>2012-01-28T06:50:33Z</time>
      </trkpt>
      <trkpt lat="46.247423" lon="13.659549">
        <ele>1137.8184</ele>
        <time>2012-01-28T06:50:45Z</time>
      </trkpt>
      <trkpt lat="46.247469" lon="13.659502">
        <ele>1140.2568</ele>
        <time>2012-01-28T06:50:56Z</time>
      </trkpt>
      <trkpt lat="46.247519" lon="13.659511">
        <ele>1142.6952</ele>
        <time>2012-01-28T06:51:08Z</time>
      </trkpt>
      <trkpt lat="46.247549" lon="13.659480">
        <ele>1144.524</ele>
        <time>2012-01-28T06:51:20Z</time>
      </trkpt>
      <trkpt lat="46.247569" lon="13.659440">
        <ele>1145.4384</ele>
        <time>2012-01-28T06:51:35Z</time>
      </trkpt>
      <trkpt lat="46.247571" lon="13.659438">
        <ele>1144.524</ele>
        <time>2012-01-28T06:51:53Z</time>
      </trkpt>
      <trkpt lat="46.247569" lon="13.659444">
        <ele>1145.1336</ele>
        <time>2012-01-28T06:52:13Z</time>
      </trkpt>
      <trkpt lat="46.247615" lon="13.659449">
        <ele>1145.4384</ele>
        <time>2012-01-28T06:52:17Z</time>
      </trkpt>
      <trkpt lat="46.247679" lon="13.659498">
        <ele>1148.7912</ele>
        <time>2012-01-28T06:52:29Z</time>
      </trkpt>
      <trkpt lat="46.247706" lon="13.659471">
        <ele>1150.0104</ele>
        <time>2012-01-28T06:52:35Z</time>
      </trkpt>
      <trkpt lat="46.247720" lon="13.659444">
        <ele>1150.9248</ele>
        <time>2012-01-28T06:52:37Z</time>
      </trkpt>
      <trkpt lat="46.247790" lon="13.659448">
        <ele>1153.3632</ele>
        <time>2012-01-28T06:52:51Z</time>
      </trkpt>
      <trkpt lat="46.247849" lon="13.659420">
        <ele>1155.4968</ele>
        <time>2012-01-28T06:53:00Z</time>
      </trkpt>
      <trkpt lat="46.247911" lon="13.659467">
        <ele>1157.9352</ele>
        <time>2012-01-28T06:53:11Z</time>
      </trkpt>
      <trkpt lat="46.247935" lon="13.659493">
        <ele>1160.0688</ele>
        <time>2012-01-28T06:53:19Z</time>
      </trkpt>
      <trkpt lat="46.248001" lon="13.659491">
        <ele>1162.812</ele>
        <time>2012-01-28T06:53:31Z</time>
      </trkpt>
      <trkpt lat="46.248055" lon="13.659447">
        <ele>1165.2504</ele>
        <time>2012-01-28T06:53:43Z</time>
      </trkpt>
      <trkpt lat="46.248115" lon="13.659420">
        <ele>1167.6888</ele>
        <time>2012-01-28T06:53:57Z</time>
      </trkpt>
      <trkpt lat="46.248148" lon="13.659423">
        <ele>1168.6032</ele>
        <time>2012-01-28T06:54:10Z</time>
      </trkpt>
      <trkpt lat="46.248198" lon="13.659404">
        <ele>1171.0416</ele>
        <time>2012-01-28T06:54:23Z</time>
      </trkpt>
      <trkpt lat="46.248221" lon="13.659393">
        <ele>1173.48</ele>
        <time>2012-01-28T06:54:35Z</time>
      </trkpt>
      <trkpt lat="46.248269" lon="13.659368">
        <ele>1175.004</ele>
        <time>2012-01-28T06:54:51Z</time>
      </trkpt>
      <trkpt lat="46.248317" lon="13.659398">
        <ele>1177.7472</ele>
        <time>2012-01-28T06:55:04Z</time>
      </trkpt>
      <trkpt lat="46.248373" lon="13.659419">
        <ele>1180.1856</ele>
        <time>2012-01-28T06:55:17Z</time>
      </trkpt>
      <trkpt lat="46.248458" lon="13.659422">
        <ele>1182.624</ele>
        <time>2012-01-28T06:55:27Z</time>
      </trkpt>
      <trkpt lat="46.248480" lon="13.659419">
        <ele>1185.9768</ele>
        <time>2012-01-28T06:55:37Z</time>
      </trkpt>
      <trkpt lat="46.248542" lon="13.659381">
        <ele>1186.8912</ele>
        <time>2012-01-28T06:55:49Z</time>
      </trkpt>
      <trkpt lat="46.248593" lon="13.659311">
        <ele>1189.6344</ele>
        <time>2012-01-28T06:56:01Z</time>
      </trkpt>
      <trkpt lat="46.248660" lon="13.659270">
        <ele>1192.0728</ele>
        <time>2012-01-28T06:56:15Z</time>
      </trkpt>
      <trkpt lat="46.248711" lon="13.659280">
        <ele>1194.5112</ele>
        <time>2012-01-28T06:56:25Z</time>
      </trkpt>
      <trkpt lat="46.248750" lon="13.659302">
        <ele>1195.4256</ele>
        <time>2012-01-28T06:56:32Z</time>
      </trkpt>
      <trkpt lat="46.248751" lon="13.659240">
        <ele>1196.9496</ele>
        <time>2012-01-28T06:56:38Z</time>
      </trkpt>
      <trkpt lat="46.248797" lon="13.659252">
        <ele>1197.864</ele>
        <time>2012-01-28T06:56:43Z</time>
      </trkpt>
      <trkpt lat="46.248845" lon="13.659241">
        <ele>1200.3024</ele>
        <time>2012-01-28T06:56:54Z</time>
      </trkpt>
      <trkpt lat="46.248909" lon="13.659209">
        <ele>1203.3504</ele>
        <time>2012-01-28T06:57:07Z</time>
      </trkpt>
      <trkpt lat="46.248960" lon="13.659133">
        <ele>1205.1792</ele>
        <time>2012-01-28T06:57:18Z</time>
      </trkpt>
      <trkpt lat="46.249006" lon="13.659173">
        <ele>1207.6176</ele>
        <time>2012-01-28T06:57:29Z</time>
      </trkpt>
      <trkpt lat="46.249028" lon="13.659135">
        <ele>1208.532</ele>
        <time>2012-01-28T06:57:41Z</time>
      </trkpt>
      <trkpt lat="46.249031" lon="13.659121">
        <ele>1209.1416</ele>
        <time>2012-01-28T06:58:04Z</time>
      </trkpt>
      <trkpt lat="46.249048" lon="13.659102">
        <ele>1209.4464</ele>
        <time>2012-01-28T06:58:16Z</time>
      </trkpt>
      <trkpt lat="46.249069" lon="13.659121">
        <ele>1210.3608</ele>
        <time>2012-01-28T06:58:36Z</time>
      </trkpt>
      <trkpt lat="46.249125" lon="13.659039">
        <ele>1212.4944</ele>
        <time>2012-01-28T06:58:50Z</time>
      </trkpt>
      <trkpt lat="46.249155" lon="13.658951">
        <ele>1214.628</ele>
        <time>2012-01-28T06:59:02Z</time>
      </trkpt>
      <trkpt lat="46.249215" lon="13.658936">
        <ele>1216.7616</ele>
        <time>2012-01-28T06:59:14Z</time>
      </trkpt>
      <trkpt lat="46.249286" lon="13.658913">
        <ele>1219.2</ele>
        <time>2012-01-28T06:59:28Z</time>
      </trkpt>
      <trkpt lat="46.249328" lon="13.658854">
        <ele>1222.5528</ele>
        <time>2012-01-28T06:59:38Z</time>
      </trkpt>
      <trkpt lat="46.249349" lon="13.658775">
        <ele>1222.8576</ele>
        <time>2012-01-28T06:59:53Z</time>
      </trkpt>
      <trkpt lat="46.249362" lon="13.658786">
        <ele>1222.8576</ele>
        <time>2012-01-28T07:00:08Z</time>
      </trkpt>
      <trkpt lat="46.249378" lon="13.658785">
        <ele>1221.6384</ele>
        <time>2012-01-28T07:00:20Z</time>
      </trkpt>
      <trkpt lat="46.249378" lon="13.658785">
        <ele>1221.6384</ele>
        <time>2012-01-28T07:00:50Z</time>
      </trkpt>
      <trkpt lat="46.249376" lon="13.658785">
        <ele>1221.6384</ele>
        <time>2012-01-28T07:01:13Z</time>
      </trkpt>
      <trkpt lat="46.249376" lon="13.658784">
        <ele>1221.6384</ele>
        <time>2012-01-28T07:01:36Z</time>
      </trkpt>
      <trkpt lat="46.249366" lon="13.658774">
        <ele>1222.5528</ele>
        <time>2012-01-28T07:01:48Z</time>
      </trkpt>
      <trkpt lat="46.249366" lon="13.658774">
        <ele>1222.5528</ele>
        <time>2012-01-28T07:02:15Z</time>
      </trkpt>
      <trkpt lat="46.249370" lon="13.658780">
        <ele>1222.5528</ele>
        <time>2012-01-28T07:02:34Z</time>
      </trkpt>
      <trkpt lat="46.249369" lon="13.658784">
        <ele>1222.5528</ele>
        <time>2012-01-28T07:02:47Z</time>
      </trkpt>
      <trkpt lat="46.249369" lon="13.658784">
        <ele>1222.5528</ele>
        <time>2012-01-28T07:03:14Z</time>
      </trkpt>
      <trkpt lat="46.249371" lon="13.658772">
        <ele>1221.9432</ele>
        <time>2012-01-28T07:03:39Z</time>
      </trkpt>
      <trkpt lat="46.249387" lon="13.658723">
        <ele>1223.772</ele>
        <time>2012-01-28T07:03:52Z</time>
      </trkpt>
      <trkpt lat="46.249439" lon="13.658630">
        <ele>1226.2104</ele>
        <time>2012-01-28T07:04:03Z</time>
      </trkpt>
      <trkpt lat="46.249451" lon="13.658559">
        <ele>1228.6488</ele>
        <time>2012-01-28T07:04:17Z</time>
      </trkpt>
      <trkpt lat="46.249437" lon="13.658478">
        <ele>1230.4776</ele>
        <time>2012-01-28T07:04:26Z</time>
      </trkpt>
      <trkpt lat="46.249431" lon="13.658383">
        <ele>1232.916</ele>
        <time>2012-01-28T07:04:38Z</time>
      </trkpt>
      <trkpt lat="46.249462" lon="13.658295">
        <ele>1235.964</ele>
        <time>2012-01-28T07:04:50Z</time>
      </trkpt>
      <trkpt lat="46.249492" lon="13.658280">
        <ele>1237.7928</ele>
        <time>2012-01-28T07:05:01Z</time>
      </trkpt>
      <trkpt lat="46.249526" lon="13.658204">
        <ele>1239.6216</ele>
        <time>2012-01-28T07:05:12Z</time>
      </trkpt>
      <trkpt lat="46.249587" lon="13.658209">
        <ele>1241.7552</ele>
        <time>2012-01-28T07:05:23Z</time>
      </trkpt>
      <trkpt lat="46.249632" lon="13.658206">
        <ele>1244.1936</ele>
        <time>2012-01-28T07:05:32Z</time>
      </trkpt>
      <trkpt lat="46.249676" lon="13.658228">
        <ele>1246.9368</ele>
        <time>2012-01-28T07:05:42Z</time>
      </trkpt>
      <trkpt lat="46.249686" lon="13.658215">
        <ele>1246.0224</ele>
        <time>2012-01-28T07:05:43Z</time>
      </trkpt>
      <trkpt lat="46.249776" lon="13.658178">
        <ele>1248.4608</ele>
        <time>2012-01-28T07:05:56Z</time>
      </trkpt>
      <trkpt lat="46.249846" lon="13.658152">
        <ele>1249.9848</ele>
        <time>2012-01-28T07:06:07Z</time>
      </trkpt>
      <trkpt lat="46.249863" lon="13.658154">
        <ele>1250.8992</ele>
        <time>2012-01-28T07:06:10Z</time>
      </trkpt>
      <trkpt lat="46.249938" lon="13.658161">
        <ele>1252.1184</ele>
        <time>2012-01-28T07:06:18Z</time>
      </trkpt>
      <trkpt lat="46.250031" lon="13.658195">
        <ele>1253.3376</ele>
        <time>2012-01-28T07:06:27Z</time>
      </trkpt>
      <trkpt lat="46.250069" lon="13.658198">
        <ele>1253.6424</ele>
        <time>2012-01-28T07:06:30Z</time>
      </trkpt>
      <trkpt lat="46.250135" lon="13.658152">
        <ele>1254.252</ele>
        <time>2012-01-28T07:06:44Z</time>
      </trkpt>
      <trkpt lat="46.250135" lon="13.658156">
        <ele>1254.252</ele>
        <time>2012-01-28T07:07:01Z</time>
      </trkpt>
      <trkpt lat="46.250148" lon="13.658168">
        <ele>1254.252</ele>
        <time>2012-01-28T07:07:15Z</time>
      </trkpt>
      <trkpt lat="46.250179" lon="13.658201">
        <ele>1254.252</ele>
        <time>2012-01-28T07:07:26Z</time>
      </trkpt>
      <trkpt lat="46.250167" lon="13.658178">
        <ele>1254.252</ele>
        <time>2012-01-28T07:07:39Z</time>
      </trkpt>
      <trkpt lat="46.250163" lon="13.658172">
        <ele>1254.252</ele>
        <time>2012-01-28T07:07:43Z</time>
      </trkpt>
      <trkpt lat="46.250116" lon="13.658125">
        <ele>1254.252</ele>
        <time>2012-01-28T07:07:58Z</time>
      </trkpt>
      <trkpt lat="46.250111" lon="13.658131">
        <ele>1254.252</ele>
        <time>2012-01-28T07:08:14Z</time>
      </trkpt>
      <trkpt lat="46.250078" lon="13.658140">
        <ele>1253.6424</ele>
        <time>2012-01-28T07:08:18Z</time>
      </trkpt>
      <trkpt lat="46.250055" lon="13.658142">
        <ele>1252.728</ele>
        <time>2012-01-28T07:08:30Z</time>
      </trkpt>
      <trkpt lat="46.250055" lon="13.658142">
        <ele>1252.728</ele>
        <time>2012-01-28T07:08:52Z</time>
      </trkpt>
      <trkpt lat="46.250062" lon="13.658142">
        <ele>1253.3376</ele>
        <time>2012-01-28T07:09:05Z</time>
      </trkpt>
      <trkpt lat="46.250116" lon="13.658150">
        <ele>1254.252</ele>
        <time>2012-01-28T07:09:16Z</time>
      </trkpt>
      <trkpt lat="46.250086" lon="13.658161">
        <ele>1253.3376</ele>
        <time>2012-01-28T07:09:28Z</time>
      </trkpt>
      <trkpt lat="46.250159" lon="13.658210">
        <ele>1253.3376</ele>
        <time>2012-01-28T07:09:42Z</time>
      </trkpt>
      <trkpt lat="46.250166" lon="13.658220">
        <ele>1253.3376</ele>
        <time>2012-01-28T07:09:57Z</time>
      </trkpt>
      <trkpt lat="46.250228" lon="13.658143">
        <ele>1254.252</ele>
        <time>2012-01-28T07:10:10Z</time>
      </trkpt>
      <trkpt lat="46.250261" lon="13.658197">
        <ele>1254.252</ele>
        <time>2012-01-28T07:10:30Z</time>
      </trkpt>
      <trkpt lat="46.250334" lon="13.658236">
        <ele>1253.6424</ele>
        <time>2012-01-28T07:10:43Z</time>
      </trkpt>
      <trkpt lat="46.250440" lon="13.658290">
        <ele>1254.252</ele>
        <time>2012-01-28T07:10:56Z</time>
      </trkpt>
      <trkpt lat="46.250541" lon="13.658294">
        <ele>1256.0808</ele>
        <time>2012-01-28T07:11:08Z</time>
      </trkpt>
      <trkpt lat="46.250553" lon="13.658272">
        <ele>1256.6904</ele>
        <time>2012-01-28T07:11:11Z</time>
      </trkpt>
      <trkpt lat="46.250624" lon="13.658290">
        <ele>1259.1288</ele>
        <time>2012-01-28T07:11:22Z</time>
      </trkpt>
      <trkpt lat="46.250676" lon="13.658315">
        <ele>1261.2624</ele>
        <time>2012-01-28T07:11:34Z</time>
      </trkpt>
      <trkpt lat="46.250691" lon="13.658270">
        <ele>1262.4816</ele>
        <time>2012-01-28T07:11:45Z</time>
      </trkpt>
      <trkpt lat="46.250759" lon="13.658250">
        <ele>1263.7008</ele>
        <time>2012-01-28T07:11:54Z</time>
      </trkpt>
      <trkpt lat="46.250807" lon="13.658185">
        <ele>1265.2248</ele>
        <time>2012-01-28T07:12:06Z</time>
      </trkpt>
      <trkpt lat="46.250865" lon="13.658140">
        <ele>1267.6632</ele>
        <time>2012-01-28T07:12:18Z</time>
      </trkpt>
      <trkpt lat="46.250920" lon="13.658135">
        <ele>1270.4064</ele>
        <time>2012-01-28T07:12:29Z</time>
      </trkpt>
      <trkpt lat="46.251003" lon="13.658186">
        <ele>1271.9304</ele>
        <time>2012-01-28T07:12:44Z</time>
      </trkpt>
      <trkpt lat="46.251058" lon="13.658226">
        <ele>1273.4544</ele>
        <time>2012-01-28T07:12:59Z</time>
      </trkpt>
      <trkpt lat="46.251151" lon="13.658203">
        <ele>1275.8928</ele>
        <time>2012-01-28T07:13:11Z</time>
      </trkpt>
      <trkpt lat="46.251208" lon="13.658207">
        <ele>1278.3312</ele>
        <time>2012-01-28T07:13:22Z</time>
      </trkpt>
      <trkpt lat="46.251249" lon="13.658193">
        <ele>1280.4648</ele>
        <time>2012-01-28T07:13:31Z</time>
      </trkpt>
      <trkpt lat="46.251271" lon="13.658128">
        <ele>1281.9888</ele>
        <time>2012-01-28T07:13:44Z</time>
      </trkpt>
      <trkpt lat="46.251283" lon="13.658063">
        <ele>1284.4272</ele>
        <time>2012-01-28T07:13:54Z</time>
      </trkpt>
      <trkpt lat="46.251335" lon="13.658015">
        <ele>1286.8656</ele>
        <time>2012-01-28T07:14:09Z</time>
      </trkpt>
      <trkpt lat="46.251377" lon="13.657946">
        <ele>1289.6088</ele>
        <time>2012-01-28T07:14:23Z</time>
      </trkpt>
      <trkpt lat="46.251389" lon="13.657881">
        <ele>1291.7424</ele>
        <time>2012-01-28T07:14:32Z</time>
      </trkpt>
      <trkpt lat="46.251420" lon="13.657862">
        <ele>1292.6568</ele>
        <time>2012-01-28T07:14:39Z</time>
      </trkpt>
      <trkpt lat="46.251495" lon="13.657809">
        <ele>1294.1808</ele>
        <time>2012-01-28T07:14:51Z</time>
      </trkpt>
      <trkpt lat="46.251517" lon="13.657788">
        <ele>1296.0096</ele>
        <time>2012-01-28T07:15:06Z</time>
      </trkpt>
      <trkpt lat="46.251587" lon="13.657763">
        <ele>1297.8384</ele>
        <time>2012-01-28T07:15:18Z</time>
      </trkpt>
      <trkpt lat="46.251626" lon="13.657745">
        <ele>1299.972</ele>
        <time>2012-01-28T07:15:26Z</time>
      </trkpt>
      <trkpt lat="46.251691" lon="13.657681">
        <ele>1301.8008</ele>
        <time>2012-01-28T07:15:40Z</time>
      </trkpt>
      <trkpt lat="46.251710" lon="13.657634">
        <ele>1303.3248</ele>
        <time>2012-01-28T07:15:50Z</time>
      </trkpt>
      <trkpt lat="46.251744" lon="13.657608">
        <ele>1304.2392</ele>
        <time>2012-01-28T07:16:01Z</time>
      </trkpt>
      <trkpt lat="46.251802" lon="13.657556">
        <ele>1306.9824</ele>
        <time>2012-01-28T07:16:12Z</time>
      </trkpt>
      <trkpt lat="46.251798" lon="13.657511">
        <ele>1306.6776</ele>
        <time>2012-01-28T07:16:24Z</time>
      </trkpt>
      <trkpt lat="46.251798" lon="13.657511">
        <ele>1306.6776</ele>
        <time>2012-01-28T07:16:51Z</time>
      </trkpt>
      <trkpt lat="46.251797" lon="13.657519">
        <ele>1306.9824</ele>
        <time>2012-01-28T07:17:10Z</time>
      </trkpt>
      <trkpt lat="46.251797" lon="13.657519">
        <ele>1306.9824</ele>
        <time>2012-01-28T07:17:29Z</time>
      </trkpt>
      <trkpt lat="46.251792" lon="13.657519">
        <ele>1306.9824</ele>
        <time>2012-01-28T07:17:45Z</time>
      </trkpt>
      <trkpt lat="46.251792" lon="13.657519">
        <ele>1306.6776</ele>
        <time>2012-01-28T07:18:04Z</time>
      </trkpt>
      <trkpt lat="46.251817" lon="13.657502">
        <ele>1306.9824</ele>
        <time>2012-01-28T07:18:23Z</time>
      </trkpt>
      <trkpt lat="46.251883" lon="13.657454">
        <ele>1308.5064</ele>
        <time>2012-01-28T07:18:35Z</time>
      </trkpt>
      <trkpt lat="46.251898" lon="13.657443">
        <ele>1309.116</ele>
        <time>2012-01-28T07:18:38Z</time>
      </trkpt>
      <trkpt lat="46.251987" lon="13.657414">
        <ele>1311.2496</ele>
        <time>2012-01-28T07:18:50Z</time>
      </trkpt>
      <trkpt lat="46.252025" lon="13.657438">
        <ele>1311.8592</ele>
        <time>2012-01-28T07:18:55Z</time>
      </trkpt>
      <trkpt lat="46.252123" lon="13.657429">
        <ele>1313.3832</ele>
        <time>2012-01-28T07:19:09Z</time>
      </trkpt>
      <trkpt lat="46.252179" lon="13.657362">
        <ele>1314.6024</ele>
        <time>2012-01-28T07:19:17Z</time>
      </trkpt>
      <trkpt lat="46.252212" lon="13.657350">
        <ele>1315.8216</ele>
        <time>2012-01-28T07:19:22Z</time>
      </trkpt>
      <trkpt lat="46.252234" lon="13.657208">
        <ele>1316.736</ele>
        <time>2012-01-28T07:19:37Z</time>
      </trkpt>
      <trkpt lat="46.252252" lon="13.657115">
        <ele>1317.9552</ele>
        <time>2012-01-28T07:19:47Z</time>
      </trkpt>
      <trkpt lat="46.252281" lon="13.657027">
        <ele>1319.4792</ele>
        <time>2012-01-28T07:19:56Z</time>
      </trkpt>
      <trkpt lat="46.252295" lon="13.656982">
        <ele>1320.0888</ele>
        <time>2012-01-28T07:20:00Z</time>
      </trkpt>
      <trkpt lat="46.252322" lon="13.656916">
        <ele>1321.6128</ele>
        <time>2012-01-28T07:20:07Z</time>
      </trkpt>
      <trkpt lat="46.252335" lon="13.656865">
        <ele>1322.832</ele>
        <time>2012-01-28T07:20:20Z</time>
      </trkpt>
      <trkpt lat="46.252337" lon="13.656752">
        <ele>1324.356</ele>
        <time>2012-01-28T07:20:33Z</time>
      </trkpt>
      <trkpt lat="46.252356" lon="13.656674">
        <ele>1326.1848</ele>
        <time>2012-01-28T07:20:46Z</time>
      </trkpt>
      <trkpt lat="46.252383" lon="13.656590">
        <ele>1328.3184</ele>
        <time>2012-01-28T07:20:58Z</time>
      </trkpt>
      <trkpt lat="46.252457" lon="13.656541">
        <ele>1330.452</ele>
        <time>2012-01-28T07:21:12Z</time>
      </trkpt>
      <trkpt lat="46.252505" lon="13.656554">
        <ele>1331.0616</ele>
        <time>2012-01-28T07:21:28Z</time>
      </trkpt>
      <trkpt lat="46.252509" lon="13.656541">
        <ele>1331.0616</ele>
        <time>2012-01-28T07:21:51Z</time>
      </trkpt>
      <trkpt lat="46.252510" lon="13.656532">
        <ele>1331.6712</ele>
        <time>2012-01-28T07:21:52Z</time>
      </trkpt>
      <trkpt lat="46.252529" lon="13.656458">
        <ele>1334.1096</ele>
        <time>2012-01-28T07:22:03Z</time>
      </trkpt>
      <trkpt lat="46.252600" lon="13.656403">
        <ele>1336.2432</ele>
        <time>2012-01-28T07:22:15Z</time>
      </trkpt>
      <trkpt lat="46.252623" lon="13.656326">
        <ele>1338.3768</ele>
        <time>2012-01-28T07:22:26Z</time>
      </trkpt>
      <trkpt lat="46.252629" lon="13.656231">
        <ele>1340.8152</ele>
        <time>2012-01-28T07:22:39Z</time>
      </trkpt>
      <trkpt lat="46.252706" lon="13.656192">
        <ele>1342.9488</ele>
        <time>2012-01-28T07:22:53Z</time>
      </trkpt>
      <trkpt lat="46.252728" lon="13.656161">
        <ele>1344.168</ele>
        <time>2012-01-28T07:23:00Z</time>
      </trkpt>
      <trkpt lat="46.252773" lon="13.656117">
        <ele>1345.9968</ele>
        <time>2012-01-28T07:23:11Z</time>
      </trkpt>
      <trkpt lat="46.252838" lon="13.656051">
        <ele>1347.5208</ele>
        <time>2012-01-28T07:23:20Z</time>
      </trkpt>
      <trkpt lat="46.252908" lon="13.655997">
        <ele>1349.9592</ele>
        <time>2012-01-28T07:23:35Z</time>
      </trkpt>
      <trkpt lat="46.252959" lon="13.655918">
        <ele>1351.1784</ele>
        <time>2012-01-28T07:23:47Z</time>
      </trkpt>
      <trkpt lat="46.253009" lon="13.655871">
        <ele>1353.312</ele>
        <time>2012-01-28T07:23:58Z</time>
      </trkpt>
      <trkpt lat="46.253017" lon="13.655783">
        <ele>1354.5312</ele>
        <time>2012-01-28T07:24:09Z</time>
      </trkpt>
      <trkpt lat="46.253042" lon="13.655720">
        <ele>1355.7504</ele>
        <time>2012-01-28T07:24:15Z</time>
      </trkpt>
      <trkpt lat="46.253068" lon="13.655625">
        <ele>1357.884</ele>
        <time>2012-01-28T07:24:29Z</time>
      </trkpt>
      <trkpt lat="46.253070" lon="13.655601">
        <ele>1358.4936</ele>
        <time>2012-01-28T07:24:34Z</time>
      </trkpt>
      <trkpt lat="46.253059" lon="13.655468">
        <ele>1360.0176</ele>
        <time>2012-01-28T07:24:49Z</time>
      </trkpt>
      <trkpt lat="46.253063" lon="13.655440">
        <ele>1360.0176</ele>
        <time>2012-01-28T07:25:01Z</time>
      </trkpt>
      <trkpt lat="46.253072" lon="13.655427">
        <ele>1360.0176</ele>
        <time>2012-01-28T07:25:28Z</time>
      </trkpt>
      <trkpt lat="46.253072" lon="13.655367">
        <ele>1360.3224</ele>
        <time>2012-01-28T07:25:38Z</time>
      </trkpt>
      <trkpt lat="46.253086" lon="13.655368">
        <ele>1360.3224</ele>
        <time>2012-01-28T07:26:10Z</time>
      </trkpt>
      <trkpt lat="46.253145" lon="13.655374">
        <ele>1362.456</ele>
        <time>2012-01-28T07:26:22Z</time>
      </trkpt>
      <trkpt lat="46.253212" lon="13.655432">
        <ele>1363.6752</ele>
        <time>2012-01-28T07:26:32Z</time>
      </trkpt>
      <trkpt lat="46.253252" lon="13.655421">
        <ele>1365.1992</ele>
        <time>2012-01-28T07:26:40Z</time>
      </trkpt>
      <trkpt lat="46.253250" lon="13.655389">
        <ele>1365.8088</ele>
        <time>2012-01-28T07:26:42Z</time>
      </trkpt>
      <trkpt lat="46.253325" lon="13.655382">
        <ele>1367.9424</ele>
        <time>2012-01-28T07:26:56Z</time>
      </trkpt>
      <trkpt lat="46.253401" lon="13.655338">
        <ele>1370.3808</ele>
        <time>2012-01-28T07:27:08Z</time>
      </trkpt>
      <trkpt lat="46.253470" lon="13.655309">
        <ele>1372.8192</ele>
        <time>2012-01-28T07:27:22Z</time>
      </trkpt>
      <trkpt lat="46.253514" lon="13.655250">
        <ele>1374.9528</ele>
        <time>2012-01-28T07:27:35Z</time>
      </trkpt>
      <trkpt lat="46.253543" lon="13.655190">
        <ele>1376.7816</ele>
        <time>2012-01-28T07:27:46Z</time>
      </trkpt>
      <trkpt lat="46.253556" lon="13.655077">
        <ele>1378.3056</ele>
        <time>2012-01-28T07:27:58Z</time>
      </trkpt>
      <trkpt lat="46.253625" lon="13.655075">
        <ele>1380.4392</ele>
        <time>2012-01-28T07:28:10Z</time>
      </trkpt>
      <trkpt lat="46.253650" lon="13.655026">
        <ele>1383.4872</ele>
        <time>2012-01-28T07:28:22Z</time>
      </trkpt>
      <trkpt lat="46.253685" lon="13.655021">
        <ele>1385.0112</ele>
        <time>2012-01-28T07:28:35Z</time>
      </trkpt>
      <trkpt lat="46.253761" lon="13.655018">
        <ele>1386.84</ele>
        <time>2012-01-28T07:28:45Z</time>
      </trkpt>
      <trkpt lat="46.253812" lon="13.655018">
        <ele>1388.6688</ele>
        <time>2012-01-28T07:28:56Z</time>
      </trkpt>
      <trkpt lat="46.253858" lon="13.654990">
        <ele>1391.1072</ele>
        <time>2012-01-28T07:29:07Z</time>
      </trkpt>
      <trkpt lat="46.253902" lon="13.655025">
        <ele>1393.2408</ele>
        <time>2012-01-28T07:29:19Z</time>
      </trkpt>
      <trkpt lat="46.253994" lon="13.655045">
        <ele>1395.3744</ele>
        <time>2012-01-28T07:29:33Z</time>
      </trkpt>
      <trkpt lat="46.254010" lon="13.655052">
        <ele>1395.984</ele>
        <time>2012-01-28T07:29:47Z</time>
      </trkpt>
      <trkpt lat="46.254045" lon="13.655052">
        <ele>1398.4224</ele>
        <time>2012-01-28T07:30:00Z</time>
      </trkpt>
      <trkpt lat="46.254096" lon="13.655043">
        <ele>1400.2512</ele>
        <time>2012-01-28T07:30:13Z</time>
      </trkpt>
      <trkpt lat="46.254145" lon="13.655082">
        <ele>1401.7752</ele>
        <time>2012-01-28T07:30:23Z</time>
      </trkpt>
      <trkpt lat="46.254158" lon="13.655078">
        <ele>1402.6896</ele>
        <time>2012-01-28T07:30:33Z</time>
      </trkpt>
      <trkpt lat="46.254174" lon="13.655074">
        <ele>1404.2136</ele>
        <time>2012-01-28T07:30:52Z</time>
      </trkpt>
      <trkpt lat="46.254260" lon="13.655096">
        <ele>1406.652</ele>
        <time>2012-01-28T07:31:06Z</time>
      </trkpt>
      <trkpt lat="46.254280" lon="13.655136">
        <ele>1407.8712</ele>
        <time>2012-01-28T07:31:12Z</time>
      </trkpt>
      <trkpt lat="46.254276" lon="13.655229">
        <ele>1410.3096</ele>
        <time>2012-01-28T07:31:26Z</time>
      </trkpt>
      <trkpt lat="46.254271" lon="13.655298">
        <ele>1412.4432</ele>
        <time>2012-01-28T07:31:34Z</time>
      </trkpt>
      <trkpt lat="46.254275" lon="13.655320">
        <ele>1412.4432</ele>
        <time>2012-01-28T07:31:37Z</time>
      </trkpt>
      <trkpt lat="46.254256" lon="13.655384">
        <ele>1414.272</ele>
        <time>2012-01-28T07:31:49Z</time>
      </trkpt>
      <trkpt lat="46.254256" lon="13.655384">
        <ele>1413.6624</ele>
        <time>2012-01-28T07:32:06Z</time>
      </trkpt>
      <trkpt lat="46.254256" lon="13.655384">
        <ele>1413.3576</ele>
        <time>2012-01-28T07:32:36Z</time>
      </trkpt>
      <trkpt lat="46.254256" lon="13.655384">
        <ele>1413.3576</ele>
        <time>2012-01-28T07:33:03Z</time>
      </trkpt>
      <trkpt lat="46.254256" lon="13.655384">
        <ele>1413.3576</ele>
        <time>2012-01-28T07:33:30Z</time>
      </trkpt>
      <trkpt lat="46.254258" lon="13.655386">
        <ele>1413.6624</ele>
        <time>2012-01-28T07:33:52Z</time>
      </trkpt>
      <trkpt lat="46.254264" lon="13.655382">
        <ele>1413.6624</ele>
        <time>2012-01-28T07:34:03Z</time>
      </trkpt>
      <trkpt lat="46.254264" lon="13.655382">
        <ele>1413.6624</ele>
        <time>2012-01-28T07:34:21Z</time>
      </trkpt>
      <trkpt lat="46.254263" lon="13.655382">
        <ele>1413.6624</ele>
        <time>2012-01-28T07:34:28Z</time>
      </trkpt>
      <trkpt lat="46.254263" lon="13.655379">
        <ele>1413.3576</ele>
        <time>2012-01-28T07:34:44Z</time>
      </trkpt>
      <trkpt lat="46.254263" lon="13.655379">
        <ele>1413.3576</ele>
        <time>2012-01-28T07:35:15Z</time>
      </trkpt>
      <trkpt lat="46.254262" lon="13.655368">
        <ele>1412.748</ele>
        <time>2012-01-28T07:35:30Z</time>
      </trkpt>
      <trkpt lat="46.254286" lon="13.655402">
        <ele>1414.272</ele>
        <time>2012-01-28T07:35:45Z</time>
      </trkpt>
      <trkpt lat="46.254340" lon="13.655384">
        <ele>1416.1008</ele>
        <time>2012-01-28T07:35:56Z</time>
      </trkpt>
      <trkpt lat="46.254364" lon="13.655424">
        <ele>1419.1488</ele>
        <time>2012-01-28T07:36:08Z</time>
      </trkpt>
      <trkpt lat="46.254406" lon="13.655414">
        <ele>1421.892</ele>
        <time>2012-01-28T07:36:19Z</time>
      </trkpt>
      <trkpt lat="46.254426" lon="13.655481">
        <ele>1426.7688</ele>
        <time>2012-01-28T07:36:31Z</time>
      </trkpt>
      <trkpt lat="46.254463" lon="13.655497">
        <ele>1427.0736</ele>
        <time>2012-01-28T07:36:50Z</time>
      </trkpt>
      <trkpt lat="46.254526" lon="13.655450">
        <ele>1430.7312</ele>
        <time>2012-01-28T07:37:02Z</time>
      </trkpt>
      <trkpt lat="46.254572" lon="13.655391">
        <ele>1433.4744</ele>
        <time>2012-01-28T07:37:13Z</time>
      </trkpt>
      <trkpt lat="46.254588" lon="13.655425">
        <ele>1436.2176</ele>
        <time>2012-01-28T07:37:25Z</time>
      </trkpt>
      <trkpt lat="46.254654" lon="13.655390">
        <ele>1438.656</ele>
        <time>2012-01-28T07:37:37Z</time>
      </trkpt>
      <trkpt lat="46.254659" lon="13.655385">
        <ele>1440.7896</ele>
        <time>2012-01-28T07:37:52Z</time>
      </trkpt>
      <trkpt lat="46.254658" lon="13.655396">
        <ele>1441.0944</ele>
        <time>2012-01-28T07:38:07Z</time>
      </trkpt>
      <trkpt lat="46.254687" lon="13.655395">
        <ele>1443.228</ele>
        <time>2012-01-28T07:38:23Z</time>
      </trkpt>
      <trkpt lat="46.254718" lon="13.655387">
        <ele>1446.5808</ele>
        <time>2012-01-28T07:38:33Z</time>
      </trkpt>
      <trkpt lat="46.254724" lon="13.655381">
        <ele>1445.3616</ele>
        <time>2012-01-28T07:38:34Z</time>
      </trkpt>
      <trkpt lat="46.254744" lon="13.655355">
        <ele>1446.8856</ele>
        <time>2012-01-28T07:38:46Z</time>
      </trkpt>
      <trkpt lat="46.254758" lon="13.655345">
        <ele>1447.8</ele>
        <time>2012-01-28T07:39:01Z</time>
      </trkpt>
      <trkpt lat="46.254760" lon="13.655353">
        <ele>1449.324</ele>
        <time>2012-01-28T07:39:14Z</time>
      </trkpt>
      <trkpt lat="46.254762" lon="13.655383">
        <ele>1451.1528</ele>
        <time>2012-01-28T07:39:25Z</time>
      </trkpt>
      <trkpt lat="46.254762" lon="13.655383">
        <ele>1451.7624</ele>
        <time>2012-01-28T07:39:44Z</time>
      </trkpt>
      <trkpt lat="46.254774" lon="13.655392">
        <ele>1452.6768</ele>
        <time>2012-01-28T07:40:03Z</time>
      </trkpt>
      <trkpt lat="46.254783" lon="13.655379">
        <ele>1453.2864</ele>
        <time>2012-01-28T07:40:15Z</time>
      </trkpt>
      <trkpt lat="46.254794" lon="13.655373">
        <ele>1455.42</ele>
        <time>2012-01-28T07:40:26Z</time>
      </trkpt>
      <trkpt lat="46.254797" lon="13.655385">
        <ele>1456.6392</ele>
        <time>2012-01-28T07:40:42Z</time>
      </trkpt>
      <trkpt lat="46.254810" lon="13.655410">
        <ele>1457.8584</ele>
        <time>2012-01-28T07:40:57Z</time>
      </trkpt>
      <trkpt lat="46.254814" lon="13.655420">
        <ele>1458.468</ele>
        <time>2012-01-28T07:41:09Z</time>
      </trkpt>
      <trkpt lat="46.254817" lon="13.655392">
        <ele>1458.468</ele>
        <time>2012-01-28T07:41:27Z</time>
      </trkpt>
      <trkpt lat="46.254817" lon="13.655392">
        <ele>1458.468</ele>
        <time>2012-01-28T07:41:51Z</time>
      </trkpt>
      <trkpt lat="46.254814" lon="13.655391">
        <ele>1457.8584</ele>
        <time>2012-01-28T07:42:10Z</time>
      </trkpt>
      <trkpt lat="46.254834" lon="13.655408">
        <ele>1460.2968</ele>
        <time>2012-01-28T07:42:17Z</time>
      </trkpt>
      <trkpt lat="46.254869" lon="13.655392">
        <ele>1463.6496</ele>
        <time>2012-01-28T07:42:26Z</time>
      </trkpt>
      <trkpt lat="46.254882" lon="13.655422">
        <ele>1467.0024</ele>
        <time>2012-01-28T07:42:34Z</time>
      </trkpt>
      <trkpt lat="46.254919" lon="13.655432">
        <ele>1467.612</ele>
        <time>2012-01-28T07:42:46Z</time>
      </trkpt>
      <trkpt lat="46.254924" lon="13.655439">
        <ele>1468.2216</ele>
        <time>2012-01-28T07:43:04Z</time>
      </trkpt>
      <trkpt lat="46.254936" lon="13.655438">
        <ele>1470.9648</ele>
        <time>2012-01-28T07:43:17Z</time>
      </trkpt>
      <trkpt lat="46.254957" lon="13.655423">
        <ele>1472.7936</ele>
        <time>2012-01-28T07:43:30Z</time>
      </trkpt>
      <trkpt lat="46.254977" lon="13.655425">
        <ele>1475.232</ele>
        <time>2012-01-28T07:43:42Z</time>
      </trkpt>
      <trkpt lat="46.255014" lon="13.655445">
        <ele>1477.6704</ele>
        <time>2012-01-28T07:43:54Z</time>
      </trkpt>
      <trkpt lat="46.255017" lon="13.655483">
        <ele>1478.5848</ele>
        <time>2012-01-28T07:44:06Z</time>
      </trkpt>
      <trkpt lat="46.255036" lon="13.655498">
        <ele>1480.7184</ele>
        <time>2012-01-28T07:44:18Z</time>
      </trkpt>
      <trkpt lat="46.255055" lon="13.655490">
        <ele>1482.852</ele>
        <time>2012-01-28T07:44:29Z</time>
      </trkpt>
      <trkpt lat="46.255075" lon="13.655484">
        <ele>1484.0712</ele>
        <time>2012-01-28T07:44:49Z</time>
      </trkpt>
      <trkpt lat="46.255092" lon="13.655488">
        <ele>1485.2904</ele>
        <time>2012-01-28T07:45:04Z</time>
      </trkpt>
      <trkpt lat="46.255099" lon="13.655509">
        <ele>1487.424</ele>
        <time>2012-01-28T07:45:11Z</time>
      </trkpt>
      <trkpt lat="46.255139" lon="13.655531">
        <ele>1489.5576</ele>
        <time>2012-01-28T07:45:20Z</time>
      </trkpt>
      <trkpt lat="46.255176" lon="13.655540">
        <ele>1491.996</ele>
        <time>2012-01-28T07:45:31Z</time>
      </trkpt>
      <trkpt lat="46.255223" lon="13.655544">
        <ele>1494.4344</ele>
        <time>2012-01-28T07:45:45Z</time>
      </trkpt>
      <trkpt lat="46.255221" lon="13.655551">
        <ele>1495.9584</ele>
        <time>2012-01-28T07:45:59Z</time>
      </trkpt>
      <trkpt lat="46.255261" lon="13.655585">
        <ele>1498.3968</ele>
        <time>2012-01-28T07:46:10Z</time>
      </trkpt>
      <trkpt lat="46.255271" lon="13.655589">
        <ele>1500.2256</ele>
        <time>2012-01-28T07:46:26Z</time>
      </trkpt>
      <trkpt lat="46.255281" lon="13.655618">
        <ele>1502.0544</ele>
        <time>2012-01-28T07:46:40Z</time>
      </trkpt>
      <trkpt lat="46.255305" lon="13.655638">
        <ele>1505.1024</ele>
        <time>2012-01-28T07:46:52Z</time>
      </trkpt>
      <trkpt lat="46.255328" lon="13.655647">
        <ele>1506.9312</ele>
        <time>2012-01-28T07:47:04Z</time>
      </trkpt>
      <trkpt lat="46.255345" lon="13.655694">
        <ele>1510.284</ele>
        <time>2012-01-28T07:47:20Z</time>
      </trkpt>
      <trkpt lat="46.255388" lon="13.655750">
        <ele>1512.7224</ele>
        <time>2012-01-28T07:47:33Z</time>
      </trkpt>
      <trkpt lat="46.255410" lon="13.655753">
        <ele>1514.5512</ele>
        <time>2012-01-28T07:47:45Z</time>
      </trkpt>
      <trkpt lat="46.255415" lon="13.655758">
        <ele>1515.7704</ele>
        <time>2012-01-28T07:48:01Z</time>
      </trkpt>
      <trkpt lat="46.255439" lon="13.655779">
        <ele>1517.5992</ele>
        <time>2012-01-28T07:48:13Z</time>
      </trkpt>
      <trkpt lat="46.255455" lon="13.655792">
        <ele>1520.3424</ele>
        <time>2012-01-28T07:48:27Z</time>
      </trkpt>
      <trkpt lat="46.255459" lon="13.655795">
        <ele>1521.5616</ele>
        <time>2012-01-28T07:48:44Z</time>
      </trkpt>
      <trkpt lat="46.255482" lon="13.655812">
        <ele>1523.3904</ele>
        <time>2012-01-28T07:48:59Z</time>
      </trkpt>
      <trkpt lat="46.255523" lon="13.655866">
        <ele>1525.2192</ele>
        <time>2012-01-28T07:49:12Z</time>
      </trkpt>
      <trkpt lat="46.255523" lon="13.655866">
        <ele>1524.9144</ele>
        <time>2012-01-28T07:49:30Z</time>
      </trkpt>
      <trkpt lat="46.255523" lon="13.655866">
        <ele>1525.2192</ele>
        <time>2012-01-28T07:49:50Z</time>
      </trkpt>
      <trkpt lat="46.255541" lon="13.655868">
        <ele>1527.6576</ele>
        <time>2012-01-28T07:50:01Z</time>
      </trkpt>
      <trkpt lat="46.255551" lon="13.655856">
        <ele>1528.572</ele>
        <time>2012-01-28T07:50:17Z</time>
      </trkpt>
      <trkpt lat="46.255551" lon="13.655856">
        <ele>1529.4864</ele>
        <time>2012-01-28T07:50:39Z</time>
      </trkpt>
      <trkpt lat="46.255552" lon="13.655856">
        <ele>1528.2672</ele>
        <time>2012-01-28T07:51:05Z</time>
      </trkpt>
      <trkpt lat="46.255551" lon="13.655857">
        <ele>1528.2672</ele>
        <time>2012-01-28T07:51:26Z</time>
      </trkpt>
      <trkpt lat="46.255551" lon="13.655857">
        <ele>1528.2672</ele>
        <time>2012-01-28T07:51:49Z</time>
      </trkpt>
      <trkpt lat="46.255551" lon="13.655856">
        <ele>1527.6576</ele>
        <time>2012-01-28T07:52:16Z</time>
      </trkpt>
      <trkpt lat="46.255551" lon="13.655856">
        <ele>1527.6576</ele>
        <time>2012-01-28T07:52:46Z</time>
      </trkpt>
      <trkpt lat="46.255551" lon="13.655856">
        <ele>1527.6576</ele>
        <time>2012-01-28T07:53:17Z</time>
      </trkpt>
      <trkpt lat="46.255550" lon="13.655856">
        <ele>1529.1816</ele>
        <time>2012-01-28T07:53:33Z</time>
      </trkpt>
      <trkpt lat="46.255550" lon="13.655856">
        <ele>1531.9248</ele>
        <time>2012-01-28T07:53:45Z</time>
      </trkpt>
      <trkpt lat="46.255617" lon="13.655917">
        <ele>1534.3632</ele>
        <time>2012-01-28T07:53:57Z</time>
      </trkpt>
      <trkpt lat="46.255617" lon="13.655917">
        <ele>1534.9728</ele>
        <time>2012-01-28T07:53:59Z</time>
      </trkpt>
      <trkpt lat="46.255674" lon="13.655957">
        <ele>1537.4112</ele>
        <time>2012-01-28T07:54:12Z</time>
      </trkpt>
      <trkpt lat="46.255677" lon="13.655967">
        <ele>1538.3256</ele>
        <time>2012-01-28T07:54:27Z</time>
      </trkpt>
      <trkpt lat="46.255719" lon="13.655974">
        <ele>1539.5448</ele>
        <time>2012-01-28T07:54:42Z</time>
      </trkpt>
      <trkpt lat="46.255777" lon="13.656019">
        <ele>1542.5928</ele>
        <time>2012-01-28T07:54:54Z</time>
      </trkpt>
      <trkpt lat="46.255849" lon="13.656073">
        <ele>1545.336</ele>
        <time>2012-01-28T07:55:08Z</time>
      </trkpt>
      <trkpt lat="46.255853" lon="13.656079">
        <ele>1545.9456</ele>
        <time>2012-01-28T07:55:21Z</time>
      </trkpt>
      <trkpt lat="46.255910" lon="13.656108">
        <ele>1548.6888</ele>
        <time>2012-01-28T07:55:32Z</time>
      </trkpt>
      <trkpt lat="46.255916" lon="13.656107">
        <ele>1549.2984</ele>
        <time>2012-01-28T07:55:33Z</time>
      </trkpt>
      <trkpt lat="46.255987" lon="13.656102">
        <ele>1551.1272</ele>
        <time>2012-01-28T07:55:43Z</time>
      </trkpt>
      <trkpt lat="46.256019" lon="13.656115">
        <ele>1553.5656</ele>
        <time>2012-01-28T07:55:52Z</time>
      </trkpt>
      <trkpt lat="46.256028" lon="13.656113">
        <ele>1555.0896</ele>
        <time>2012-01-28T07:56:06Z</time>
      </trkpt>
      <trkpt lat="46.256034" lon="13.656119">
        <ele>1555.0896</ele>
        <time>2012-01-28T07:56:26Z</time>
      </trkpt>
      <trkpt lat="46.256078" lon="13.656157">
        <ele>1557.8328</ele>
        <time>2012-01-28T07:56:38Z</time>
      </trkpt>
      <trkpt lat="46.256101" lon="13.656165">
        <ele>1559.3568</ele>
        <time>2012-01-28T07:56:42Z</time>
      </trkpt>
      <trkpt lat="46.256142" lon="13.656174">
        <ele>1561.7952</ele>
        <time>2012-01-28T07:56:54Z</time>
      </trkpt>
      <trkpt lat="46.256161" lon="13.656190">
        <ele>1562.7096</ele>
        <time>2012-01-28T07:57:06Z</time>
      </trkpt>
      <trkpt lat="46.256177" lon="13.656201">
        <ele>1564.2336</ele>
        <time>2012-01-28T07:57:24Z</time>
      </trkpt>
      <trkpt lat="46.256182" lon="13.656196">
        <ele>1566.672</ele>
        <time>2012-01-28T07:57:39Z</time>
      </trkpt>
      <trkpt lat="46.256210" lon="13.656148">
        <ele>1567.5864</ele>
        <time>2012-01-28T07:57:52Z</time>
      </trkpt>
      <trkpt lat="46.256233" lon="13.656128">
        <ele>1568.196</ele>
        <time>2012-01-28T07:58:11Z</time>
      </trkpt>
      <trkpt lat="46.256274" lon="13.656113">
        <ele>1570.3296</ele>
        <time>2012-01-28T07:58:22Z</time>
      </trkpt>
      <trkpt lat="46.256274" lon="13.656113">
        <ele>1573.3776</ele>
        <time>2012-01-28T07:58:34Z</time>
      </trkpt>
      <trkpt lat="46.256274" lon="13.656113">
        <ele>1575.2064</ele>
        <time>2012-01-28T07:58:42Z</time>
      </trkpt>
      <trkpt lat="46.256274" lon="13.656113">
        <ele>1576.1208</ele>
        <time>2012-01-28T07:58:53Z</time>
      </trkpt>
      <trkpt lat="46.256281" lon="13.656110">
        <ele>1578.2544</ele>
        <time>2012-01-28T07:59:06Z</time>
      </trkpt>
      <trkpt lat="46.256280" lon="13.656110">
        <ele>1580.388</ele>
        <time>2012-01-28T07:59:19Z</time>
      </trkpt>
      <trkpt lat="46.256280" lon="13.656110">
        <ele>1581.6072</ele>
        <time>2012-01-28T07:59:29Z</time>
      </trkpt>
      <trkpt lat="46.256282" lon="13.656104">
        <ele>1581.912</ele>
        <time>2012-01-28T07:59:47Z</time>
      </trkpt>
      <trkpt lat="46.256282" lon="13.656104">
        <ele>1584.3504</ele>
        <time>2012-01-28T08:00:02Z</time>
      </trkpt>
      <trkpt lat="46.256289" lon="13.656099">
        <ele>1584.0456</ele>
        <time>2012-01-28T08:00:22Z</time>
      </trkpt>
      <trkpt lat="46.256313" lon="13.656047">
        <ele>1586.1792</ele>
        <time>2012-01-28T08:00:30Z</time>
      </trkpt>
      <trkpt lat="46.256377" lon="13.655992">
        <ele>1588.3128</ele>
        <time>2012-01-28T08:00:40Z</time>
      </trkpt>
      <trkpt lat="46.256400" lon="13.655960">
        <ele>1590.1416</ele>
        <time>2012-01-28T08:00:42Z</time>
      </trkpt>
      <trkpt lat="46.256400" lon="13.655960">
        <ele>1591.056</ele>
        <time>2012-01-28T08:00:59Z</time>
      </trkpt>
      <trkpt lat="46.256400" lon="13.655960">
        <ele>1590.7512</ele>
        <time>2012-01-28T08:01:20Z</time>
      </trkpt>
      <trkpt lat="46.256404" lon="13.655957">
        <ele>1590.7512</ele>
        <time>2012-01-28T08:01:39Z</time>
      </trkpt>
      <trkpt lat="46.256430" lon="13.655920">
        <ele>1591.6656</ele>
        <time>2012-01-28T08:01:58Z</time>
      </trkpt>
      <trkpt lat="46.256490" lon="13.655874">
        <ele>1593.4944</ele>
        <time>2012-01-28T08:02:06Z</time>
      </trkpt>
      <trkpt lat="46.256601" lon="13.655878">
        <ele>1596.5424</ele>
        <time>2012-01-28T08:02:20Z</time>
      </trkpt>
      <trkpt lat="46.256613" lon="13.655868">
        <ele>1598.676</ele>
        <time>2012-01-28T08:02:30Z</time>
      </trkpt>
      <trkpt lat="46.256622" lon="13.655852">
        <ele>1599.8952</ele>
        <time>2012-01-28T08:02:44Z</time>
      </trkpt>
      <trkpt lat="46.256635" lon="13.655818">
        <ele>1602.0288</ele>
        <time>2012-01-28T08:02:56Z</time>
      </trkpt>
      <trkpt lat="46.256635" lon="13.655818">
        <ele>1602.6384</ele>
        <time>2012-01-28T08:03:00Z</time>
      </trkpt>
      <trkpt lat="46.256676" lon="13.655798">
        <ele>1604.4672</ele>
        <time>2012-01-28T08:03:12Z</time>
      </trkpt>
      <trkpt lat="46.256676" lon="13.655798">
        <ele>1605.0768</ele>
        <time>2012-01-28T08:03:35Z</time>
      </trkpt>
      <trkpt lat="46.256749" lon="13.655822">
        <ele>1607.5152</ele>
        <time>2012-01-28T08:03:46Z</time>
      </trkpt>
      <trkpt lat="46.256749" lon="13.655822">
        <ele>1609.9536</ele>
        <time>2012-01-28T08:03:58Z</time>
      </trkpt>
      <trkpt lat="46.256826" lon="13.655762">
        <ele>1611.7824</ele>
        <time>2012-01-28T08:04:09Z</time>
      </trkpt>
      <trkpt lat="46.256850" lon="13.655768">
        <ele>1613.3064</ele>
        <time>2012-01-28T08:04:20Z</time>
      </trkpt>
      <trkpt lat="46.256878" lon="13.655791">
        <ele>1614.5256</ele>
        <time>2012-01-28T08:04:32Z</time>
      </trkpt>
      <trkpt lat="46.256890" lon="13.655791">
        <ele>1618.1832</ele>
        <time>2012-01-28T08:04:44Z</time>
      </trkpt>
      <trkpt lat="46.256898" lon="13.655785">
        <ele>1616.6592</ele>
        <time>2012-01-28T08:05:03Z</time>
      </trkpt>
      <trkpt lat="46.256963" lon="13.655783">
        <ele>1617.5736</ele>
        <time>2012-01-28T08:05:15Z</time>
      </trkpt>
      <trkpt lat="46.257036" lon="13.655773">
        <ele>1619.4024</ele>
        <time>2012-01-28T08:05:26Z</time>
      </trkpt>
      <trkpt lat="46.257120" lon="13.655747">
        <ele>1621.536</ele>
        <time>2012-01-28T08:05:37Z</time>
      </trkpt>
      <trkpt lat="46.257187" lon="13.655750">
        <ele>1623.3648</ele>
        <time>2012-01-28T08:05:49Z</time>
      </trkpt>
      <trkpt lat="46.257279" lon="13.655743">
        <ele>1626.7176</ele>
        <time>2012-01-28T08:06:02Z</time>
      </trkpt>
      <trkpt lat="46.257336" lon="13.655755">
        <ele>1628.5464</ele>
        <time>2012-01-28T08:06:14Z</time>
      </trkpt>
      <trkpt lat="46.257359" lon="13.655702">
        <ele>1630.68</ele>
        <time>2012-01-28T08:06:27Z</time>
      </trkpt>
      <trkpt lat="46.257425" lon="13.655707">
        <ele>1632.8136</ele>
        <time>2012-01-28T08:06:37Z</time>
      </trkpt>
      <trkpt lat="46.257451" lon="13.655702">
        <ele>1635.8616</ele>
        <time>2012-01-28T08:06:44Z</time>
      </trkpt>
      <trkpt lat="46.257504" lon="13.655705">
        <ele>1636.776</ele>
        <time>2012-01-28T08:06:58Z</time>
      </trkpt>
      <trkpt lat="46.257519" lon="13.655653">
        <ele>1639.2144</ele>
        <time>2012-01-28T08:07:10Z</time>
      </trkpt>
      <trkpt lat="46.257536" lon="13.655630">
        <ele>1639.5192</ele>
        <time>2012-01-28T08:07:29Z</time>
      </trkpt>
      <trkpt lat="46.257578" lon="13.655612">
        <ele>1641.9576</ele>
        <time>2012-01-28T08:07:42Z</time>
      </trkpt>
      <trkpt lat="46.257634" lon="13.655606">
        <ele>1645.0056</ele>
        <time>2012-01-28T08:07:53Z</time>
      </trkpt>
      <trkpt lat="46.257634" lon="13.655596">
        <ele>1646.5296</ele>
        <time>2012-01-28T08:08:09Z</time>
      </trkpt>
      <trkpt lat="46.257665" lon="13.655560">
        <ele>1647.7488</ele>
        <time>2012-01-28T08:08:31Z</time>
      </trkpt>
      <trkpt lat="46.257726" lon="13.655557">
        <ele>1650.1872</ele>
        <time>2012-01-28T08:08:43Z</time>
      </trkpt>
      <trkpt lat="46.257768" lon="13.655540">
        <ele>1652.6256</ele>
        <time>2012-01-28T08:08:55Z</time>
      </trkpt>
      <trkpt lat="46.257810" lon="13.655553">
        <ele>1654.1496</ele>
        <time>2012-01-28T08:09:06Z</time>
      </trkpt>
      <trkpt lat="46.257845" lon="13.655528">
        <ele>1656.8928</ele>
        <time>2012-01-28T08:09:19Z</time>
      </trkpt>
      <trkpt lat="46.257887" lon="13.655525">
        <ele>1659.3312</ele>
        <time>2012-01-28T08:09:33Z</time>
      </trkpt>
      <trkpt lat="46.257920" lon="13.655507">
        <ele>1661.16</ele>
        <time>2012-01-28T08:09:44Z</time>
      </trkpt>
      <trkpt lat="46.257944" lon="13.655464">
        <ele>1663.5984</ele>
        <time>2012-01-28T08:10:00Z</time>
      </trkpt>
      <trkpt lat="46.257966" lon="13.655441">
        <ele>1665.1224</ele>
        <time>2012-01-28T08:10:12Z</time>
      </trkpt>
      <trkpt lat="46.258010" lon="13.655355">
        <ele>1668.4752</ele>
        <time>2012-01-28T08:10:27Z</time>
      </trkpt>
      <trkpt lat="46.258067" lon="13.655308">
        <ele>1670.9136</ele>
        <time>2012-01-28T08:10:39Z</time>
      </trkpt>
      <trkpt lat="46.258082" lon="13.655232">
        <ele>1673.6568</ele>
        <time>2012-01-28T08:10:54Z</time>
      </trkpt>
      <trkpt lat="46.258117" lon="13.655141">
        <ele>1675.7904</ele>
        <time>2012-01-28T08:11:06Z</time>
      </trkpt>
      <trkpt lat="46.258120" lon="13.655058">
        <ele>1674.876</ele>
        <time>2012-01-28T08:11:18Z</time>
      </trkpt>
      <trkpt lat="46.258120" lon="13.655058">
        <ele>1674.2664</ele>
        <time>2012-01-28T08:11:41Z</time>
      </trkpt>
      <trkpt lat="46.258120" lon="13.655058">
        <ele>1674.876</ele>
        <time>2012-01-28T08:12:08Z</time>
      </trkpt>
      <trkpt lat="46.258118" lon="13.655054">
        <ele>1674.876</ele>
        <time>2012-01-28T08:12:27Z</time>
      </trkpt>
      <trkpt lat="46.258118" lon="13.655054">
        <ele>1674.2664</ele>
        <time>2012-01-28T08:12:50Z</time>
      </trkpt>
      <trkpt lat="46.258118" lon="13.655048">
        <ele>1674.876</ele>
        <time>2012-01-28T08:13:10Z</time>
      </trkpt>
      <trkpt lat="46.258118" lon="13.655048">
        <ele>1674.2664</ele>
        <time>2012-01-28T08:13:32Z</time>
      </trkpt>
      <trkpt lat="46.258113" lon="13.655049">
        <ele>1674.876</ele>
        <time>2012-01-28T08:13:48Z</time>
      </trkpt>
      <trkpt lat="46.258115" lon="13.655047">
        <ele>1674.876</ele>
        <time>2012-01-28T08:14:07Z</time>
      </trkpt>
      <trkpt lat="46.258115" lon="13.655047">
        <ele>1674.2664</ele>
        <time>2012-01-28T08:14:27Z</time>
      </trkpt>
      <trkpt lat="46.258115" lon="13.655048">
        <ele>1674.2664</ele>
        <time>2012-01-28T08:14:47Z</time>
      </trkpt>
      <trkpt lat="46.258115" lon="13.655048">
        <ele>1674.2664</ele>
        <time>2012-01-28T08:15:09Z</time>
      </trkpt>
      <trkpt lat="46.258114" lon="13.655050">
        <ele>1674.2664</ele>
        <time>2012-01-28T08:15:29Z</time>
      </trkpt>
      <trkpt lat="46.258117" lon="13.655047">
        <ele>1674.2664</ele>
        <time>2012-01-28T08:15:54Z</time>
      </trkpt>
      <trkpt lat="46.258117" lon="13.655047">
        <ele>1674.2664</ele>
        <time>2012-01-28T08:16:15Z</time>
      </trkpt>
      <trkpt lat="46.258117" lon="13.655055">
        <ele>1673.6568</ele>
        <time>2012-01-28T08:16:30Z</time>
      </trkpt>
      <trkpt lat="46.258116" lon="13.655055">
        <ele>1673.352</ele>
        <time>2012-01-28T08:17:06Z</time>
      </trkpt>
      <trkpt lat="46.258116" lon="13.655051">
        <ele>1674.876</ele>
        <time>2012-01-28T08:17:24Z</time>
      </trkpt>
      <trkpt lat="46.258115" lon="13.655056">
        <ele>1674.2664</ele>
        <time>2012-01-28T08:17:43Z</time>
      </trkpt>
      <trkpt lat="46.258117" lon="13.655051">
        <ele>1674.876</ele>
        <time>2012-01-28T08:17:59Z</time>
      </trkpt>
      <trkpt lat="46.258131" lon="13.655061">
        <ele>1674.876</ele>
        <time>2012-01-28T08:18:09Z</time>
      </trkpt>
      <trkpt lat="46.258171" lon="13.655114">
        <ele>1678.2288</ele>
        <time>2012-01-28T08:18:22Z</time>
      </trkpt>
      <trkpt lat="46.258214" lon="13.655150">
        <ele>1680.0576</ele>
        <time>2012-01-28T08:18:30Z</time>
      </trkpt>
      <trkpt lat="46.258282" lon="13.655194">
        <ele>1683.4104</ele>
        <time>2012-01-28T08:18:41Z</time>
      </trkpt>
      <trkpt lat="46.258307" lon="13.655207">
        <ele>1684.9344</ele>
        <time>2012-01-28T08:18:57Z</time>
      </trkpt>
      <trkpt lat="46.258339" lon="13.655237">
        <ele>1687.6776</ele>
        <time>2012-01-28T08:19:08Z</time>
      </trkpt>
      <trkpt lat="46.258408" lon="13.655213">
        <ele>1690.7256</ele>
        <time>2012-01-28T08:19:21Z</time>
      </trkpt>
      <trkpt lat="46.258408" lon="13.655213">
        <ele>1690.116</ele>
        <time>2012-01-28T08:19:44Z</time>
      </trkpt>
      <trkpt lat="46.258423" lon="13.655206">
        <ele>1691.9448</ele>
        <time>2012-01-28T08:19:59Z</time>
      </trkpt>
      <trkpt lat="46.258473" lon="13.655204">
        <ele>1695.2976</ele>
        <time>2012-01-28T08:20:11Z</time>
      </trkpt>
      <trkpt lat="46.258505" lon="13.655227">
        <ele>1697.736</ele>
        <time>2012-01-28T08:20:22Z</time>
      </trkpt>
      <trkpt lat="46.258529" lon="13.655251">
        <ele>1699.8696</ele>
        <time>2012-01-28T08:20:34Z</time>
      </trkpt>
      <trkpt lat="46.258573" lon="13.655289">
        <ele>1701.0888</ele>
        <time>2012-01-28T08:20:53Z</time>
      </trkpt>
      <trkpt lat="46.258593" lon="13.655318">
        <ele>1702.0032</ele>
        <time>2012-01-28T08:20:57Z</time>
      </trkpt>
      <trkpt lat="46.258640" lon="13.655310">
        <ele>1705.6608</ele>
        <time>2012-01-28T08:21:12Z</time>
      </trkpt>
      <trkpt lat="46.258673" lon="13.655292">
        <ele>1709.0136</ele>
        <time>2012-01-28T08:21:24Z</time>
      </trkpt>
      <trkpt lat="46.258682" lon="13.655289">
        <ele>1709.3184</ele>
        <time>2012-01-28T08:21:39Z</time>
      </trkpt>
      <trkpt lat="46.258694" lon="13.655270">
        <ele>1710.8424</ele>
        <time>2012-01-28T08:21:57Z</time>
      </trkpt>
      <trkpt lat="46.258711" lon="13.655283">
        <ele>1712.3664</ele>
        <time>2012-01-28T08:22:16Z</time>
      </trkpt>
      <trkpt lat="46.258733" lon="13.655321">
        <ele>1714.5</ele>
        <time>2012-01-28T08:22:28Z</time>
      </trkpt>
      <trkpt lat="46.258733" lon="13.655321">
        <ele>1713.5856</ele>
        <time>2012-01-28T08:22:48Z</time>
      </trkpt>
      <trkpt lat="46.258729" lon="13.655323">
        <ele>1713.5856</ele>
        <time>2012-01-28T08:23:11Z</time>
      </trkpt>
      <trkpt lat="46.258729" lon="13.655322">
        <ele>1714.5</ele>
        <time>2012-01-28T08:23:38Z</time>
      </trkpt>
      <trkpt lat="46.258729" lon="13.655322">
        <ele>1714.1952</ele>
        <time>2012-01-28T08:24:02Z</time>
      </trkpt>
      <trkpt lat="46.258728" lon="13.655321">
        <ele>1714.1952</ele>
        <time>2012-01-28T08:24:18Z</time>
      </trkpt>
      <trkpt lat="46.258738" lon="13.655325">
        <ele>1714.1952</ele>
        <time>2012-01-28T08:24:28Z</time>
      </trkpt>
      <trkpt lat="46.258759" lon="13.655376">
        <ele>1715.7192</ele>
        <time>2012-01-28T08:24:35Z</time>
      </trkpt>
      <trkpt lat="46.258771" lon="13.655390">
        <ele>1716.024</ele>
        <time>2012-01-28T08:24:36Z</time>
      </trkpt>
      <trkpt lat="46.258852" lon="13.655406">
        <ele>1719.072</ele>
        <time>2012-01-28T08:24:48Z</time>
      </trkpt>
      <trkpt lat="46.258869" lon="13.655409">
        <ele>1720.2912</ele>
        <time>2012-01-28T08:25:04Z</time>
      </trkpt>
      <trkpt lat="46.258898" lon="13.655413">
        <ele>1723.3392</ele>
        <time>2012-01-28T08:25:19Z</time>
      </trkpt>
      <trkpt lat="46.258902" lon="13.655413">
        <ele>1723.644</ele>
        <time>2012-01-28T08:25:37Z</time>
      </trkpt>
      <trkpt lat="46.258937" lon="13.655399">
        <ele>1725.168</ele>
        <time>2012-01-28T08:25:48Z</time>
      </trkpt>
      <trkpt lat="46.258958" lon="13.655396">
        <ele>1726.692</ele>
        <time>2012-01-28T08:26:08Z</time>
      </trkpt>
      <trkpt lat="46.259007" lon="13.655450">
        <ele>1729.4352</ele>
        <time>2012-01-28T08:26:20Z</time>
      </trkpt>
      <trkpt lat="46.259053" lon="13.655403">
        <ele>1732.4832</ele>
        <time>2012-01-28T08:26:31Z</time>
      </trkpt>
      <trkpt lat="46.259072" lon="13.655393">
        <ele>1733.3976</ele>
        <time>2012-01-28T08:26:43Z</time>
      </trkpt>
      <trkpt lat="46.259104" lon="13.655392">
        <ele>1735.2264</ele>
        <time>2012-01-28T08:27:03Z</time>
      </trkpt>
      <trkpt lat="46.259127" lon="13.655389">
        <ele>1736.1408</ele>
        <time>2012-01-28T08:27:07Z</time>
      </trkpt>
      <trkpt lat="46.259166" lon="13.655408">
        <ele>1738.2744</ele>
        <time>2012-01-28T08:27:13Z</time>
      </trkpt>
      <trkpt lat="46.259172" lon="13.655408">
        <ele>1738.5792</ele>
        <time>2012-01-28T08:27:29Z</time>
      </trkpt>
      <trkpt lat="46.259191" lon="13.655392">
        <ele>1740.7128</ele>
        <time>2012-01-28T08:27:46Z</time>
      </trkpt>
      <trkpt lat="46.259214" lon="13.655393">
        <ele>1743.1512</ele>
        <time>2012-01-28T08:28:04Z</time>
      </trkpt>
      <trkpt lat="46.259249" lon="13.655423">
        <ele>1744.3704</ele>
        <time>2012-01-28T08:28:23Z</time>
      </trkpt>
      <trkpt lat="46.259251" lon="13.655430">
        <ele>1745.2848</ele>
        <time>2012-01-28T08:28:27Z</time>
      </trkpt>
      <trkpt lat="46.259302" lon="13.655422">
        <ele>1747.7232</ele>
        <time>2012-01-28T08:28:39Z</time>
      </trkpt>
      <trkpt lat="46.259338" lon="13.655454">
        <ele>1750.7712</ele>
        <time>2012-01-28T08:28:50Z</time>
      </trkpt>
      <trkpt lat="46.259338" lon="13.655454">
        <ele>1750.1616</ele>
        <time>2012-01-28T08:28:58Z</time>
      </trkpt>
      <trkpt lat="46.259338" lon="13.655454">
        <ele>1750.1616</ele>
        <time>2012-01-28T08:29:18Z</time>
      </trkpt>
      <trkpt lat="46.259370" lon="13.655485">
        <ele>1751.9904</ele>
        <time>2012-01-28T08:29:30Z</time>
      </trkpt>
      <trkpt lat="46.259389" lon="13.655560">
        <ele>1754.124</ele>
        <time>2012-01-28T08:29:41Z</time>
      </trkpt>
      <trkpt lat="46.259427" lon="13.655568">
        <ele>1756.5624</ele>
        <time>2012-01-28T08:29:52Z</time>
      </trkpt>
      <trkpt lat="46.259462" lon="13.655552">
        <ele>1759.3056</ele>
        <time>2012-01-28T08:30:05Z</time>
      </trkpt>
      <trkpt lat="46.259483" lon="13.655553">
        <ele>1760.8296</ele>
        <time>2012-01-28T08:30:18Z</time>
      </trkpt>
      <trkpt lat="46.259483" lon="13.655553">
        <ele>1760.8296</ele>
        <time>2012-01-28T08:30:41Z</time>
      </trkpt>
      <trkpt lat="46.259502" lon="13.655571">
        <ele>1762.3536</ele>
        <time>2012-01-28T08:30:58Z</time>
      </trkpt>
      <trkpt lat="46.259529" lon="13.655619">
        <ele>1764.792</ele>
        <time>2012-01-28T08:31:10Z</time>
      </trkpt>
      <trkpt lat="46.259532" lon="13.655615">
        <ele>1765.7064</ele>
        <time>2012-01-28T08:31:32Z</time>
      </trkpt>
      <trkpt lat="46.259531" lon="13.655611">
        <ele>1765.7064</ele>
        <time>2012-01-28T08:31:53Z</time>
      </trkpt>
      <trkpt lat="46.259534" lon="13.655608">
        <ele>1765.7064</ele>
        <time>2012-01-28T08:32:07Z</time>
      </trkpt>
      <trkpt lat="46.259602" lon="13.655602">
        <ele>1768.4496</ele>
        <time>2012-01-28T08:32:19Z</time>
      </trkpt>
      <trkpt lat="46.259649" lon="13.655630">
        <ele>1771.4976</ele>
        <time>2012-01-28T08:32:31Z</time>
      </trkpt>
      <trkpt lat="46.259668" lon="13.655667">
        <ele>1774.2408</ele>
        <time>2012-01-28T08:32:43Z</time>
      </trkpt>
      <trkpt lat="46.259668" lon="13.655667">
        <ele>1774.2408</ele>
        <time>2012-01-28T08:33:06Z</time>
      </trkpt>
      <trkpt lat="46.259700" lon="13.655694">
        <ele>1777.5936</ele>
        <time>2012-01-28T08:33:21Z</time>
      </trkpt>
      <trkpt lat="46.259765" lon="13.655678">
        <ele>1780.9464</ele>
        <time>2012-01-28T08:33:33Z</time>
      </trkpt>
      <trkpt lat="46.259779" lon="13.655672">
        <ele>1781.556</ele>
        <time>2012-01-28T08:33:36Z</time>
      </trkpt>
      <trkpt lat="46.259840" lon="13.655738">
        <ele>1783.3848</ele>
        <time>2012-01-28T08:33:48Z</time>
      </trkpt>
      <trkpt lat="46.259855" lon="13.655770">
        <ele>1784.2992</ele>
        <time>2012-01-28T08:34:02Z</time>
      </trkpt>
      <trkpt lat="46.259881" lon="13.655790">
        <ele>1786.128</ele>
        <time>2012-01-28T08:34:12Z</time>
      </trkpt>
      <trkpt lat="46.259909" lon="13.655809">
        <ele>1789.176</ele>
        <time>2012-01-28T08:34:26Z</time>
      </trkpt>
      <trkpt lat="46.259947" lon="13.655819">
        <ele>1791.0048</ele>
        <time>2012-01-28T08:34:37Z</time>
      </trkpt>
      <trkpt lat="46.259971" lon="13.655815">
        <ele>1792.5288</ele>
        <time>2012-01-28T08:34:49Z</time>
      </trkpt>
      <trkpt lat="46.259996" lon="13.655815">
        <ele>1793.1384</ele>
        <time>2012-01-28T08:35:12Z</time>
      </trkpt>
      <trkpt lat="46.260029" lon="13.655832">
        <ele>1795.272</ele>
        <time>2012-01-28T08:35:24Z</time>
      </trkpt>
      <trkpt lat="46.260037" lon="13.655839">
        <ele>1795.8816</ele>
        <time>2012-01-28T08:35:36Z</time>
      </trkpt>
      <trkpt lat="46.260037" lon="13.655839">
        <ele>1795.272</ele>
        <time>2012-01-28T08:36:00Z</time>
      </trkpt>
      <trkpt lat="46.260037" lon="13.655845">
        <ele>1795.272</ele>
        <time>2012-01-28T08:36:25Z</time>
      </trkpt>
      <trkpt lat="46.260047" lon="13.655836">
        <ele>1796.796</ele>
        <time>2012-01-28T08:36:41Z</time>
      </trkpt>
      <trkpt lat="46.260098" lon="13.655853">
        <ele>1799.844</ele>
        <time>2012-01-28T08:36:53Z</time>
      </trkpt>
      <trkpt lat="46.260132" lon="13.655845">
        <ele>1802.2824</ele>
        <time>2012-01-28T08:37:04Z</time>
      </trkpt>
      <trkpt lat="46.260134" lon="13.655850">
        <ele>1802.5872</ele>
        <time>2012-01-28T08:37:23Z</time>
      </trkpt>
      <trkpt lat="46.260145" lon="13.655849">
        <ele>1804.416</ele>
        <time>2012-01-28T08:37:35Z</time>
      </trkpt>
      <trkpt lat="46.260178" lon="13.655866">
        <ele>1805.94</ele>
        <time>2012-01-28T08:37:55Z</time>
      </trkpt>
      <trkpt lat="46.260218" lon="13.655876">
        <ele>1808.3784</ele>
        <time>2012-01-28T08:38:06Z</time>
      </trkpt>
      <trkpt lat="46.260225" lon="13.655878">
        <ele>1809.2928</ele>
        <time>2012-01-28T08:38:24Z</time>
      </trkpt>
      <trkpt lat="46.260231" lon="13.655877">
        <ele>1810.8168</ele>
        <time>2012-01-28T08:38:42Z</time>
      </trkpt>
      <trkpt lat="46.260276" lon="13.655860">
        <ele>1812.3408</ele>
        <time>2012-01-28T08:38:59Z</time>
      </trkpt>
      <trkpt lat="46.260334" lon="13.655871">
        <ele>1814.7792</ele>
        <time>2012-01-28T08:39:11Z</time>
      </trkpt>
      <trkpt lat="46.260356" lon="13.655878">
        <ele>1815.6936</ele>
        <time>2012-01-28T08:39:16Z</time>
      </trkpt>
      <trkpt lat="46.260387" lon="13.655889">
        <ele>1816.9128</ele>
        <time>2012-01-28T08:39:26Z</time>
      </trkpt>
      <trkpt lat="46.260407" lon="13.655897">
        <ele>1819.0464</ele>
        <time>2012-01-28T08:39:39Z</time>
      </trkpt>
      <trkpt lat="46.260423" lon="13.655901">
        <ele>1820.8752</ele>
        <time>2012-01-28T08:39:50Z</time>
      </trkpt>
      <trkpt lat="46.260426" lon="13.655891">
        <ele>1820.8752</ele>
        <time>2012-01-28T08:40:08Z</time>
      </trkpt>
      <trkpt lat="46.260434" lon="13.655894">
        <ele>1821.7896</ele>
        <time>2012-01-28T08:40:29Z</time>
      </trkpt>
      <trkpt lat="46.260454" lon="13.655894">
        <ele>1822.3992</ele>
        <time>2012-01-28T08:40:40Z</time>
      </trkpt>
      <trkpt lat="46.260459" lon="13.655891">
        <ele>1822.704</ele>
        <time>2012-01-28T08:41:00Z</time>
      </trkpt>
      <trkpt lat="46.260511" lon="13.655902">
        <ele>1825.752</ele>
        <time>2012-01-28T08:41:11Z</time>
      </trkpt>
      <trkpt lat="46.260525" lon="13.655909">
        <ele>1826.6664</ele>
        <time>2012-01-28T08:41:24Z</time>
      </trkpt>
      <trkpt lat="46.260526" lon="13.655907">
        <ele>1828.1904</ele>
        <time>2012-01-28T08:41:38Z</time>
      </trkpt>
      <trkpt lat="46.260530" lon="13.655907">
        <ele>1828.1904</ele>
        <time>2012-01-28T08:41:58Z</time>
      </trkpt>
      <trkpt lat="46.260531" lon="13.655914">
        <ele>1828.1904</ele>
        <time>2012-01-28T08:42:16Z</time>
      </trkpt>
      <trkpt lat="46.260531" lon="13.655914">
        <ele>1828.1904</ele>
        <time>2012-01-28T08:42:36Z</time>
      </trkpt>
      <trkpt lat="46.260531" lon="13.655913">
        <ele>1828.1904</ele>
        <time>2012-01-28T08:43:07Z</time>
      </trkpt>
      <trkpt lat="46.260531" lon="13.655913">
        <ele>1829.4096</ele>
        <time>2012-01-28T08:43:18Z</time>
      </trkpt>
      <trkpt lat="46.260594" lon="13.655939">
        <ele>1832.7624</ele>
        <time>2012-01-28T08:43:31Z</time>
      </trkpt>
      <trkpt lat="46.260599" lon="13.655942">
        <ele>1835.8104</ele>
        <time>2012-01-28T08:43:42Z</time>
      </trkpt>
      <trkpt lat="46.260651" lon="13.655973">
        <ele>1838.2488</ele>
        <time>2012-01-28T08:43:53Z</time>
      </trkpt>
      <trkpt lat="46.260668" lon="13.655981">
        <ele>1840.6872</ele>
        <time>2012-01-28T08:44:05Z</time>
      </trkpt>
      <trkpt lat="46.260668" lon="13.655981">
        <ele>1841.9064</ele>
        <time>2012-01-28T08:44:23Z</time>
      </trkpt>
      <trkpt lat="46.260668" lon="13.655981">
        <ele>1843.4304</ele>
        <time>2012-01-28T08:44:36Z</time>
      </trkpt>
      <trkpt lat="46.260674" lon="13.655973">
        <ele>1844.04</ele>
        <time>2012-01-28T08:44:51Z</time>
      </trkpt>
      <trkpt lat="46.260674" lon="13.655973">
        <ele>1844.04</ele>
        <time>2012-01-28T08:45:15Z</time>
      </trkpt>
      <trkpt lat="46.260681" lon="13.655972">
        <ele>1845.8688</ele>
        <time>2012-01-28T08:45:33Z</time>
      </trkpt>
      <trkpt lat="46.260681" lon="13.655972">
        <ele>1848.612</ele>
        <time>2012-01-28T08:45:45Z</time>
      </trkpt>
      <trkpt lat="46.260734" lon="13.656025">
        <ele>1851.0504</ele>
        <time>2012-01-28T08:46:00Z</time>
      </trkpt>
      <trkpt lat="46.260734" lon="13.656025">
        <ele>1850.7456</ele>
        <time>2012-01-28T08:46:19Z</time>
      </trkpt>
      <trkpt lat="46.260735" lon="13.656022">
        <ele>1851.0504</ele>
        <time>2012-01-28T08:46:43Z</time>
      </trkpt>
      <trkpt lat="46.260797" lon="13.656081">
        <ele>1853.184</ele>
        <time>2012-01-28T08:46:55Z</time>
      </trkpt>
      <trkpt lat="46.260835" lon="13.656074">
        <ele>1855.6224</ele>
        <time>2012-01-28T08:47:07Z</time>
      </trkpt>
      <trkpt lat="46.260835" lon="13.656074">
        <ele>1858.9752</ele>
        <time>2012-01-28T08:47:20Z</time>
      </trkpt>
      <trkpt lat="46.260900" lon="13.656115">
        <ele>1861.7184</ele>
        <time>2012-01-28T08:47:33Z</time>
      </trkpt>
      <trkpt lat="46.260972" lon="13.656120">
        <ele>1863.2424</ele>
        <time>2012-01-28T08:47:45Z</time>
      </trkpt>
      <trkpt lat="46.261067" lon="13.656195">
        <ele>1865.6808</ele>
        <time>2012-01-28T08:47:56Z</time>
      </trkpt>
      <trkpt lat="46.261082" lon="13.656239">
        <ele>1866.5952</ele>
        <time>2012-01-28T08:48:08Z</time>
      </trkpt>
      <trkpt lat="46.261088" lon="13.656242">
        <ele>1865.6808</ele>
        <time>2012-01-28T08:48:22Z</time>
      </trkpt>
      <trkpt lat="46.261088" lon="13.656242">
        <ele>1866.9</ele>
        <time>2012-01-28T08:48:36Z</time>
      </trkpt>
      <trkpt lat="46.261088" lon="13.656242">
        <ele>1868.424</ele>
        <time>2012-01-28T08:48:49Z</time>
      </trkpt>
      <trkpt lat="46.261091" lon="13.656245">
        <ele>1867.5096</ele>
        <time>2012-01-28T08:49:08Z</time>
      </trkpt>
      <trkpt lat="46.261093" lon="13.656236">
        <ele>1866.9</ele>
        <time>2012-01-28T08:49:37Z</time>
      </trkpt>
      <trkpt lat="46.261093" lon="13.656236">
        <ele>1866.9</ele>
        <time>2012-01-28T08:50:04Z</time>
      </trkpt>
      <trkpt lat="46.261095" lon="13.656229">
        <ele>1866.5952</ele>
        <time>2012-01-28T08:50:30Z</time>
      </trkpt>
      <trkpt lat="46.261096" lon="13.656227">
        <ele>1865.9856</ele>
        <time>2012-01-28T08:51:01Z</time>
      </trkpt>
      <trkpt lat="46.261096" lon="13.656227">
        <ele>1865.9856</ele>
        <time>2012-01-28T08:51:32Z</time>
      </trkpt>
      <trkpt lat="46.261099" lon="13.656220">
        <ele>1865.9856</ele>
        <time>2012-01-28T08:51:59Z</time>
      </trkpt>
      <trkpt lat="46.261105" lon="13.656227">
        <ele>1865.9856</ele>
        <time>2012-01-28T08:52:21Z</time>
      </trkpt>
      <trkpt lat="46.261108" lon="13.656227">
        <ele>1866.5952</ele>
        <time>2012-01-28T08:52:38Z</time>
      </trkpt>
      <trkpt lat="46.261115" lon="13.656225">
        <ele>1866.5952</ele>
        <time>2012-01-28T08:52:57Z</time>
      </trkpt>
      <trkpt lat="46.261115" lon="13.656225">
        <ele>1865.9856</ele>
        <time>2012-01-28T08:53:16Z</time>
      </trkpt>
      <trkpt lat="46.261117" lon="13.656227">
        <ele>1865.9856</ele>
        <time>2012-01-28T08:53:36Z</time>
      </trkpt>
      <trkpt lat="46.261117" lon="13.656227">
        <ele>1865.6808</ele>
        <time>2012-01-28T08:53:59Z</time>
      </trkpt>
      <trkpt lat="46.261118" lon="13.656228">
        <ele>1867.5096</ele>
        <time>2012-01-28T08:54:11Z</time>
      </trkpt>
      <trkpt lat="46.261118" lon="13.656228">
        <ele>1868.424</ele>
        <time>2012-01-28T08:54:29Z</time>
      </trkpt>
      <trkpt lat="46.261120" lon="13.656227">
        <ele>1868.1192</ele>
        <time>2012-01-28T08:54:49Z</time>
      </trkpt>
      <trkpt lat="46.261120" lon="13.656227">
        <ele>1869.0336</ele>
        <time>2012-01-28T08:55:12Z</time>
      </trkpt>
      <trkpt lat="46.261125" lon="13.656227">
        <ele>1869.3384</ele>
        <time>2012-01-28T08:55:36Z</time>
      </trkpt>
      <trkpt lat="46.261125" lon="13.656227">
        <ele>1871.472</ele>
        <time>2012-01-28T08:55:48Z</time>
      </trkpt>
      <trkpt lat="46.261125" lon="13.656227">
        <ele>1874.2152</ele>
        <time>2012-01-28T08:56:02Z</time>
      </trkpt>
      <trkpt lat="46.261131" lon="13.656227">
        <ele>1876.044</ele>
        <time>2012-01-28T08:56:17Z</time>
      </trkpt>
      <trkpt lat="46.261131" lon="13.656227">
        <ele>1878.1776</ele>
        <time>2012-01-28T08:56:34Z</time>
      </trkpt>
      <trkpt lat="46.261146" lon="13.656220">
        <ele>1878.4824</ele>
        <time>2012-01-28T08:56:53Z</time>
      </trkpt>
      <trkpt lat="46.261146" lon="13.656220">
        <ele>1880.9208</ele>
        <time>2012-01-28T08:57:11Z</time>
      </trkpt>
      <trkpt lat="46.261146" lon="13.656220">
        <ele>1881.8352</ele>
        <time>2012-01-28T08:57:28Z</time>
      </trkpt>
      <trkpt lat="46.261160" lon="13.656215">
        <ele>1882.7496</ele>
        <time>2012-01-28T08:57:43Z</time>
      </trkpt>
      <trkpt lat="46.261160" lon="13.656215">
        <ele>1883.9688</ele>
        <time>2012-01-28T08:58:03Z</time>
      </trkpt>
      <trkpt lat="46.261173" lon="13.656204">
        <ele>1884.2736</ele>
        <time>2012-01-28T08:58:17Z</time>
      </trkpt>
      <trkpt lat="46.261173" lon="13.656204">
        <ele>1884.8832</ele>
        <time>2012-01-28T08:58:36Z</time>
      </trkpt>
      <trkpt lat="46.261191" lon="13.656205">
        <ele>1886.1024</ele>
        <time>2012-01-28T08:58:51Z</time>
      </trkpt>
      <trkpt lat="46.261191" lon="13.656205">
        <ele>1888.5408</ele>
        <time>2012-01-28T08:59:04Z</time>
      </trkpt>
      <trkpt lat="46.261191" lon="13.656205">
        <ele>1888.236</ele>
        <time>2012-01-28T08:59:22Z</time>
      </trkpt>
      <trkpt lat="46.261200" lon="13.656197">
        <ele>1887.6264</ele>
        <time>2012-01-28T08:59:43Z</time>
      </trkpt>
      <trkpt lat="46.261200" lon="13.656197">
        <ele>1887.3216</ele>
        <time>2012-01-28T09:00:06Z</time>
      </trkpt>
      <trkpt lat="46.261211" lon="13.656194">
        <ele>1887.6264</ele>
        <time>2012-01-28T09:00:27Z</time>
      </trkpt>
      <trkpt lat="46.261454" lon="13.656142">
        <ele>1889.76</ele>
        <time>2012-01-28T09:00:39Z</time>
      </trkpt>
      <trkpt lat="46.261506" lon="13.656151">
        <ele>1892.5032</ele>
        <time>2012-01-28T09:00:54Z</time>
      </trkpt>
      <trkpt lat="46.261561" lon="13.656161">
        <ele>1893.4176</ele>
        <time>2012-01-28T09:01:07Z</time>
      </trkpt>
      <trkpt lat="46.261607" lon="13.656172">
        <ele>1896.4656</ele>
        <time>2012-01-28T09:01:23Z</time>
      </trkpt>
      <trkpt lat="46.261614" lon="13.656176">
        <ele>1895.2464</ele>
        <time>2012-01-28T09:01:42Z</time>
      </trkpt>
      <trkpt lat="46.261615" lon="13.656176">
        <ele>1895.2464</ele>
        <time>2012-01-28T09:02:09Z</time>
      </trkpt>
      <trkpt lat="46.261615" lon="13.656176">
        <ele>1895.2464</ele>
        <time>2012-01-28T09:02:35Z</time>
      </trkpt>
      <trkpt lat="46.261615" lon="13.656177">
        <ele>1894.9416</ele>
        <time>2012-01-28T09:02:55Z</time>
      </trkpt>
      <trkpt lat="46.261615" lon="13.656177">
        <ele>1894.9416</ele>
        <time>2012-01-28T09:03:17Z</time>
      </trkpt>
      <trkpt lat="46.261627" lon="13.656182">
        <ele>1895.2464</ele>
        <time>2012-01-28T09:03:33Z</time>
      </trkpt>
      <trkpt lat="46.261627" lon="13.656182">
        <ele>1894.9416</ele>
        <time>2012-01-28T09:04:00Z</time>
      </trkpt>
      <trkpt lat="46.261645" lon="13.656182">
        <ele>1896.4656</ele>
        <time>2012-01-28T09:04:12Z</time>
      </trkpt>
      <trkpt lat="46.261697" lon="13.656192">
        <ele>1898.2944</ele>
        <time>2012-01-28T09:04:23Z</time>
      </trkpt>
      <trkpt lat="46.261740" lon="13.656193">
        <ele>1900.1232</ele>
        <time>2012-01-28T09:04:34Z</time>
      </trkpt>
      <trkpt lat="46.261760" lon="13.656198">
        <ele>1901.6472</ele>
        <time>2012-01-28T09:04:47Z</time>
      </trkpt>
      <trkpt lat="46.261771" lon="13.656207">
        <ele>1902.5616</ele>
        <time>2012-01-28T09:05:02Z</time>
      </trkpt>
      <trkpt lat="46.261777" lon="13.656208">
        <ele>1903.476</ele>
        <time>2012-01-28T09:05:22Z</time>
      </trkpt>
      <trkpt lat="46.261781" lon="13.656209">
        <ele>1905</ele>
        <time>2012-01-28T09:05:41Z</time>
      </trkpt>
      <trkpt lat="46.261817" lon="13.656222">
        <ele>1906.524</ele>
        <time>2012-01-28T09:05:59Z</time>
      </trkpt>
      <trkpt lat="46.261845" lon="13.656249">
        <ele>1908.3528</ele>
        <time>2012-01-28T09:06:11Z</time>
      </trkpt>
      <trkpt lat="46.261858" lon="13.656265">
        <ele>1909.8768</ele>
        <time>2012-01-28T09:06:23Z</time>
      </trkpt>
      <trkpt lat="46.261868" lon="13.656275">
        <ele>1911.096</ele>
        <time>2012-01-28T09:06:36Z</time>
      </trkpt>
      <trkpt lat="46.261868" lon="13.656275">
        <ele>1911.096</ele>
        <time>2012-01-28T09:06:39Z</time>
      </trkpt>
      <trkpt lat="46.261886" lon="13.656292">
        <ele>1912.3152</ele>
        <time>2012-01-28T09:06:54Z</time>
      </trkpt>
      <trkpt lat="46.261911" lon="13.656306">
        <ele>1914.4488</ele>
        <time>2012-01-28T09:07:09Z</time>
      </trkpt>
      <trkpt lat="46.261952" lon="13.656316">
        <ele>1916.8872</ele>
        <time>2012-01-28T09:07:20Z</time>
      </trkpt>
      <trkpt lat="46.261976" lon="13.656317">
        <ele>1918.4112</ele>
        <time>2012-01-28T09:07:36Z</time>
      </trkpt>
      <trkpt lat="46.261989" lon="13.656341">
        <ele>1919.9352</ele>
        <time>2012-01-28T09:07:52Z</time>
      </trkpt>
      <trkpt lat="46.261991" lon="13.656365">
        <ele>1920.24</ele>
        <time>2012-01-28T09:08:11Z</time>
      </trkpt>
      <trkpt lat="46.262015" lon="13.656391">
        <ele>1922.6784</ele>
        <time>2012-01-28T09:08:26Z</time>
      </trkpt>
      <trkpt lat="46.262037" lon="13.656406">
        <ele>1924.812</ele>
        <time>2012-01-28T09:08:33Z</time>
      </trkpt>
      <trkpt lat="46.262070" lon="13.656427">
        <ele>1926.6408</ele>
        <time>2012-01-28T09:08:43Z</time>
      </trkpt>
      <trkpt lat="46.262094" lon="13.656443">
        <ele>1928.4696</ele>
        <time>2012-01-28T09:08:56Z</time>
      </trkpt>
      <trkpt lat="46.262125" lon="13.656459">
        <ele>1930.908</ele>
        <time>2012-01-28T09:09:08Z</time>
      </trkpt>
      <trkpt lat="46.262130" lon="13.656463">
        <ele>1930.908</ele>
        <time>2012-01-28T09:09:27Z</time>
      </trkpt>
      <trkpt lat="46.262130" lon="13.656463">
        <ele>1930.908</ele>
        <time>2012-01-28T09:09:50Z</time>
      </trkpt>
      <trkpt lat="46.262132" lon="13.656466">
        <ele>1930.908</ele>
        <time>2012-01-28T09:10:15Z</time>
      </trkpt>
      <trkpt lat="46.262146" lon="13.656465">
        <ele>1931.8224</ele>
        <time>2012-01-28T09:10:27Z</time>
      </trkpt>
      <trkpt lat="46.262174" lon="13.656478">
        <ele>1934.8704</ele>
        <time>2012-01-28T09:10:42Z</time>
      </trkpt>
      <trkpt lat="46.262194" lon="13.656476">
        <ele>1936.0896</ele>
        <time>2012-01-28T09:10:56Z</time>
      </trkpt>
      <trkpt lat="46.262216" lon="13.656479">
        <ele>1938.528</ele>
        <time>2012-01-28T09:11:12Z</time>
      </trkpt>
      <trkpt lat="46.262265" lon="13.656483">
        <ele>1940.052</ele>
        <time>2012-01-28T09:11:23Z</time>
      </trkpt>
      <trkpt lat="46.262278" lon="13.656489">
        <ele>1943.1</ele>
        <time>2012-01-28T09:11:38Z</time>
      </trkpt>
      <trkpt lat="46.262305" lon="13.656495">
        <ele>1944.9288</ele>
        <time>2012-01-28T09:11:47Z</time>
      </trkpt>
      <trkpt lat="46.262330" lon="13.656509">
        <ele>1946.4528</ele>
        <time>2012-01-28T09:11:59Z</time>
      </trkpt>
      <trkpt lat="46.262341" lon="13.656516">
        <ele>1947.672</ele>
        <time>2012-01-28T09:12:13Z</time>
      </trkpt>
      <trkpt lat="46.262341" lon="13.656516">
        <ele>1947.672</ele>
        <time>2012-01-28T09:12:33Z</time>
      </trkpt>
      <trkpt lat="46.262342" lon="13.656515">
        <ele>1947.672</ele>
        <time>2012-01-28T09:13:01Z</time>
      </trkpt>
      <trkpt lat="46.262383" lon="13.656528">
        <ele>1949.196</ele>
        <time>2012-01-28T09:13:17Z</time>
      </trkpt>
      <trkpt lat="46.262416" lon="13.656553">
        <ele>1951.0248</ele>
        <time>2012-01-28T09:13:28Z</time>
      </trkpt>
      <trkpt lat="46.262452" lon="13.656574">
        <ele>1954.3776</ele>
        <time>2012-01-28T09:13:40Z</time>
      </trkpt>
      <trkpt lat="46.262473" lon="13.656606">
        <ele>1957.4256</ele>
        <time>2012-01-28T09:13:55Z</time>
      </trkpt>
      <trkpt lat="46.262484" lon="13.656627">
        <ele>1959.2544</ele>
        <time>2012-01-28T09:14:06Z</time>
      </trkpt>
      <trkpt lat="46.262505" lon="13.656645">
        <ele>1960.7784</ele>
        <time>2012-01-28T09:14:18Z</time>
      </trkpt>
      <trkpt lat="46.262542" lon="13.656669">
        <ele>1963.2168</ele>
        <time>2012-01-28T09:14:32Z</time>
      </trkpt>
      <trkpt lat="46.262544" lon="13.656670">
        <ele>1963.2168</ele>
        <time>2012-01-28T09:14:53Z</time>
      </trkpt>
      <trkpt lat="46.262544" lon="13.656670">
        <ele>1963.5216</ele>
        <time>2012-01-28T09:15:23Z</time>
      </trkpt>
      <trkpt lat="46.262546" lon="13.656669">
        <ele>1959.2544</ele>
        <time>2012-01-28T09:15:43Z</time>
      </trkpt>
      <trkpt lat="46.262546" lon="13.656669">
        <ele>1963.2168</ele>
        <time>2012-01-28T09:15:43Z</time>
      </trkpt>
      <trkpt lat="46.262546" lon="13.656669">
        <ele>1966.8744</ele>
        <time>2012-01-28T09:15:45Z</time>
      </trkpt>
      <trkpt lat="46.262546" lon="13.656669">
        <ele>1961.6928</ele>
        <time>2012-01-28T09:15:46Z</time>
      </trkpt>
      <trkpt lat="46.262546" lon="13.656669">
        <ele>1965.96</ele>
        <time>2012-01-28T09:15:46Z</time>
      </trkpt>
      <trkpt lat="46.262546" lon="13.656669">
        <ele>1961.0832</ele>
        <time>2012-01-28T09:15:47Z</time>
      </trkpt>
      <trkpt lat="46.262546" lon="13.656669">
        <ele>1964.7408</ele>
        <time>2012-01-28T09:15:49Z</time>
      </trkpt>
      <trkpt lat="46.262546" lon="13.656669">
        <ele>1961.0832</ele>
        <time>2012-01-28T09:15:59Z</time>
      </trkpt>
      <trkpt lat="46.262546" lon="13.656669">
        <ele>1964.7408</ele>
        <time>2012-01-28T09:16:01Z</time>
      </trkpt>
      <trkpt lat="46.262546" lon="13.656669">
        <ele>1963.2168</ele>
        <time>2012-01-28T09:16:03Z</time>
      </trkpt>
      <trkpt lat="46.262547" lon="13.656670">
        <ele>1963.2168</ele>
        <time>2012-01-28T09:16:28Z</time>
      </trkpt>
      <trkpt lat="46.262548" lon="13.656676">
        <ele>1965.6552</ele>
        <time>2012-01-28T09:16:48Z</time>
      </trkpt>
      <trkpt lat="46.262580" lon="13.656693">
        <ele>1965.0456</ele>
        <time>2012-01-28T09:17:00Z</time>
      </trkpt>
      <trkpt lat="46.262603" lon="13.656701">
        <ele>1968.3984</ele>
        <time>2012-01-28T09:17:12Z</time>
      </trkpt>
      <trkpt lat="46.262644" lon="13.656705">
        <ele>1971.4464</ele>
        <time>2012-01-28T09:17:24Z</time>
      </trkpt>
      <trkpt lat="46.262657" lon="13.656719">
        <ele>1972.3608</ele>
        <time>2012-01-28T09:17:42Z</time>
      </trkpt>
      <trkpt lat="46.262687" lon="13.656736">
        <ele>1974.1896</ele>
        <time>2012-01-28T09:17:53Z</time>
      </trkpt>
      <trkpt lat="46.262719" lon="13.656746">
        <ele>1976.628</ele>
        <time>2012-01-28T09:18:04Z</time>
      </trkpt>
      <trkpt lat="46.262752" lon="13.656753">
        <ele>1979.0664</ele>
        <time>2012-01-28T09:18:13Z</time>
      </trkpt>
      <trkpt lat="46.262776" lon="13.656765">
        <ele>1981.5048</ele>
        <time>2012-01-28T09:18:25Z</time>
      </trkpt>
      <trkpt lat="46.262797" lon="13.656786">
        <ele>1982.724</ele>
        <time>2012-01-28T09:18:44Z</time>
      </trkpt>
      <trkpt lat="46.262821" lon="13.656802">
        <ele>1985.772</ele>
        <time>2012-01-28T09:19:00Z</time>
      </trkpt>
      <trkpt lat="46.262848" lon="13.656801">
        <ele>1987.6008</ele>
        <time>2012-01-28T09:19:15Z</time>
      </trkpt>
      <trkpt lat="46.262888" lon="13.656799">
        <ele>1989.7344</ele>
        <time>2012-01-28T09:19:26Z</time>
      </trkpt>
      <trkpt lat="46.262926" lon="13.656810">
        <ele>1991.5632</ele>
        <time>2012-01-28T09:19:38Z</time>
      </trkpt>
      <trkpt lat="46.262944" lon="13.656805">
        <ele>1993.392</ele>
        <time>2012-01-28T09:19:49Z</time>
      </trkpt>
      <trkpt lat="46.262959" lon="13.656810">
        <ele>1994.3064</ele>
        <time>2012-01-28T09:20:06Z</time>
      </trkpt>
      <trkpt lat="46.262988" lon="13.656824">
        <ele>1996.44</ele>
        <time>2012-01-28T09:20:19Z</time>
      </trkpt>
      <trkpt lat="46.263007" lon="13.656819">
        <ele>1998.2688</ele>
        <time>2012-01-28T09:20:29Z</time>
      </trkpt>
      <trkpt lat="46.263039" lon="13.656820">
        <ele>2000.0976</ele>
        <time>2012-01-28T09:20:42Z</time>
      </trkpt>
      <trkpt lat="46.263052" lon="13.656832">
        <ele>2002.2312</ele>
        <time>2012-01-28T09:20:56Z</time>
      </trkpt>
      <trkpt lat="46.263075" lon="13.656843">
        <ele>2003.4504</ele>
        <time>2012-01-28T09:21:15Z</time>
      </trkpt>
      <trkpt lat="46.263111" lon="13.656867">
        <ele>2005.8888</ele>
        <time>2012-01-28T09:21:30Z</time>
      </trkpt>
      <trkpt lat="46.263137" lon="13.656885">
        <ele>2007.4128</ele>
        <time>2012-01-28T09:21:40Z</time>
      </trkpt>
      <trkpt lat="46.263161" lon="13.656908">
        <ele>2008.9368</ele>
        <time>2012-01-28T09:21:52Z</time>
      </trkpt>
      <trkpt lat="46.263189" lon="13.656922">
        <ele>2011.0704</ele>
        <time>2012-01-28T09:22:04Z</time>
      </trkpt>
      <trkpt lat="46.263209" lon="13.656925">
        <ele>2011.68</ele>
        <time>2012-01-28T09:22:16Z</time>
      </trkpt>
      <trkpt lat="46.263228" lon="13.656929">
        <ele>2013.204</ele>
        <time>2012-01-28T09:22:35Z</time>
      </trkpt>
      <trkpt lat="46.263242" lon="13.656935">
        <ele>2014.728</ele>
        <time>2012-01-28T09:22:47Z</time>
      </trkpt>
      <trkpt lat="46.263253" lon="13.656944">
        <ele>2015.6424</ele>
        <time>2012-01-28T09:23:11Z</time>
      </trkpt>
      <trkpt lat="46.263288" lon="13.656975">
        <ele>2018.0808</ele>
        <time>2012-01-28T09:23:26Z</time>
      </trkpt>
      <trkpt lat="46.263312" lon="13.656986">
        <ele>2020.2144</ele>
        <time>2012-01-28T09:23:40Z</time>
      </trkpt>
      <trkpt lat="46.263346" lon="13.656983">
        <ele>2023.2624</ele>
        <time>2012-01-28T09:23:53Z</time>
      </trkpt>
      <trkpt lat="46.263379" lon="13.656981">
        <ele>2025.0912</ele>
        <time>2012-01-28T09:24:07Z</time>
      </trkpt>
      <trkpt lat="46.263392" lon="13.656993">
        <ele>2026.6152</ele>
        <time>2012-01-28T09:24:20Z</time>
      </trkpt>
      <trkpt lat="46.263392" lon="13.656993">
        <ele>2026.6152</ele>
        <time>2012-01-28T09:24:42Z</time>
      </trkpt>
      <trkpt lat="46.263392" lon="13.656993">
        <ele>2026.0056</ele>
        <time>2012-01-28T09:25:02Z</time>
      </trkpt>
      <trkpt lat="46.263392" lon="13.656993">
        <ele>2026.0056</ele>
        <time>2012-01-28T09:25:35Z</time>
      </trkpt>
      <trkpt lat="46.263392" lon="13.656992">
        <ele>2026.0056</ele>
        <time>2012-01-28T09:26:07Z</time>
      </trkpt>
      <trkpt lat="46.263420" lon="13.656976">
        <ele>2027.5296</ele>
        <time>2012-01-28T09:26:34Z</time>
      </trkpt>
      <trkpt lat="46.263466" lon="13.656923">
        <ele>2030.8824</ele>
        <time>2012-01-28T09:26:46Z</time>
      </trkpt>
      <trkpt lat="46.263496" lon="13.656915">
        <ele>2032.7112</ele>
        <time>2012-01-28T09:26:58Z</time>
      </trkpt>
      <trkpt lat="46.263512" lon="13.656909">
        <ele>2035.1496</ele>
        <time>2012-01-28T09:27:08Z</time>
      </trkpt>
      <trkpt lat="46.263536" lon="13.656902">
        <ele>2037.2832</ele>
        <time>2012-01-28T09:27:18Z</time>
      </trkpt>
      <trkpt lat="46.263563" lon="13.656891">
        <ele>2038.5024</ele>
        <time>2012-01-28T09:27:28Z</time>
      </trkpt>
      <trkpt lat="46.263569" lon="13.656886">
        <ele>2039.7216</ele>
        <time>2012-01-28T09:27:47Z</time>
      </trkpt>
      <trkpt lat="46.263609" lon="13.656887">
        <ele>2041.8552</ele>
        <time>2012-01-28T09:28:02Z</time>
      </trkpt>
      <trkpt lat="46.263622" lon="13.656884">
        <ele>2043.3792</ele>
        <time>2012-01-28T09:28:14Z</time>
      </trkpt>
      <trkpt lat="46.263632" lon="13.656883">
        <ele>2045.8176</ele>
        <time>2012-01-28T09:28:29Z</time>
      </trkpt>
      <trkpt lat="46.263672" lon="13.656876">
        <ele>2047.6464</ele>
        <time>2012-01-28T09:28:39Z</time>
      </trkpt>
      <trkpt lat="46.263693" lon="13.656870">
        <ele>2050.0848</ele>
        <time>2012-01-28T09:28:53Z</time>
      </trkpt>
      <trkpt lat="46.263726" lon="13.656863">
        <ele>2050.9992</ele>
        <time>2012-01-28T09:29:09Z</time>
      </trkpt>
      <trkpt lat="46.263740" lon="13.656866">
        <ele>2052.5232</ele>
        <time>2012-01-28T09:29:21Z</time>
      </trkpt>
      <trkpt lat="46.263758" lon="13.656864">
        <ele>2053.4376</ele>
        <time>2012-01-28T09:29:39Z</time>
      </trkpt>
      <trkpt lat="46.263790" lon="13.656855">
        <ele>2055.5712</ele>
        <time>2012-01-28T09:29:51Z</time>
      </trkpt>
      <trkpt lat="46.263811" lon="13.656852">
        <ele>2057.7048</ele>
        <time>2012-01-28T09:30:03Z</time>
      </trkpt>
      <trkpt lat="46.263833" lon="13.656855">
        <ele>2059.2288</ele>
        <time>2012-01-28T09:30:15Z</time>
      </trkpt>
      <trkpt lat="46.263862" lon="13.656853">
        <ele>2061.6672</ele>
        <time>2012-01-28T09:30:29Z</time>
      </trkpt>
      <trkpt lat="46.263883" lon="13.656861">
        <ele>2063.1912</ele>
        <time>2012-01-28T09:30:44Z</time>
      </trkpt>
      <trkpt lat="46.263898" lon="13.656864">
        <ele>2065.6296</ele>
        <time>2012-01-28T09:30:57Z</time>
      </trkpt>
      <trkpt lat="46.263919" lon="13.656879">
        <ele>2066.544</ele>
        <time>2012-01-28T09:31:11Z</time>
      </trkpt>
      <trkpt lat="46.263964" lon="13.656908">
        <ele>2068.9824</ele>
        <time>2012-01-28T09:31:24Z</time>
      </trkpt>
      <trkpt lat="46.263999" lon="13.656927">
        <ele>2070.8112</ele>
        <time>2012-01-28T09:31:35Z</time>
      </trkpt>
      <trkpt lat="46.264010" lon="13.656924">
        <ele>2072.3352</ele>
        <time>2012-01-28T09:31:47Z</time>
      </trkpt>
      <trkpt lat="46.264018" lon="13.656928">
        <ele>2073.5544</ele>
        <time>2012-01-28T09:32:02Z</time>
      </trkpt>
      <trkpt lat="46.264030" lon="13.656925">
        <ele>2074.7736</ele>
        <time>2012-01-28T09:32:14Z</time>
      </trkpt>
      <trkpt lat="46.264054" lon="13.656939">
        <ele>2077.5168</ele>
        <time>2012-01-28T09:32:29Z</time>
      </trkpt>
      <trkpt lat="46.264075" lon="13.656953">
        <ele>2079.0408</ele>
        <time>2012-01-28T09:32:41Z</time>
      </trkpt>
      <trkpt lat="46.264102" lon="13.656939">
        <ele>2080.8696</ele>
        <time>2012-01-28T09:32:55Z</time>
      </trkpt>
      <trkpt lat="46.264123" lon="13.656966">
        <ele>2083.308</ele>
        <time>2012-01-28T09:33:08Z</time>
      </trkpt>
      <trkpt lat="46.264152" lon="13.656968">
        <ele>2084.2224</ele>
        <time>2012-01-28T09:33:18Z</time>
      </trkpt>
      <trkpt lat="46.264161" lon="13.656969">
        <ele>2086.6608</ele>
        <time>2012-01-28T09:33:31Z</time>
      </trkpt>
      <trkpt lat="46.264199" lon="13.656947">
        <ele>2089.7088</ele>
        <time>2012-01-28T09:33:47Z</time>
      </trkpt>
      <trkpt lat="46.264238" lon="13.656966">
        <ele>2092.452</ele>
        <time>2012-01-28T09:34:03Z</time>
      </trkpt>
      <trkpt lat="46.264256" lon="13.656970">
        <ele>2093.976</ele>
        <time>2012-01-28T09:34:17Z</time>
      </trkpt>
      <trkpt lat="46.264290" lon="13.656963">
        <ele>2096.7192</ele>
        <time>2012-01-28T09:34:29Z</time>
      </trkpt>
      <trkpt lat="46.264323" lon="13.656956">
        <ele>2098.2432</ele>
        <time>2012-01-28T09:34:44Z</time>
      </trkpt>
      <trkpt lat="46.264341" lon="13.656964">
        <ele>2099.1576</ele>
        <time>2012-01-28T09:35:04Z</time>
      </trkpt>
      <trkpt lat="46.264356" lon="13.656964">
        <ele>2100.9864</ele>
        <time>2012-01-28T09:35:15Z</time>
      </trkpt>
      <trkpt lat="46.264369" lon="13.656958">
        <ele>2102.5104</ele>
        <time>2012-01-28T09:35:27Z</time>
      </trkpt>
      <trkpt lat="46.264373" lon="13.656963">
        <ele>2103.4248</ele>
        <time>2012-01-28T09:35:43Z</time>
      </trkpt>
      <trkpt lat="46.264410" lon="13.656985">
        <ele>2104.9488</ele>
        <time>2012-01-28T09:36:01Z</time>
      </trkpt>
      <trkpt lat="46.264435" lon="13.657020">
        <ele>2107.692</ele>
        <time>2012-01-28T09:36:10Z</time>
      </trkpt>
      <trkpt lat="46.264461" lon="13.657068">
        <ele>2110.1304</ele>
        <time>2012-01-28T09:36:24Z</time>
      </trkpt>
      <trkpt lat="46.264490" lon="13.657120">
        <ele>2112.264</ele>
        <time>2012-01-28T09:36:36Z</time>
      </trkpt>
      <trkpt lat="46.264515" lon="13.657141">
        <ele>2114.7024</ele>
        <time>2012-01-28T09:36:48Z</time>
      </trkpt>
      <trkpt lat="46.264533" lon="13.657127">
        <ele>2117.4456</ele>
        <time>2012-01-28T09:37:03Z</time>
      </trkpt>
      <trkpt lat="46.264555" lon="13.657129">
        <ele>2118.36</ele>
        <time>2012-01-28T09:37:21Z</time>
      </trkpt>
      <trkpt lat="46.264582" lon="13.657131">
        <ele>2120.7984</ele>
        <time>2012-01-28T09:37:30Z</time>
      </trkpt>
      <trkpt lat="46.264623" lon="13.657114">
        <ele>2123.5416</ele>
        <time>2012-01-28T09:37:42Z</time>
      </trkpt>
      <trkpt lat="46.264680" lon="13.657138">
        <ele>2127.1992</ele>
        <time>2012-01-28T09:37:54Z</time>
      </trkpt>
      <trkpt lat="46.264708" lon="13.657145">
        <ele>2128.4184</ele>
        <time>2012-01-28T09:38:09Z</time>
      </trkpt>
      <trkpt lat="46.264722" lon="13.657178">
        <ele>2131.4664</ele>
        <time>2012-01-28T09:38:24Z</time>
      </trkpt>
      <trkpt lat="46.264759" lon="13.657161">
        <ele>2134.8192</ele>
        <time>2012-01-28T09:38:38Z</time>
      </trkpt>
      <trkpt lat="46.264775" lon="13.657151">
        <ele>2137.2576</ele>
        <time>2012-01-28T09:38:51Z</time>
      </trkpt>
      <trkpt lat="46.264817" lon="13.657126">
        <ele>2140.0008</ele>
        <time>2012-01-28T09:39:05Z</time>
      </trkpt>
      <trkpt lat="46.264856" lon="13.657102">
        <ele>2142.4392</ele>
        <time>2012-01-28T09:39:18Z</time>
      </trkpt>
      <trkpt lat="46.264889" lon="13.657097">
        <ele>2144.8776</ele>
        <time>2012-01-28T09:39:27Z</time>
      </trkpt>
      <trkpt lat="46.264902" lon="13.657101">
        <ele>2146.4016</ele>
        <time>2012-01-28T09:39:37Z</time>
      </trkpt>
      <trkpt lat="46.264921" lon="13.657086">
        <ele>2149.1448</ele>
        <time>2012-01-28T09:39:52Z</time>
      </trkpt>
      <trkpt lat="46.264942" lon="13.657080">
        <ele>2150.9736</ele>
        <time>2012-01-28T09:40:13Z</time>
      </trkpt>
      <trkpt lat="46.264990" lon="13.657035">
        <ele>2153.1072</ele>
        <time>2012-01-28T09:40:26Z</time>
      </trkpt>
      <trkpt lat="46.265039" lon="13.657015">
        <ele>2156.46</ele>
        <time>2012-01-28T09:40:38Z</time>
      </trkpt>
      <trkpt lat="46.265085" lon="13.657028">
        <ele>2159.2032</ele>
        <time>2012-01-28T09:40:51Z</time>
      </trkpt>
      <trkpt lat="46.265119" lon="13.657058">
        <ele>2161.6416</ele>
        <time>2012-01-28T09:41:02Z</time>
      </trkpt>
      <trkpt lat="46.265144" lon="13.657084">
        <ele>2164.6896</ele>
        <time>2012-01-28T09:41:15Z</time>
      </trkpt>
      <trkpt lat="46.265143" lon="13.657080">
        <ele>2164.6896</ele>
        <time>2012-01-28T09:41:33Z</time>
      </trkpt>
      <trkpt lat="46.265143" lon="13.657080">
        <ele>2164.9944</ele>
        <time>2012-01-28T09:41:56Z</time>
      </trkpt>
      <trkpt lat="46.265170" lon="13.657100">
        <ele>2167.4328</ele>
        <time>2012-01-28T09:42:12Z</time>
      </trkpt>
      <trkpt lat="46.265222" lon="13.657093">
        <ele>2170.7856</ele>
        <time>2012-01-28T09:42:23Z</time>
      </trkpt>
      <trkpt lat="46.265263" lon="13.657076">
        <ele>2173.224</ele>
        <time>2012-01-28T09:42:34Z</time>
      </trkpt>
      <trkpt lat="46.265293" lon="13.657095">
        <ele>2175.9672</ele>
        <time>2012-01-28T09:42:46Z</time>
      </trkpt>
      <trkpt lat="46.265301" lon="13.657145">
        <ele>2177.1864</ele>
        <time>2012-01-28T09:43:02Z</time>
      </trkpt>
      <trkpt lat="46.265305" lon="13.657148">
        <ele>2175.9672</ele>
        <time>2012-01-28T09:43:13Z</time>
      </trkpt>
      <trkpt lat="46.265305" lon="13.657148">
        <ele>2175.9672</ele>
        <time>2012-01-28T09:43:39Z</time>
      </trkpt>
      <trkpt lat="46.265305" lon="13.657149">
        <ele>2176.5768</ele>
        <time>2012-01-28T09:44:04Z</time>
      </trkpt>
      <trkpt lat="46.265305" lon="13.657149">
        <ele>2175.9672</ele>
        <time>2012-01-28T09:44:29Z</time>
      </trkpt>
      <trkpt lat="46.265306" lon="13.657147">
        <ele>2175.9672</ele>
        <time>2012-01-28T09:44:50Z</time>
      </trkpt>
      <trkpt lat="46.265312" lon="13.657151">
        <ele>2177.1864</ele>
        <time>2012-01-28T09:45:05Z</time>
      </trkpt>
      <trkpt lat="46.265312" lon="13.657151">
        <ele>2177.1864</ele>
        <time>2012-01-28T09:45:20Z</time>
      </trkpt>
      <trkpt lat="46.265310" lon="13.657159">
        <ele>2177.1864</ele>
        <time>2012-01-28T09:45:39Z</time>
      </trkpt>
      <trkpt lat="46.265315" lon="13.657170">
        <ele>2176.5768</ele>
        <time>2012-01-28T09:45:58Z</time>
      </trkpt>
      <trkpt lat="46.265317" lon="13.657167">
        <ele>2177.1864</ele>
        <time>2012-01-28T09:46:22Z</time>
      </trkpt>
      <trkpt lat="46.265293" lon="13.657157">
        <ele>2177.1864</ele>
        <time>2012-01-28T09:46:35Z</time>
      </trkpt>
      <trkpt lat="46.265293" lon="13.657157">
        <ele>2175.9672</ele>
        <time>2012-01-28T09:46:56Z</time>
      </trkpt>
      <trkpt lat="46.265294" lon="13.657157">
        <ele>2175.9672</ele>
        <time>2012-01-28T09:47:25Z</time>
      </trkpt>
      <trkpt lat="46.265294" lon="13.657157">
        <ele>2169.2616</ele>
        <time>2012-01-28T09:47:46Z</time>
      </trkpt>
      <trkpt lat="46.265294" lon="13.657157">
        <ele>2178.4056</ele>
        <time>2012-01-28T09:47:47Z</time>
      </trkpt>
      <trkpt lat="46.265294" lon="13.657157">
        <ele>2175.9672</ele>
        <time>2012-01-28T09:47:51Z</time>
      </trkpt>
      <trkpt lat="46.265292" lon="13.657160">
        <ele>2175.9672</ele>
        <time>2012-01-28T09:48:14Z</time>
      </trkpt>
      <trkpt lat="46.265292" lon="13.657159">
        <ele>2175.9672</ele>
        <time>2012-01-28T09:48:37Z</time>
      </trkpt>
      <trkpt lat="46.265302" lon="13.657152">
        <ele>2177.1864</ele>
        <time>2012-01-28T09:48:50Z</time>
      </trkpt>
      <trkpt lat="46.265315" lon="13.657167">
        <ele>2176.5768</ele>
        <time>2012-01-28T09:49:07Z</time>
      </trkpt>
      <trkpt lat="46.265319" lon="13.657204">
        <ele>2177.1864</ele>
        <time>2012-01-28T09:49:16Z</time>
      </trkpt>
      <trkpt lat="46.265346" lon="13.657232">
        <ele>2177.4912</ele>
        <time>2012-01-28T09:49:20Z</time>
      </trkpt>
      <trkpt lat="46.265335" lon="13.657326">
        <ele>2178.4056</ele>
        <time>2012-01-28T09:49:31Z</time>
      </trkpt>
      <trkpt lat="46.265330" lon="13.657330">
        <ele>2178.1008</ele>
        <time>2012-01-28T09:49:47Z</time>
      </trkpt>
      <trkpt lat="46.265319" lon="13.657242">
        <ele>2178.1008</ele>
        <time>2012-01-28T09:49:58Z</time>
      </trkpt>
      <trkpt lat="46.265295" lon="13.657182">
        <ele>2176.5768</ele>
        <time>2012-01-28T09:50:10Z</time>
      </trkpt>
      <trkpt lat="46.265314" lon="13.657197">
        <ele>2177.1864</ele>
        <time>2012-01-28T09:50:29Z</time>
      </trkpt>
      <trkpt lat="46.265344" lon="13.657158">
        <ele>2176.5768</ele>
        <time>2012-01-28T09:50:52Z</time>
      </trkpt>
      <trkpt lat="46.265316" lon="13.657147">
        <ele>2177.1864</ele>
        <time>2012-01-28T09:51:18Z</time>
      </trkpt>
      <trkpt lat="46.265320" lon="13.657142">
        <ele>2176.5768</ele>
        <time>2012-01-28T09:51:39Z</time>
      </trkpt>
      <trkpt lat="46.265321" lon="13.657177">
        <ele>2177.4912</ele>
        <time>2012-01-28T09:53:29Z</time>
      </trkpt>
      <trkpt lat="46.265290" lon="13.657169">
        <ele>2176.5768</ele>
        <time>2012-01-28T09:53:41Z</time>
      </trkpt>
      <trkpt lat="46.265290" lon="13.657176">
        <ele>2176.5768</ele>
        <time>2012-01-28T09:53:53Z</time>
      </trkpt>
      <trkpt lat="46.265286" lon="13.657161">
        <ele>2177.4912</ele>
        <time>2012-01-28T09:54:06Z</time>
      </trkpt>
      <trkpt lat="46.265300" lon="13.657188">
        <ele>2175.9672</ele>
        <time>2012-01-28T09:54:20Z</time>
      </trkpt>
      <trkpt lat="46.265302" lon="13.657187">
        <ele>2176.5768</ele>
        <time>2012-01-28T09:54:54Z</time>
      </trkpt>
      <trkpt lat="46.265295" lon="13.657173">
        <ele>2177.1864</ele>
        <time>2012-01-28T09:55:17Z</time>
      </trkpt>
      <trkpt lat="46.265295" lon="13.657167">
        <ele>2176.5768</ele>
        <time>2012-01-28T09:55:31Z</time>
      </trkpt>
      <trkpt lat="46.265293" lon="13.657170">
        <ele>2175.9672</ele>
        <time>2012-01-28T09:56:01Z</time>
      </trkpt>
      <trkpt lat="46.265293" lon="13.657170">
        <ele>2176.5768</ele>
        <time>2012-01-28T09:56:27Z</time>
      </trkpt>
      <trkpt lat="46.265292" lon="13.657171">
        <ele>2176.5768</ele>
        <time>2012-01-28T09:56:59Z</time>
      </trkpt>
      <trkpt lat="46.265291" lon="13.657169">
        <ele>2176.5768</ele>
        <time>2012-01-28T09:57:40Z</time>
      </trkpt>
      <trkpt lat="46.265289" lon="13.657171">
        <ele>2176.5768</ele>
        <time>2012-01-28T09:58:08Z</time>
      </trkpt>
      <trkpt lat="46.265292" lon="13.657170">
        <ele>2177.1864</ele>
        <time>2012-01-28T09:58:40Z</time>
      </trkpt>
      <trkpt lat="46.265292" lon="13.657170">
        <ele>2177.1864</ele>
        <time>2012-01-28T09:59:11Z</time>
      </trkpt>
      <trkpt lat="46.265294" lon="13.657170">
        <ele>2177.1864</ele>
        <time>2012-01-28T09:59:48Z</time>
      </trkpt>
      <trkpt lat="46.265295" lon="13.657170">
        <ele>2177.1864</ele>
        <time>2012-01-28T10:00:09Z</time>
      </trkpt>
      <trkpt lat="46.265295" lon="13.657160">
        <ele>2177.4912</ele>
        <time>2012-01-28T10:00:45Z</time>
      </trkpt>
      <trkpt lat="46.265290" lon="13.657155">
        <ele>2177.1864</ele>
        <time>2012-01-28T10:01:21Z</time>
      </trkpt>
      <trkpt lat="46.265290" lon="13.657155">
        <ele>2177.1864</ele>
        <time>2012-01-28T10:01:57Z</time>
      </trkpt>
      <trkpt lat="46.265288" lon="13.657154">
        <ele>2177.1864</ele>
        <time>2012-01-28T10:02:27Z</time>
      </trkpt>
      <trkpt lat="46.265288" lon="13.657155">
        <ele>2177.1864</ele>
        <time>2012-01-28T10:02:54Z</time>
      </trkpt>
      <trkpt lat="46.265285" lon="13.657160">
        <ele>2177.1864</ele>
        <time>2012-01-28T10:03:06Z</time>
      </trkpt>
      <trkpt lat="46.265284" lon="13.657160">
        <ele>2177.1864</ele>
        <time>2012-01-28T10:03:44Z</time>
      </trkpt>
      <trkpt lat="46.265284" lon="13.657157">
        <ele>2177.4912</ele>
        <time>2012-01-28T10:04:26Z</time>
      </trkpt>
      <trkpt lat="46.265286" lon="13.657158">
        <ele>2178.1008</ele>
        <time>2012-01-28T10:05:08Z</time>
      </trkpt>
      <trkpt lat="46.265287" lon="13.657158">
        <ele>2178.1008</ele>
        <time>2012-01-28T10:05:43Z</time>
      </trkpt>
      <trkpt lat="46.265285" lon="13.657157">
        <ele>2178.1008</ele>
        <time>2012-01-28T10:06:22Z</time>
      </trkpt>
      <trkpt lat="46.265284" lon="13.657157">
        <ele>2178.1008</ele>
        <time>2012-01-28T10:07:04Z</time>
      </trkpt>
      <trkpt lat="46.265284" lon="13.657157">
        <ele>2178.1008</ele>
        <time>2012-01-28T10:07:35Z</time>
      </trkpt>
      <trkpt lat="46.265282" lon="13.657160">
        <ele>2178.1008</ele>
        <time>2012-01-28T10:08:06Z</time>
      </trkpt>
      <trkpt lat="46.265282" lon="13.657160">
        <ele>2178.1008</ele>
        <time>2012-01-28T10:08:41Z</time>
      </trkpt>
      <trkpt lat="46.265285" lon="13.657159">
        <ele>2178.1008</ele>
        <time>2012-01-28T10:09:07Z</time>
      </trkpt>
      <trkpt lat="46.265285" lon="13.657159">
        <ele>2178.1008</ele>
        <time>2012-01-28T10:09:39Z</time>
      </trkpt>
      <trkpt lat="46.265285" lon="13.657159">
        <ele>2178.4056</ele>
        <time>2012-01-28T10:10:06Z</time>
      </trkpt>
      <trkpt lat="46.265286" lon="13.657157">
        <ele>2178.4056</ele>
        <time>2012-01-28T10:10:35Z</time>
      </trkpt>
      <trkpt lat="46.265285" lon="13.657158">
        <ele>2178.4056</ele>
        <time>2012-01-28T10:11:15Z</time>
      </trkpt>
      <trkpt lat="46.265287" lon="13.657158">
        <ele>2178.1008</ele>
        <time>2012-01-28T10:11:54Z</time>
      </trkpt>
      <trkpt lat="46.265287" lon="13.657158">
        <ele>2178.1008</ele>
        <time>2012-01-28T10:12:25Z</time>
      </trkpt>
      <trkpt lat="46.265287" lon="13.657158">
        <ele>2178.1008</ele>
        <time>2012-01-28T10:12:48Z</time>
      </trkpt>
      <trkpt lat="46.265287" lon="13.657169">
        <ele>2178.1008</ele>
        <time>2012-01-28T10:13:15Z</time>
      </trkpt>
      <trkpt lat="46.265285" lon="13.657166">
        <ele>2178.4056</ele>
        <time>2012-01-28T10:13:52Z</time>
      </trkpt>
      <trkpt lat="46.265287" lon="13.657172">
        <ele>2178.4056</ele>
        <time>2012-01-28T10:14:25Z</time>
      </trkpt>
      <trkpt lat="46.265286" lon="13.657173">
        <ele>2178.4056</ele>
        <time>2012-01-28T10:14:59Z</time>
      </trkpt>
      <trkpt lat="46.265286" lon="13.657173">
        <ele>2179.0152</ele>
        <time>2012-01-28T10:15:26Z</time>
      </trkpt>
      <trkpt lat="46.265286" lon="13.657171">
        <ele>2179.0152</ele>
        <time>2012-01-28T10:15:57Z</time>
      </trkpt>
      <trkpt lat="46.265287" lon="13.657170">
        <ele>2179.0152</ele>
        <time>2012-01-28T10:16:27Z</time>
      </trkpt>
      <trkpt lat="46.265287" lon="13.657165">
        <ele>2178.4056</ele>
        <time>2012-01-28T10:16:50Z</time>
      </trkpt>
      <trkpt lat="46.265287" lon="13.657165">
        <ele>2179.0152</ele>
        <time>2012-01-28T10:17:17Z</time>
      </trkpt>
      <trkpt lat="46.265288" lon="13.657164">
        <ele>2178.4056</ele>
        <time>2012-01-28T10:17:48Z</time>
      </trkpt>
      <trkpt lat="46.265287" lon="13.657162">
        <ele>2178.4056</ele>
        <time>2012-01-28T10:18:24Z</time>
      </trkpt>
      <trkpt lat="46.265287" lon="13.657164">
        <ele>2178.4056</ele>
        <time>2012-01-28T10:19:02Z</time>
      </trkpt>
      <trkpt lat="46.265288" lon="13.657159">
        <ele>2178.4056</ele>
        <time>2012-01-28T10:19:44Z</time>
      </trkpt>
      <trkpt lat="46.265287" lon="13.657158">
        <ele>2178.4056</ele>
        <time>2012-01-28T10:20:19Z</time>
      </trkpt>
      <trkpt lat="46.265287" lon="13.657157">
        <ele>2178.4056</ele>
        <time>2012-01-28T10:20:51Z</time>
      </trkpt>
      <trkpt lat="46.265287" lon="13.657157">
        <ele>2178.4056</ele>
        <time>2012-01-28T10:21:24Z</time>
      </trkpt>
      <trkpt lat="46.265290" lon="13.657159">
        <ele>2178.4056</ele>
        <time>2012-01-28T10:21:58Z</time>
      </trkpt>
      <trkpt lat="46.265291" lon="13.657160">
        <ele>2178.4056</ele>
        <time>2012-01-28T10:22:30Z</time>
      </trkpt>
      <trkpt lat="46.265295" lon="13.657161">
        <ele>2178.4056</ele>
        <time>2012-01-28T10:23:04Z</time>
      </trkpt>
      <trkpt lat="46.265298" lon="13.657160">
        <ele>2178.4056</ele>
        <time>2012-01-28T10:23:39Z</time>
      </trkpt>
      <trkpt lat="46.265298" lon="13.657160">
        <ele>2179.0152</ele>
        <time>2012-01-28T10:24:07Z</time>
      </trkpt>
      <trkpt lat="46.265299" lon="13.657161">
        <ele>2179.0152</ele>
        <time>2012-01-28T10:24:45Z</time>
      </trkpt>
      <trkpt lat="46.265298" lon="13.657161">
        <ele>2179.0152</ele>
        <time>2012-01-28T10:25:16Z</time>
      </trkpt>
      <trkpt lat="46.265296" lon="13.657159">
        <ele>2179.32</ele>
        <time>2012-01-28T10:25:51Z</time>
      </trkpt>
      <trkpt lat="46.265296" lon="13.657159">
        <ele>2179.32</ele>
        <time>2012-01-28T10:26:25Z</time>
      </trkpt>
      <trkpt lat="46.265295" lon="13.657157">
        <ele>2179.32</ele>
        <time>2012-01-28T10:27:01Z</time>
      </trkpt>
      <trkpt lat="46.265296" lon="13.657156">
        <ele>2179.32</ele>
        <time>2012-01-28T10:27:31Z</time>
      </trkpt>
      <trkpt lat="46.265296" lon="13.657156">
        <ele>2179.32</ele>
        <time>2012-01-28T10:28:01Z</time>
      </trkpt>
      <trkpt lat="46.265295" lon="13.657156">
        <ele>2179.32</ele>
        <time>2012-01-28T10:28:32Z</time>
      </trkpt>
      <trkpt lat="46.265296" lon="13.657156">
        <ele>2179.32</ele>
        <time>2012-01-28T10:28:59Z</time>
      </trkpt>
      <trkpt lat="46.265296" lon="13.657156">
        <ele>2179.32</ele>
        <time>2012-01-28T10:29:26Z</time>
      </trkpt>
      <trkpt lat="46.265296" lon="13.657155">
        <ele>2179.32</ele>
        <time>2012-01-28T10:29:57Z</time>
      </trkpt>
      <trkpt lat="46.265299" lon="13.657168">
        <ele>2179.9296</ele>
        <time>2012-01-28T10:30:17Z</time>
      </trkpt>
      <trkpt lat="46.265299" lon="13.657168">
        <ele>2179.9296</ele>
        <time>2012-01-28T10:30:33Z</time>
      </trkpt>
      <trkpt lat="46.265299" lon="13.657167">
        <ele>2178.4056</ele>
        <time>2012-01-28T10:31:04Z</time>
      </trkpt>
      <trkpt lat="46.265299" lon="13.657167">
        <ele>2182.368</ele>
        <time>2012-01-28T10:31:08Z</time>
      </trkpt>
      <trkpt lat="46.265299" lon="13.657167">
        <ele>2178.4056</ele>
        <time>2012-01-28T10:31:10Z</time>
      </trkpt>
      <trkpt lat="46.265299" lon="13.657167">
        <ele>2182.368</ele>
        <time>2012-01-28T10:31:15Z</time>
      </trkpt>
      <trkpt lat="46.265299" lon="13.657167">
        <ele>2176.5768</ele>
        <time>2012-01-28T10:31:17Z</time>
      </trkpt>
      <trkpt lat="46.265299" lon="13.657167">
        <ele>2182.6728</ele>
        <time>2012-01-28T10:31:18Z</time>
      </trkpt>
      <trkpt lat="46.265299" lon="13.657167">
        <ele>2179.32</ele>
        <time>2012-01-28T10:31:21Z</time>
      </trkpt>
      <trkpt lat="46.265299" lon="13.657168">
        <ele>2179.32</ele>
        <time>2012-01-28T10:31:42Z</time>
      </trkpt>
      <trkpt lat="46.265299" lon="13.657168">
        <ele>2179.0152</ele>
        <time>2012-01-28T10:32:09Z</time>
      </trkpt>
      <trkpt lat="46.265299" lon="13.657168">
        <ele>2179.0152</ele>
        <time>2012-01-28T10:32:31Z</time>
      </trkpt>
      <trkpt lat="46.265300" lon="13.657169">
        <ele>2179.9296</ele>
        <time>2012-01-28T10:32:52Z</time>
      </trkpt>
      <trkpt lat="46.265297" lon="13.657165">
        <ele>2179.9296</ele>
        <time>2012-01-28T10:33:03Z</time>
      </trkpt>
      <trkpt lat="46.265326" lon="13.657230">
        <ele>2180.5392</ele>
        <time>2012-01-28T10:33:17Z</time>
      </trkpt>
      <trkpt lat="46.265335" lon="13.657264">
        <ele>2180.844</ele>
        <time>2012-01-28T10:33:19Z</time>
      </trkpt>
      <trkpt lat="46.265363" lon="13.657344">
        <ele>2182.6728</ele>
        <time>2012-01-28T10:33:34Z</time>
      </trkpt>
      <trkpt lat="46.265399" lon="13.657386">
        <ele>2185.1112</ele>
        <time>2012-01-28T10:33:45Z</time>
      </trkpt>
      <trkpt lat="46.265435" lon="13.657426">
        <ele>2187.5496</ele>
        <time>2012-01-28T10:33:57Z</time>
      </trkpt>
      <trkpt lat="46.265447" lon="13.657462">
        <ele>2189.988</ele>
        <time>2012-01-28T10:34:09Z</time>
      </trkpt>
      <trkpt lat="46.265464" lon="13.657487">
        <ele>2191.512</ele>
        <time>2012-01-28T10:34:20Z</time>
      </trkpt>
      <trkpt lat="46.265489" lon="13.657512">
        <ele>2193.3408</ele>
        <time>2012-01-28T10:34:31Z</time>
      </trkpt>
      <trkpt lat="46.265519" lon="13.657548">
        <ele>2195.7792</ele>
        <time>2012-01-28T10:34:43Z</time>
      </trkpt>
      <trkpt lat="46.265528" lon="13.657577">
        <ele>2197.3032</ele>
        <time>2012-01-28T10:34:54Z</time>
      </trkpt>
      <trkpt lat="46.265562" lon="13.657611">
        <ele>2199.7416</ele>
        <time>2012-01-28T10:35:03Z</time>
      </trkpt>
      <trkpt lat="46.265594" lon="13.657649">
        <ele>2201.5704</ele>
        <time>2012-01-28T10:35:17Z</time>
      </trkpt>
      <trkpt lat="46.265597" lon="13.657655">
        <ele>2204.0088</ele>
        <time>2012-01-28T10:35:29Z</time>
      </trkpt>
      <trkpt lat="46.265597" lon="13.657655">
        <ele>2206.752</ele>
        <time>2012-01-28T10:35:44Z</time>
      </trkpt>
      <trkpt lat="46.265613" lon="13.657663">
        <ele>2208.8856</ele>
        <time>2012-01-28T10:35:57Z</time>
      </trkpt>
      <trkpt lat="46.265633" lon="13.657688">
        <ele>2210.7144</ele>
        <time>2012-01-28T10:36:09Z</time>
      </trkpt>
      <trkpt lat="46.265633" lon="13.657688">
        <ele>2213.1528</ele>
        <time>2012-01-28T10:36:22Z</time>
      </trkpt>
      <trkpt lat="46.265633" lon="13.657688">
        <ele>2214.6768</ele>
        <time>2012-01-28T10:36:35Z</time>
      </trkpt>
      <trkpt lat="46.265637" lon="13.657685">
        <ele>2216.8104</ele>
        <time>2012-01-28T10:36:50Z</time>
      </trkpt>
      <trkpt lat="46.265637" lon="13.657685">
        <ele>2219.2488</ele>
        <time>2012-01-28T10:37:02Z</time>
      </trkpt>
      <trkpt lat="46.265637" lon="13.657685">
        <ele>2222.2968</ele>
        <time>2012-01-28T10:37:17Z</time>
      </trkpt>
      <trkpt lat="46.265647" lon="13.657690">
        <ele>2224.1256</ele>
        <time>2012-01-28T10:37:26Z</time>
      </trkpt>
      <trkpt lat="46.265693" lon="13.657772">
        <ele>2226.564</ele>
        <time>2012-01-28T10:37:39Z</time>
      </trkpt>
      <trkpt lat="46.265693" lon="13.657772">
        <ele>2229.0024</ele>
        <time>2012-01-28T10:37:53Z</time>
      </trkpt>
      <trkpt lat="46.265703" lon="13.657783">
        <ele>2229.3072</ele>
        <time>2012-01-28T10:38:15Z</time>
      </trkpt>
      <trkpt lat="46.265840" lon="13.657945">
        <ele>2231.7456</ele>
        <time>2012-01-28T10:38:27Z</time>
      </trkpt>
      <trkpt lat="46.265952" lon="13.658119">
        <ele>2234.184</ele>
        <time>2012-01-28T10:38:41Z</time>
      </trkpt>
      <trkpt lat="46.266008" lon="13.658178">
        <ele>2235.708</ele>
        <time>2012-01-28T10:38:54Z</time>
      </trkpt>
      <trkpt lat="46.266008" lon="13.658178">
        <ele>2235.0984</ele>
        <time>2012-01-28T10:39:12Z</time>
      </trkpt>
      <trkpt lat="46.266036" lon="13.658231">
        <ele>2236.0128</ele>
        <time>2012-01-28T10:39:29Z</time>
      </trkpt>
      <trkpt lat="46.266060" lon="13.658275">
        <ele>2236.0128</ele>
        <time>2012-01-28T10:39:32Z</time>
      </trkpt>
      <trkpt lat="46.266105" lon="13.658439">
        <ele>2237.232</ele>
        <time>2012-01-28T10:39:40Z</time>
      </trkpt>
      <trkpt lat="46.266133" lon="13.658533">
        <ele>2238.1464</ele>
        <time>2012-01-28T10:39:51Z</time>
      </trkpt>
      <trkpt lat="46.266133" lon="13.658533">
        <ele>2237.5368</ele>
        <time>2012-01-28T10:40:06Z</time>
      </trkpt>
      <trkpt lat="46.266149" lon="13.658634">
        <ele>2236.0128</ele>
        <time>2012-01-28T10:40:11Z</time>
      </trkpt>
      <trkpt lat="46.266174" lon="13.658729">
        <ele>2235.708</ele>
        <time>2012-01-28T10:40:17Z</time>
      </trkpt>
      <trkpt lat="46.266218" lon="13.658840">
        <ele>2239.0608</ele>
        <time>2012-01-28T10:40:26Z</time>
      </trkpt>
      <trkpt lat="46.266281" lon="13.658894">
        <ele>2241.4992</ele>
        <time>2012-01-28T10:40:38Z</time>
      </trkpt>
      <trkpt lat="46.266285" lon="13.658921">
        <ele>2240.8896</ele>
        <time>2012-01-28T10:40:53Z</time>
      </trkpt>
      <trkpt lat="46.266296" lon="13.658903">
        <ele>2240.8896</ele>
        <time>2012-01-28T10:41:13Z</time>
      </trkpt>
      <trkpt lat="46.266296" lon="13.658903">
        <ele>2240.5848</ele>
        <time>2012-01-28T10:41:25Z</time>
      </trkpt>
      <trkpt lat="46.266296" lon="13.658903">
        <ele>2240.5848</ele>
        <time>2012-01-28T10:41:47Z</time>
      </trkpt>
      <trkpt lat="46.266300" lon="13.658901">
        <ele>2240.8896</ele>
        <time>2012-01-28T10:42:09Z</time>
      </trkpt>
      <trkpt lat="46.266305" lon="13.658899">
        <ele>2241.4992</ele>
        <time>2012-01-28T10:42:30Z</time>
      </trkpt>
      <trkpt lat="46.266305" lon="13.658899">
        <ele>2241.4992</ele>
        <time>2012-01-28T10:42:45Z</time>
      </trkpt>
      <trkpt lat="46.266305" lon="13.658899">
        <ele>2241.4992</ele>
        <time>2012-01-28T10:42:54Z</time>
      </trkpt>
      <trkpt lat="46.266295" lon="13.658887">
        <ele>2241.4992</ele>
        <time>2012-01-28T10:43:05Z</time>
      </trkpt>
      <trkpt lat="46.266295" lon="13.658887">
        <ele>2241.4992</ele>
        <time>2012-01-28T10:43:24Z</time>
      </trkpt>
      <trkpt lat="46.266288" lon="13.658879">
        <ele>2241.4992</ele>
        <time>2012-01-28T10:43:39Z</time>
      </trkpt>
      <trkpt lat="46.266287" lon="13.658867">
        <ele>2240.8896</ele>
        <time>2012-01-28T10:43:53Z</time>
      </trkpt>
      <trkpt lat="46.266290" lon="13.658883">
        <ele>2241.4992</ele>
        <time>2012-01-28T10:44:05Z</time>
      </trkpt>
      <trkpt lat="46.266290" lon="13.658883">
        <ele>2241.4992</ele>
        <time>2012-01-28T10:44:06Z</time>
      </trkpt>
      <trkpt lat="46.266288" lon="13.658865">
        <ele>2241.4992</ele>
        <time>2012-01-28T10:44:20Z</time>
      </trkpt>
      <trkpt lat="46.266303" lon="13.658872">
        <ele>2240.8896</ele>
        <time>2012-01-28T10:44:34Z</time>
      </trkpt>
      <trkpt lat="46.266303" lon="13.658872">
        <ele>2241.4992</ele>
        <time>2012-01-28T10:44:37Z</time>
      </trkpt>
      <trkpt lat="46.266278" lon="13.658891">
        <ele>2240.8896</ele>
        <time>2012-01-28T10:44:48Z</time>
      </trkpt>
      <trkpt lat="46.266295" lon="13.658909">
        <ele>2241.4992</ele>
        <time>2012-01-28T10:45:04Z</time>
      </trkpt>
      <trkpt lat="46.266295" lon="13.658920">
        <ele>2240.8896</ele>
        <time>2012-01-28T10:45:19Z</time>
      </trkpt>
      <trkpt lat="46.266295" lon="13.658909">
        <ele>2240.5848</ele>
        <time>2012-01-28T10:45:35Z</time>
      </trkpt>
      <trkpt lat="46.266300" lon="13.658898">
        <ele>2239.9752</ele>
        <time>2012-01-28T10:45:36Z</time>
      </trkpt>
      <trkpt lat="46.266325" lon="13.658874">
        <ele>2240.8896</ele>
        <time>2012-01-28T10:45:49Z</time>
      </trkpt>
      <trkpt lat="46.266308" lon="13.658891">
        <ele>2241.804</ele>
        <time>2012-01-28T10:46:06Z</time>
      </trkpt>
      <trkpt lat="46.266326" lon="13.658877">
        <ele>2241.804</ele>
        <time>2012-01-28T10:46:24Z</time>
      </trkpt>
      <trkpt lat="46.266322" lon="13.658899">
        <ele>2241.804</ele>
        <time>2012-01-28T10:46:29Z</time>
      </trkpt>
      <trkpt lat="46.266317" lon="13.658941">
        <ele>2240.5848</ele>
        <time>2012-01-28T10:46:43Z</time>
      </trkpt>
      <trkpt lat="46.266297" lon="13.658932">
        <ele>2241.4992</ele>
        <time>2012-01-28T10:47:07Z</time>
      </trkpt>
      <trkpt lat="46.266305" lon="13.658861">
        <ele>2240.5848</ele>
        <time>2012-01-28T10:47:22Z</time>
      </trkpt>
      <trkpt lat="46.266298" lon="13.658834">
        <ele>2240.5848</ele>
        <time>2012-01-28T10:47:37Z</time>
      </trkpt>
      <trkpt lat="46.266307" lon="13.658862">
        <ele>2240.8896</ele>
        <time>2012-01-28T10:47:38Z</time>
      </trkpt>
      <trkpt lat="46.266320" lon="13.658891">
        <ele>2243.0232</ele>
        <time>2012-01-28T10:47:53Z</time>
      </trkpt>
      <trkpt lat="46.266313" lon="13.658896">
        <ele>2241.4992</ele>
        <time>2012-01-28T10:48:02Z</time>
      </trkpt>
      <trkpt lat="46.266303" lon="13.658894">
        <ele>2241.804</ele>
        <time>2012-01-28T10:48:16Z</time>
      </trkpt>
      <trkpt lat="46.266303" lon="13.658894">
        <ele>2241.804</ele>
        <time>2012-01-28T10:48:36Z</time>
      </trkpt>
      <trkpt lat="46.266301" lon="13.658892">
        <ele>2242.4136</ele>
        <time>2012-01-28T10:48:58Z</time>
      </trkpt>
      <trkpt lat="46.266308" lon="13.658895">
        <ele>2241.4992</ele>
        <time>2012-01-28T10:49:15Z</time>
      </trkpt>
      <trkpt lat="46.266308" lon="13.658893">
        <ele>2241.804</ele>
        <time>2012-01-28T10:49:34Z</time>
      </trkpt>
      <trkpt lat="46.266308" lon="13.658893">
        <ele>2241.804</ele>
        <time>2012-01-28T10:50:01Z</time>
      </trkpt>
      <trkpt lat="46.266308" lon="13.658894">
        <ele>2241.4992</ele>
        <time>2012-01-28T10:50:19Z</time>
      </trkpt>
      <trkpt lat="46.266308" lon="13.658891">
        <ele>2241.804</ele>
        <time>2012-01-28T10:50:36Z</time>
      </trkpt>
      <trkpt lat="46.266311" lon="13.658878">
        <ele>2241.804</ele>
        <time>2012-01-28T10:50:54Z</time>
      </trkpt>
      <trkpt lat="46.266284" lon="13.658905">
        <ele>2241.804</ele>
        <time>2012-01-28T10:51:06Z</time>
      </trkpt>
      <trkpt lat="46.266285" lon="13.658896">
        <ele>2240.8896</ele>
        <time>2012-01-28T10:51:19Z</time>
      </trkpt>
      <trkpt lat="46.266263" lon="13.658938">
        <ele>2240.5848</ele>
        <time>2012-01-28T10:51:34Z</time>
      </trkpt>
      <trkpt lat="46.266240" lon="13.658981">
        <ele>2239.6704</ele>
        <time>2012-01-28T10:51:46Z</time>
      </trkpt>
      <trkpt lat="46.266201" lon="13.658984">
        <ele>2236.0128</ele>
        <time>2012-01-28T10:51:53Z</time>
      </trkpt>
      <trkpt lat="46.266163" lon="13.658996">
        <ele>2234.184</ele>
        <time>2012-01-28T10:51:59Z</time>
      </trkpt>
      <trkpt lat="46.266138" lon="13.659103">
        <ele>2230.5264</ele>
        <time>2012-01-28T10:52:12Z</time>
      </trkpt>
      <trkpt lat="46.266110" lon="13.659143">
        <ele>2228.3928</ele>
        <time>2012-01-28T10:52:21Z</time>
      </trkpt>
      <trkpt lat="46.266095" lon="13.659182">
        <ele>2226.564</ele>
        <time>2012-01-28T10:52:27Z</time>
      </trkpt>
      <trkpt lat="46.266050" lon="13.659221">
        <ele>2223.2112</ele>
        <time>2012-01-28T10:52:38Z</time>
      </trkpt>
      <trkpt lat="46.266046" lon="13.659234">
        <ele>2222.6016</ele>
        <time>2012-01-28T10:52:39Z</time>
      </trkpt>
      <trkpt lat="46.266043" lon="13.659316">
        <ele>2220.1632</ele>
        <time>2012-01-28T10:52:47Z</time>
      </trkpt>
      <trkpt lat="46.266022" lon="13.659381">
        <ele>2217.42</ele>
        <time>2012-01-28T10:52:55Z</time>
      </trkpt>
      <trkpt lat="46.265999" lon="13.659418">
        <ele>2215.5912</ele>
        <time>2012-01-28T10:52:58Z</time>
      </trkpt>
      <trkpt lat="46.265984" lon="13.659448">
        <ele>2214.0672</ele>
        <time>2012-01-28T10:53:02Z</time>
      </trkpt>
      <trkpt lat="46.265976" lon="13.659480">
        <ele>2212.5432</ele>
        <time>2012-01-28T10:53:05Z</time>
      </trkpt>
      <trkpt lat="46.265968" lon="13.659530">
        <ele>2211.0192</ele>
        <time>2012-01-28T10:53:09Z</time>
      </trkpt>
      <trkpt lat="46.265969" lon="13.659626">
        <ele>2208.8856</ele>
        <time>2012-01-28T10:53:15Z</time>
      </trkpt>
      <trkpt lat="46.265933" lon="13.659627">
        <ele>2206.752</ele>
        <time>2012-01-28T10:53:21Z</time>
      </trkpt>
      <trkpt lat="46.265934" lon="13.659635">
        <ele>2206.4472</ele>
        <time>2012-01-28T10:53:22Z</time>
      </trkpt>
      <trkpt lat="46.265910" lon="13.659668">
        <ele>2204.9232</ele>
        <time>2012-01-28T10:53:25Z</time>
      </trkpt>
      <trkpt lat="46.265904" lon="13.659738">
        <ele>2201.5704</ele>
        <time>2012-01-28T10:53:33Z</time>
      </trkpt>
      <trkpt lat="46.265870" lon="13.659719">
        <ele>2199.7416</ele>
        <time>2012-01-28T10:53:42Z</time>
      </trkpt>
      <trkpt lat="46.265826" lon="13.659700">
        <ele>2198.5224</ele>
        <time>2012-01-28T10:53:47Z</time>
      </trkpt>
      <trkpt lat="46.265804" lon="13.659687">
        <ele>2198.2176</ele>
        <time>2012-01-28T10:53:49Z</time>
      </trkpt>
      <trkpt lat="46.265767" lon="13.659689">
        <ele>2195.7792</ele>
        <time>2012-01-28T10:53:55Z</time>
      </trkpt>
      <trkpt lat="46.265756" lon="13.659746">
        <ele>2193.3408</ele>
        <time>2012-01-28T10:54:01Z</time>
      </trkpt>
      <trkpt lat="46.265725" lon="13.659848">
        <ele>2189.988</ele>
        <time>2012-01-28T10:54:11Z</time>
      </trkpt>
      <trkpt lat="46.265695" lon="13.660029">
        <ele>2187.5496</ele>
        <time>2012-01-28T10:54:23Z</time>
      </trkpt>
      <trkpt lat="46.265691" lon="13.660089">
        <ele>2186.3304</ele>
        <time>2012-01-28T10:54:30Z</time>
      </trkpt>
      <trkpt lat="46.265677" lon="13.660155">
        <ele>2185.7208</ele>
        <time>2012-01-28T10:54:34Z</time>
      </trkpt>
      <trkpt lat="46.265637" lon="13.660230">
        <ele>2182.368</ele>
        <time>2012-01-28T10:54:42Z</time>
      </trkpt>
      <trkpt lat="46.265631" lon="13.660232">
        <ele>2181.7584</ele>
        <time>2012-01-28T10:54:57Z</time>
      </trkpt>
      <trkpt lat="46.265634" lon="13.660241">
        <ele>2180.844</ele>
        <time>2012-01-28T10:55:17Z</time>
      </trkpt>
      <trkpt lat="46.265628" lon="13.660266">
        <ele>2180.844</ele>
        <time>2012-01-28T10:55:28Z</time>
      </trkpt>
      <trkpt lat="46.265597" lon="13.660431">
        <ele>2179.32</ele>
        <time>2012-01-28T10:55:37Z</time>
      </trkpt>
      <trkpt lat="46.265599" lon="13.660571">
        <ele>2180.5392</ele>
        <time>2012-01-28T10:55:49Z</time>
      </trkpt>
      <trkpt lat="46.265596" lon="13.660637">
        <ele>2179.9296</ele>
        <time>2012-01-28T10:55:53Z</time>
      </trkpt>
      <trkpt lat="46.265590" lon="13.660836">
        <ele>2181.4536</ele>
        <time>2012-01-28T10:56:07Z</time>
      </trkpt>
      <trkpt lat="46.265591" lon="13.660856">
        <ele>2181.4536</ele>
        <time>2012-01-28T10:56:08Z</time>
      </trkpt>
      <trkpt lat="46.265575" lon="13.660948">
        <ele>2181.7584</ele>
        <time>2012-01-28T10:56:18Z</time>
      </trkpt>
      <trkpt lat="46.265568" lon="13.661026">
        <ele>2181.7584</ele>
        <time>2012-01-28T10:56:31Z</time>
      </trkpt>
      <trkpt lat="46.265566" lon="13.661024">
        <ele>2182.368</ele>
        <time>2012-01-28T10:56:42Z</time>
      </trkpt>
      <trkpt lat="46.265567" lon="13.661027">
        <ele>2181.7584</ele>
        <time>2012-01-28T10:57:01Z</time>
      </trkpt>
      <trkpt lat="46.265560" lon="13.661072">
        <ele>2181.7584</ele>
        <time>2012-01-28T10:57:28Z</time>
      </trkpt>
      <trkpt lat="46.265563" lon="13.661158">
        <ele>2182.6728</ele>
        <time>2012-01-28T10:57:36Z</time>
      </trkpt>
      <trkpt lat="46.265576" lon="13.661226">
        <ele>2185.7208</ele>
        <time>2012-01-28T10:57:48Z</time>
      </trkpt>
      <trkpt lat="46.265579" lon="13.661319">
        <ele>2187.2448</ele>
        <time>2012-01-28T10:57:59Z</time>
      </trkpt>
      <trkpt lat="46.265576" lon="13.661320">
        <ele>2186.3304</ele>
        <time>2012-01-28T10:58:19Z</time>
      </trkpt>
      <trkpt lat="46.265574" lon="13.661322">
        <ele>2187.2448</ele>
        <time>2012-01-28T10:58:34Z</time>
      </trkpt>
      <trkpt lat="46.265573" lon="13.661332">
        <ele>2186.6352</ele>
        <time>2012-01-28T10:58:53Z</time>
      </trkpt>
      <trkpt lat="46.265573" lon="13.661332">
        <ele>2186.6352</ele>
        <time>2012-01-28T10:59:20Z</time>
      </trkpt>
      <trkpt lat="46.265570" lon="13.661347">
        <ele>2186.6352</ele>
        <time>2012-01-28T10:59:40Z</time>
      </trkpt>
      <trkpt lat="46.265567" lon="13.661347">
        <ele>2187.2448</ele>
        <time>2012-01-28T11:00:02Z</time>
      </trkpt>
      <trkpt lat="46.265583" lon="13.661309">
        <ele>2186.3304</ele>
        <time>2012-01-28T11:00:10Z</time>
      </trkpt>
      <trkpt lat="46.265557" lon="13.661340">
        <ele>2186.3304</ele>
        <time>2012-01-28T11:00:13Z</time>
      </trkpt>
      <trkpt lat="46.265482" lon="13.661448">
        <ele>2182.368</ele>
        <time>2012-01-28T11:00:22Z</time>
      </trkpt>
      <trkpt lat="46.265455" lon="13.661482">
        <ele>2181.4536</ele>
        <time>2012-01-28T11:00:26Z</time>
      </trkpt>
      <trkpt lat="46.265412" lon="13.661521">
        <ele>2179.32</ele>
        <time>2012-01-28T11:00:30Z</time>
      </trkpt>
      <trkpt lat="46.265373" lon="13.661665">
        <ele>2178.1008</ele>
        <time>2012-01-28T11:00:41Z</time>
      </trkpt>
      <trkpt lat="46.265378" lon="13.661694">
        <ele>2178.4056</ele>
        <time>2012-01-28T11:00:53Z</time>
      </trkpt>
      <trkpt lat="46.265360" lon="13.661690">
        <ele>2179.0152</ele>
        <time>2012-01-28T11:01:20Z</time>
      </trkpt>
      <trkpt lat="46.265329" lon="13.661725">
        <ele>2177.1864</ele>
        <time>2012-01-28T11:01:24Z</time>
      </trkpt>
      <trkpt lat="46.265326" lon="13.661773">
        <ele>2175.9672</ele>
        <time>2012-01-28T11:01:35Z</time>
      </trkpt>
      <trkpt lat="46.265314" lon="13.661777">
        <ele>2176.5768</ele>
        <time>2012-01-28T11:01:54Z</time>
      </trkpt>
      <trkpt lat="46.265301" lon="13.661767">
        <ele>2175.0528</ele>
        <time>2012-01-28T11:02:02Z</time>
      </trkpt>
      <trkpt lat="46.265299" lon="13.661788">
        <ele>2175.6624</ele>
        <time>2012-01-28T11:02:17Z</time>
      </trkpt>
      <trkpt lat="46.265300" lon="13.661793">
        <ele>2175.9672</ele>
        <time>2012-01-28T11:02:29Z</time>
      </trkpt>
      <trkpt lat="46.265311" lon="13.661878">
        <ele>2178.1008</ele>
        <time>2012-01-28T11:02:38Z</time>
      </trkpt>
      <trkpt lat="46.265307" lon="13.661950">
        <ele>2177.4912</ele>
        <time>2012-01-28T11:02:52Z</time>
      </trkpt>
      <trkpt lat="46.265240" lon="13.661986">
        <ele>2174.748</ele>
        <time>2012-01-28T11:03:03Z</time>
      </trkpt>
      <trkpt lat="46.265237" lon="13.661981">
        <ele>2179.0152</ele>
        <time>2012-01-28T11:03:15Z</time>
      </trkpt>
      <trkpt lat="46.265237" lon="13.661981">
        <ele>2175.0528</ele>
        <time>2012-01-28T11:03:16Z</time>
      </trkpt>
      <trkpt lat="46.265237" lon="13.661981">
        <ele>2174.1384</ele>
        <time>2012-01-28T11:03:18Z</time>
      </trkpt>
      <trkpt lat="46.265236" lon="13.661979">
        <ele>2174.748</ele>
        <time>2012-01-28T11:03:49Z</time>
      </trkpt>
      <trkpt lat="46.265239" lon="13.661968">
        <ele>2174.1384</ele>
        <time>2012-01-28T11:03:55Z</time>
      </trkpt>
      <trkpt lat="46.265213" lon="13.661887">
        <ele>2171.3952</ele>
        <time>2012-01-28T11:04:08Z</time>
      </trkpt>
      <trkpt lat="46.265217" lon="13.661888">
        <ele>2171.3952</ele>
        <time>2012-01-28T11:04:25Z</time>
      </trkpt>
      <trkpt lat="46.265217" lon="13.661888">
        <ele>2171.7</ele>
        <time>2012-01-28T11:04:47Z</time>
      </trkpt>
      <trkpt lat="46.265215" lon="13.661888">
        <ele>2171.3952</ele>
        <time>2012-01-28T11:04:56Z</time>
      </trkpt>
      <trkpt lat="46.265175" lon="13.661986">
        <ele>2169.2616</ele>
        <time>2012-01-28T11:05:08Z</time>
      </trkpt>
      <trkpt lat="46.265175" lon="13.662001">
        <ele>2168.9568</ele>
        <time>2012-01-28T11:05:10Z</time>
      </trkpt>
      <trkpt lat="46.265150" lon="13.662104">
        <ele>2166.8232</ele>
        <time>2012-01-28T11:05:22Z</time>
      </trkpt>
      <trkpt lat="46.265124" lon="13.662269">
        <ele>2164.9944</ele>
        <time>2012-01-28T11:05:31Z</time>
      </trkpt>
      <trkpt lat="46.265121" lon="13.662282">
        <ele>2164.6896</ele>
        <time>2012-01-28T11:05:33Z</time>
      </trkpt>
      <trkpt lat="46.265091" lon="13.662340">
        <ele>2162.556</ele>
        <time>2012-01-28T11:05:37Z</time>
      </trkpt>
      <trkpt lat="46.265059" lon="13.662406">
        <ele>2160.7272</ele>
        <time>2012-01-28T11:05:42Z</time>
      </trkpt>
      <trkpt lat="46.265052" lon="13.662465">
        <ele>2159.2032</ele>
        <time>2012-01-28T11:05:46Z</time>
      </trkpt>
      <trkpt lat="46.264999" lon="13.662568">
        <ele>2155.8504</ele>
        <time>2012-01-28T11:05:54Z</time>
      </trkpt>
      <trkpt lat="46.264992" lon="13.662577">
        <ele>2155.5456</ele>
        <time>2012-01-28T11:05:56Z</time>
      </trkpt>
      <trkpt lat="46.264949" lon="13.662611">
        <ele>2153.412</ele>
        <time>2012-01-28T11:06:01Z</time>
      </trkpt>
      <trkpt lat="46.264920" lon="13.662608">
        <ele>2151.5832</ele>
        <time>2012-01-28T11:06:05Z</time>
      </trkpt>
      <trkpt lat="46.264915" lon="13.662636">
        <ele>2150.6688</ele>
        <time>2012-01-28T11:06:08Z</time>
      </trkpt>
      <trkpt lat="46.264910" lon="13.662672">
        <ele>2150.0592</ele>
        <time>2012-01-28T11:06:20Z</time>
      </trkpt>
      <trkpt lat="46.264910" lon="13.662672">
        <ele>2150.0592</ele>
        <time>2012-01-28T11:06:45Z</time>
      </trkpt>
      <trkpt lat="46.264910" lon="13.662672">
        <ele>2149.1448</ele>
        <time>2012-01-28T11:06:52Z</time>
      </trkpt>
      <trkpt lat="46.264867" lon="13.662690">
        <ele>2147.6208</ele>
        <time>2012-01-28T11:06:55Z</time>
      </trkpt>
      <trkpt lat="46.264805" lon="13.662694">
        <ele>2144.8776</ele>
        <time>2012-01-28T11:07:02Z</time>
      </trkpt>
      <trkpt lat="46.264769" lon="13.662759">
        <ele>2142.4392</ele>
        <time>2012-01-28T11:07:07Z</time>
      </trkpt>
      <trkpt lat="46.264752" lon="13.662793">
        <ele>2140.9152</ele>
        <time>2012-01-28T11:07:10Z</time>
      </trkpt>
      <trkpt lat="46.264735" lon="13.662818">
        <ele>2140.0008</ele>
        <time>2012-01-28T11:07:11Z</time>
      </trkpt>
      <trkpt lat="46.264712" lon="13.662879">
        <ele>2137.5624</ele>
        <time>2012-01-28T11:07:15Z</time>
      </trkpt>
      <trkpt lat="46.264697" lon="13.662897">
        <ele>2136.0384</ele>
        <time>2012-01-28T11:07:18Z</time>
      </trkpt>
      <trkpt lat="46.264623" lon="13.662969">
        <ele>2132.6856</ele>
        <time>2012-01-28T11:07:25Z</time>
      </trkpt>
      <trkpt lat="46.264599" lon="13.662984">
        <ele>2131.4664</ele>
        <time>2012-01-28T11:07:26Z</time>
      </trkpt>
      <trkpt lat="46.264551" lon="13.663060">
        <ele>2127.504</ele>
        <time>2012-01-28T11:07:34Z</time>
      </trkpt>
      <trkpt lat="46.264551" lon="13.663074">
        <ele>2127.504</ele>
        <time>2012-01-28T11:07:34Z</time>
      </trkpt>
      <trkpt lat="46.264550" lon="13.663083">
        <ele>2126.5896</ele>
        <time>2012-01-28T11:07:35Z</time>
      </trkpt>
      <trkpt lat="46.264545" lon="13.663134">
        <ele>2125.0656</ele>
        <time>2012-01-28T11:07:39Z</time>
      </trkpt>
      <trkpt lat="46.264517" lon="13.663164">
        <ele>2122.6272</ele>
        <time>2012-01-28T11:07:45Z</time>
      </trkpt>
      <trkpt lat="46.264525" lon="13.663250">
        <ele>2120.1888</ele>
        <time>2012-01-28T11:07:49Z</time>
      </trkpt>
      <trkpt lat="46.264527" lon="13.663303">
        <ele>2119.2744</ele>
        <time>2012-01-28T11:07:53Z</time>
      </trkpt>
      <trkpt lat="46.264504" lon="13.663379">
        <ele>2116.836</ele>
        <time>2012-01-28T11:07:57Z</time>
      </trkpt>
      <trkpt lat="46.264438" lon="13.663455">
        <ele>2112.5688</ele>
        <time>2012-01-28T11:08:05Z</time>
      </trkpt>
      <trkpt lat="46.264430" lon="13.663464">
        <ele>2112.264</ele>
        <time>2012-01-28T11:08:05Z</time>
      </trkpt>
      <trkpt lat="46.264404" lon="13.663485">
        <ele>2111.0448</ele>
        <time>2012-01-28T11:08:09Z</time>
      </trkpt>
      <trkpt lat="46.264385" lon="13.663504">
        <ele>2109.8256</ele>
        <time>2012-01-28T11:08:11Z</time>
      </trkpt>
      <trkpt lat="46.264356" lon="13.663538">
        <ele>2107.3872</ele>
        <time>2012-01-28T11:08:15Z</time>
      </trkpt>
      <trkpt lat="46.264308" lon="13.663563">
        <ele>2104.9488</ele>
        <time>2012-01-28T11:08:17Z</time>
      </trkpt>
      <trkpt lat="46.264252" lon="13.663572">
        <ele>2103.12</ele>
        <time>2012-01-28T11:08:21Z</time>
      </trkpt>
      <trkpt lat="46.264200" lon="13.663652">
        <ele>2100.6816</ele>
        <time>2012-01-28T11:08:27Z</time>
      </trkpt>
      <trkpt lat="46.264228" lon="13.663807">
        <ele>2095.8048</ele>
        <time>2012-01-28T11:08:35Z</time>
      </trkpt>
      <trkpt lat="46.264225" lon="13.663836">
        <ele>2094.2808</ele>
        <time>2012-01-28T11:08:36Z</time>
      </trkpt>
      <trkpt lat="46.264242" lon="13.663928">
        <ele>2091.5376</ele>
        <time>2012-01-28T11:08:44Z</time>
      </trkpt>
      <trkpt lat="46.264264" lon="13.663951">
        <ele>2090.0136</ele>
        <time>2012-01-28T11:08:48Z</time>
      </trkpt>
      <trkpt lat="46.264276" lon="13.663997">
        <ele>2089.7088</ele>
        <time>2012-01-28T11:08:52Z</time>
      </trkpt>
      <trkpt lat="46.264277" lon="13.664042">
        <ele>2088.1848</ele>
        <time>2012-01-28T11:08:56Z</time>
      </trkpt>
      <trkpt lat="46.264281" lon="13.664080">
        <ele>2087.2704</ele>
        <time>2012-01-28T11:08:59Z</time>
      </trkpt>
      <trkpt lat="46.264279" lon="13.664182">
        <ele>2083.9176</ele>
        <time>2012-01-28T11:09:09Z</time>
      </trkpt>
      <trkpt lat="46.264279" lon="13.664290">
        <ele>2080.5648</ele>
        <time>2012-01-28T11:09:18Z</time>
      </trkpt>
      <trkpt lat="46.264284" lon="13.664290">
        <ele>2079.3456</ele>
        <time>2012-01-28T11:09:19Z</time>
      </trkpt>
      <trkpt lat="46.264281" lon="13.664369">
        <ele>2076.6024</ele>
        <time>2012-01-28T11:09:29Z</time>
      </trkpt>
      <trkpt lat="46.264278" lon="13.664374">
        <ele>2073.5544</ele>
        <time>2012-01-28T11:09:38Z</time>
      </trkpt>
      <trkpt lat="46.264268" lon="13.664497">
        <ele>2070.2016</ele>
        <time>2012-01-28T11:09:48Z</time>
      </trkpt>
      <trkpt lat="46.264270" lon="13.664511">
        <ele>2070.2016</ele>
        <time>2012-01-28T11:09:49Z</time>
      </trkpt>
      <trkpt lat="46.264254" lon="13.664574">
        <ele>2068.9824</ele>
        <time>2012-01-28T11:09:53Z</time>
      </trkpt>
      <trkpt lat="46.264229" lon="13.664670">
        <ele>2065.02</ele>
        <time>2012-01-28T11:10:01Z</time>
      </trkpt>
      <trkpt lat="46.264227" lon="13.664691">
        <ele>2064.1056</ele>
        <time>2012-01-28T11:10:04Z</time>
      </trkpt>
      <trkpt lat="46.264194" lon="13.664745">
        <ele>2060.7528</ele>
        <time>2012-01-28T11:10:09Z</time>
      </trkpt>
      <trkpt lat="46.264181" lon="13.664779">
        <ele>2057.4</ele>
        <time>2012-01-28T11:10:15Z</time>
      </trkpt>
      <trkpt lat="46.264174" lon="13.664788">
        <ele>2056.7904</ele>
        <time>2012-01-28T11:10:16Z</time>
      </trkpt>
      <trkpt lat="46.264058" lon="13.664819">
        <ele>2053.4376</ele>
        <time>2012-01-28T11:10:27Z</time>
      </trkpt>
      <trkpt lat="46.264027" lon="13.664827">
        <ele>2053.4376</ele>
        <time>2012-01-28T11:10:35Z</time>
      </trkpt>
      <trkpt lat="46.264144" lon="13.664862">
        <ele>2054.0472</ele>
        <time>2012-01-28T11:10:47Z</time>
      </trkpt>
      <trkpt lat="46.264154" lon="13.664870">
        <ele>2053.4376</ele>
        <time>2012-01-28T11:10:47Z</time>
      </trkpt>
      <trkpt lat="46.264187" lon="13.664911">
        <ele>2053.1328</ele>
        <time>2012-01-28T11:10:59Z</time>
      </trkpt>
      <trkpt lat="46.264187" lon="13.664911">
        <ele>2053.1328</ele>
        <time>2012-01-28T11:11:21Z</time>
      </trkpt>
      <trkpt lat="46.264186" lon="13.664944">
        <ele>2052.2184</ele>
        <time>2012-01-28T11:11:44Z</time>
      </trkpt>
      <trkpt lat="46.264184" lon="13.664939">
        <ele>2053.1328</ele>
        <time>2012-01-28T11:12:09Z</time>
      </trkpt>
      <trkpt lat="46.264195" lon="13.664951">
        <ele>2053.4376</ele>
        <time>2012-01-28T11:12:23Z</time>
      </trkpt>
      <trkpt lat="46.264189" lon="13.664999">
        <ele>2052.5232</ele>
        <time>2012-01-28T11:12:35Z</time>
      </trkpt>
      <trkpt lat="46.264189" lon="13.665002">
        <ele>2052.5232</ele>
        <time>2012-01-28T11:12:51Z</time>
      </trkpt>
      <trkpt lat="46.264190" lon="13.665002">
        <ele>2052.5232</ele>
        <time>2012-01-28T11:13:25Z</time>
      </trkpt>
      <trkpt lat="46.264190" lon="13.665002">
        <ele>2052.5232</ele>
        <time>2012-01-28T11:13:33Z</time>
      </trkpt>
      <trkpt lat="46.264218" lon="13.664946">
        <ele>2053.4376</ele>
        <time>2012-01-28T11:13:37Z</time>
      </trkpt>
      <trkpt lat="46.264257" lon="13.664919">
        <ele>2054.352</ele>
        <time>2012-01-28T11:13:47Z</time>
      </trkpt>
      <trkpt lat="46.264256" lon="13.664924">
        <ele>2054.352</ele>
        <time>2012-01-28T11:14:04Z</time>
      </trkpt>
      <trkpt lat="46.264258" lon="13.664928">
        <ele>2054.352</ele>
        <time>2012-01-28T11:14:14Z</time>
      </trkpt>
      <trkpt lat="46.264187" lon="13.664961">
        <ele>2053.4376</ele>
        <time>2012-01-28T11:14:26Z</time>
      </trkpt>
      <trkpt lat="46.264184" lon="13.664946">
        <ele>2054.0472</ele>
        <time>2012-01-28T11:14:42Z</time>
      </trkpt>
      <trkpt lat="46.264188" lon="13.664938">
        <ele>2053.4376</ele>
        <time>2012-01-28T11:15:00Z</time>
      </trkpt>
      <trkpt lat="46.264179" lon="13.664923">
        <ele>2053.1328</ele>
        <time>2012-01-28T11:15:13Z</time>
      </trkpt>
      <trkpt lat="46.264140" lon="13.664909">
        <ele>2054.0472</ele>
        <time>2012-01-28T11:15:17Z</time>
      </trkpt>
      <trkpt lat="46.264126" lon="13.664880">
        <ele>2054.0472</ele>
        <time>2012-01-28T11:15:27Z</time>
      </trkpt>
      <trkpt lat="46.264084" lon="13.664870">
        <ele>2054.0472</ele>
        <time>2012-01-28T11:15:37Z</time>
      </trkpt>
      <trkpt lat="46.264084" lon="13.664881">
        <ele>2053.4376</ele>
        <time>2012-01-28T11:15:50Z</time>
      </trkpt>
      <trkpt lat="46.264084" lon="13.664881">
        <ele>2053.4376</ele>
        <time>2012-01-28T11:16:19Z</time>
      </trkpt>
      <trkpt lat="46.264085" lon="13.664879">
        <ele>2053.4376</ele>
        <time>2012-01-28T11:16:49Z</time>
      </trkpt>
      <trkpt lat="46.264084" lon="13.664880">
        <ele>2053.4376</ele>
        <time>2012-01-28T11:17:16Z</time>
      </trkpt>
      <trkpt lat="46.264075" lon="13.664882">
        <ele>2054.9616</ele>
        <time>2012-01-28T11:17:35Z</time>
      </trkpt>
      <trkpt lat="46.264069" lon="13.664876">
        <ele>2054.352</ele>
        <time>2012-01-28T11:18:03Z</time>
      </trkpt>
      <trkpt lat="46.264071" lon="13.664880">
        <ele>2054.9616</ele>
        <time>2012-01-28T11:18:18Z</time>
      </trkpt>
      <trkpt lat="46.264029" lon="13.664809">
        <ele>2053.4376</ele>
        <time>2012-01-28T11:18:37Z</time>
      </trkpt>
      <trkpt lat="46.263992" lon="13.664718">
        <ele>2053.1328</ele>
        <time>2012-01-28T11:18:48Z</time>
      </trkpt>
      <trkpt lat="46.263941" lon="13.664684">
        <ele>2050.0848</ele>
        <time>2012-01-28T11:19:01Z</time>
      </trkpt>
      <trkpt lat="46.263923" lon="13.664699">
        <ele>2048.5608</ele>
        <time>2012-01-28T11:19:04Z</time>
      </trkpt>
      <trkpt lat="46.263860" lon="13.664698">
        <ele>2045.208</ele>
        <time>2012-01-28T11:19:11Z</time>
      </trkpt>
      <trkpt lat="46.263809" lon="13.664704">
        <ele>2041.8552</ele>
        <time>2012-01-28T11:19:16Z</time>
      </trkpt>
      <trkpt lat="46.263805" lon="13.664707">
        <ele>2041.5504</ele>
        <time>2012-01-28T11:19:17Z</time>
      </trkpt>
      <trkpt lat="46.263802" lon="13.664712">
        <ele>2040.9408</ele>
        <time>2012-01-28T11:19:19Z</time>
      </trkpt>
      <trkpt lat="46.263786" lon="13.664708">
        <ele>2039.7216</ele>
        <time>2012-01-28T11:19:20Z</time>
      </trkpt>
      <trkpt lat="46.263771" lon="13.664679">
        <ele>2037.588</ele>
        <time>2012-01-28T11:19:24Z</time>
      </trkpt>
      <trkpt lat="46.263726" lon="13.664633">
        <ele>2034.8448</ele>
        <time>2012-01-28T11:19:30Z</time>
      </trkpt>
      <trkpt lat="46.263719" lon="13.664626">
        <ele>2034.8448</ele>
        <time>2012-01-28T11:19:31Z</time>
      </trkpt>
      <trkpt lat="46.263699" lon="13.664637">
        <ele>2033.3208</ele>
        <time>2012-01-28T11:19:35Z</time>
      </trkpt>
      <trkpt lat="46.263669" lon="13.664650">
        <ele>2029.968</ele>
        <time>2012-01-28T11:19:40Z</time>
      </trkpt>
      <trkpt lat="46.263656" lon="13.664661">
        <ele>2029.0536</ele>
        <time>2012-01-28T11:19:43Z</time>
      </trkpt>
      <trkpt lat="46.263640" lon="13.664656">
        <ele>2028.1392</ele>
        <time>2012-01-28T11:19:46Z</time>
      </trkpt>
      <trkpt lat="46.263600" lon="13.664617">
        <ele>2026.0056</ele>
        <time>2012-01-28T11:19:51Z</time>
      </trkpt>
      <trkpt lat="46.263572" lon="13.664607">
        <ele>2024.1768</ele>
        <time>2012-01-28T11:19:55Z</time>
      </trkpt>
      <trkpt lat="46.263542" lon="13.664618">
        <ele>2022.348</ele>
        <time>2012-01-28T11:19:58Z</time>
      </trkpt>
      <trkpt lat="46.263494" lon="13.664605">
        <ele>2019.9096</ele>
        <time>2012-01-28T11:20:05Z</time>
      </trkpt>
      <trkpt lat="46.263459" lon="13.664561">
        <ele>2018.0808</ele>
        <time>2012-01-28T11:20:07Z</time>
      </trkpt>
      <trkpt lat="46.263403" lon="13.664510">
        <ele>2016.8616</ele>
        <time>2012-01-28T11:20:14Z</time>
      </trkpt>
      <trkpt lat="46.263344" lon="13.664476">
        <ele>2016.5568</ele>
        <time>2012-01-28T11:20:20Z</time>
      </trkpt>
      <trkpt lat="46.263295" lon="13.664438">
        <ele>2015.9472</ele>
        <time>2012-01-28T11:20:32Z</time>
      </trkpt>
      <trkpt lat="46.263293" lon="13.664440">
        <ele>2012.5944</ele>
        <time>2012-01-28T11:20:53Z</time>
      </trkpt>
      <trkpt lat="46.263293" lon="13.664440">
        <ele>2018.9952</ele>
        <time>2012-01-28T11:20:55Z</time>
      </trkpt>
      <trkpt lat="46.263293" lon="13.664440">
        <ele>2013.5088</ele>
        <time>2012-01-28T11:20:56Z</time>
      </trkpt>
      <trkpt lat="46.263293" lon="13.664440">
        <ele>2016.8616</ele>
        <time>2012-01-28T11:21:00Z</time>
      </trkpt>
      <trkpt lat="46.263293" lon="13.664441">
        <ele>2016.5568</ele>
        <time>2012-01-28T11:21:23Z</time>
      </trkpt>
      <trkpt lat="46.263293" lon="13.664441">
        <ele>2015.9472</ele>
        <time>2012-01-28T11:21:31Z</time>
      </trkpt>
      <trkpt lat="46.263256" lon="13.664331">
        <ele>2014.728</ele>
        <time>2012-01-28T11:21:39Z</time>
      </trkpt>
      <trkpt lat="46.263233" lon="13.664261">
        <ele>2014.1184</ele>
        <time>2012-01-28T11:21:53Z</time>
      </trkpt>
      <trkpt lat="46.263227" lon="13.664249">
        <ele>2013.5088</ele>
        <time>2012-01-28T11:21:54Z</time>
      </trkpt>
      <trkpt lat="46.263198" lon="13.664189">
        <ele>2012.2896</ele>
        <time>2012-01-28T11:21:58Z</time>
      </trkpt>
      <trkpt lat="46.263166" lon="13.664127">
        <ele>2011.0704</ele>
        <time>2012-01-28T11:22:02Z</time>
      </trkpt>
      <trkpt lat="46.263111" lon="13.663992">
        <ele>2008.9368</ele>
        <time>2012-01-28T11:22:10Z</time>
      </trkpt>
      <trkpt lat="46.263084" lon="13.663838">
        <ele>2006.8032</ele>
        <time>2012-01-28T11:22:20Z</time>
      </trkpt>
      <trkpt lat="46.263081" lon="13.663804">
        <ele>2006.4984</ele>
        <time>2012-01-28T11:22:21Z</time>
      </trkpt>
      <trkpt lat="46.263086" lon="13.663670">
        <ele>2003.4504</ele>
        <time>2012-01-28T11:22:30Z</time>
      </trkpt>
      <trkpt lat="46.263083" lon="13.663597">
        <ele>2003.1456</ele>
        <time>2012-01-28T11:22:35Z</time>
      </trkpt>
      <trkpt lat="46.263031" lon="13.663472">
        <ele>1999.1832</ele>
        <time>2012-01-28T11:22:45Z</time>
      </trkpt>
      <trkpt lat="46.263015" lon="13.663414">
        <ele>1997.6592</ele>
        <time>2012-01-28T11:22:51Z</time>
      </trkpt>
      <trkpt lat="46.262962" lon="13.663313">
        <ele>1994.3064</ele>
        <time>2012-01-28T11:23:00Z</time>
      </trkpt>
      <trkpt lat="46.262912" lon="13.663182">
        <ele>1992.4776</ele>
        <time>2012-01-28T11:23:10Z</time>
      </trkpt>
      <trkpt lat="46.262877" lon="13.663041">
        <ele>1989.1248</ele>
        <time>2012-01-28T11:23:22Z</time>
      </trkpt>
      <trkpt lat="46.262871" lon="13.662997">
        <ele>1988.5152</ele>
        <time>2012-01-28T11:23:27Z</time>
      </trkpt>
      <trkpt lat="46.262820" lon="13.662849">
        <ele>1987.6008</ele>
        <time>2012-01-28T11:23:38Z</time>
      </trkpt>
      <trkpt lat="46.262818" lon="13.662839">
        <ele>1987.296</ele>
        <time>2012-01-28T11:23:39Z</time>
      </trkpt>
      <trkpt lat="46.262785" lon="13.662692">
        <ele>1986.0768</ele>
        <time>2012-01-28T11:23:54Z</time>
      </trkpt>
      <trkpt lat="46.262784" lon="13.662684">
        <ele>1985.772</ele>
        <time>2012-01-28T11:23:54Z</time>
      </trkpt>
      <trkpt lat="46.262783" lon="13.662641">
        <ele>1985.1624</ele>
        <time>2012-01-28T11:23:58Z</time>
      </trkpt>
      <trkpt lat="46.262783" lon="13.662581">
        <ele>1984.248</ele>
        <time>2012-01-28T11:24:01Z</time>
      </trkpt>
      <trkpt lat="46.262772" lon="13.662554">
        <ele>1983.3336</ele>
        <time>2012-01-28T11:24:04Z</time>
      </trkpt>
      <trkpt lat="46.262742" lon="13.662439">
        <ele>1979.3712</ele>
        <time>2012-01-28T11:24:13Z</time>
      </trkpt>
      <trkpt lat="46.262710" lon="13.662375">
        <ele>1977.2376</ele>
        <time>2012-01-28T11:24:23Z</time>
      </trkpt>
      <trkpt lat="46.262694" lon="13.662346">
        <ele>1975.7136</ele>
        <time>2012-01-28T11:24:27Z</time>
      </trkpt>
      <trkpt lat="46.262657" lon="13.662250">
        <ele>1972.3608</ele>
        <time>2012-01-28T11:24:36Z</time>
      </trkpt>
      <trkpt lat="46.262639" lon="13.662194">
        <ele>1970.8368</ele>
        <time>2012-01-28T11:24:43Z</time>
      </trkpt>
      <trkpt lat="46.262620" lon="13.662130">
        <ele>1969.3128</ele>
        <time>2012-01-28T11:24:48Z</time>
      </trkpt>
      <trkpt lat="46.262601" lon="13.662016">
        <ele>1967.484</ele>
        <time>2012-01-28T11:24:55Z</time>
      </trkpt>
      <trkpt lat="46.262568" lon="13.661894">
        <ele>1964.7408</ele>
        <time>2012-01-28T11:25:08Z</time>
      </trkpt>
      <trkpt lat="46.262536" lon="13.661760">
        <ele>1962.3024</ele>
        <time>2012-01-28T11:25:19Z</time>
      </trkpt>
      <trkpt lat="46.262513" lon="13.661621">
        <ele>1960.7784</ele>
        <time>2012-01-28T11:25:30Z</time>
      </trkpt>
      <trkpt lat="46.262490" lon="13.661560">
        <ele>1959.2544</ele>
        <time>2012-01-28T11:25:39Z</time>
      </trkpt>
      <trkpt lat="46.262454" lon="13.661448">
        <ele>1956.5112</ele>
        <time>2012-01-28T11:25:52Z</time>
      </trkpt>
      <trkpt lat="46.262439" lon="13.661415">
        <ele>1955.9016</ele>
        <time>2012-01-28T11:25:54Z</time>
      </trkpt>
      <trkpt lat="46.262401" lon="13.661300">
        <ele>1953.4632</ele>
        <time>2012-01-28T11:26:05Z</time>
      </trkpt>
      <trkpt lat="46.262381" lon="13.661257">
        <ele>1951.6344</ele>
        <time>2012-01-28T11:26:09Z</time>
      </trkpt>
      <trkpt lat="46.262367" lon="13.661233">
        <ele>1951.6344</ele>
        <time>2012-01-28T11:26:12Z</time>
      </trkpt>
      <trkpt lat="46.262329" lon="13.661080">
        <ele>1949.196</ele>
        <time>2012-01-28T11:26:24Z</time>
      </trkpt>
      <trkpt lat="46.262324" lon="13.661071">
        <ele>1949.196</ele>
        <time>2012-01-28T11:26:24Z</time>
      </trkpt>
      <trkpt lat="46.262306" lon="13.661030">
        <ele>1948.2816</ele>
        <time>2012-01-28T11:26:28Z</time>
      </trkpt>
      <trkpt lat="46.262296" lon="13.660998">
        <ele>1948.2816</ele>
        <time>2012-01-28T11:26:32Z</time>
      </trkpt>
      <trkpt lat="46.262288" lon="13.660967">
        <ele>1947.672</ele>
        <time>2012-01-28T11:26:33Z</time>
      </trkpt>
      <trkpt lat="46.262229" lon="13.660848">
        <ele>1944.3192</ele>
        <time>2012-01-28T11:26:47Z</time>
      </trkpt>
      <trkpt lat="46.262168" lon="13.660770">
        <ele>1941.8808</ele>
        <time>2012-01-28T11:26:58Z</time>
      </trkpt>
      <trkpt lat="46.262125" lon="13.660718">
        <ele>1940.6616</ele>
        <time>2012-01-28T11:27:06Z</time>
      </trkpt>
      <trkpt lat="46.262064" lon="13.660616">
        <ele>1938.2232</ele>
        <time>2012-01-28T11:27:19Z</time>
      </trkpt>
      <trkpt lat="46.262031" lon="13.660553">
        <ele>1936.6992</ele>
        <time>2012-01-28T11:27:26Z</time>
      </trkpt>
      <trkpt lat="46.261992" lon="13.660485">
        <ele>1935.7848</ele>
        <time>2012-01-28T11:27:33Z</time>
      </trkpt>
      <trkpt lat="46.261923" lon="13.660395">
        <ele>1932.7368</ele>
        <time>2012-01-28T11:27:44Z</time>
      </trkpt>
      <trkpt lat="46.261850" lon="13.660260">
        <ele>1930.6032</ele>
        <time>2012-01-28T11:27:56Z</time>
      </trkpt>
      <trkpt lat="46.261790" lon="13.660148">
        <ele>1927.5552</ele>
        <time>2012-01-28T11:28:05Z</time>
      </trkpt>
      <trkpt lat="46.261775" lon="13.660113">
        <ele>1927.2504</ele>
        <time>2012-01-28T11:28:08Z</time>
      </trkpt>
      <trkpt lat="46.261767" lon="13.660091">
        <ele>1926.6408</ele>
        <time>2012-01-28T11:28:11Z</time>
      </trkpt>
      <trkpt lat="46.261729" lon="13.659960">
        <ele>1924.2024</ele>
        <time>2012-01-28T11:28:20Z</time>
      </trkpt>
      <trkpt lat="46.261719" lon="13.659892">
        <ele>1923.288</ele>
        <time>2012-01-28T11:28:26Z</time>
      </trkpt>
      <trkpt lat="46.261688" lon="13.659783">
        <ele>1921.764</ele>
        <time>2012-01-28T11:28:32Z</time>
      </trkpt>
      <trkpt lat="46.261679" lon="13.659657">
        <ele>1919.9352</ele>
        <time>2012-01-28T11:28:43Z</time>
      </trkpt>
      <trkpt lat="46.261640" lon="13.659527">
        <ele>1917.4968</ele>
        <time>2012-01-28T11:28:55Z</time>
      </trkpt>
      <trkpt lat="46.261599" lon="13.659429">
        <ele>1914.144</ele>
        <time>2012-01-28T11:29:03Z</time>
      </trkpt>
      <trkpt lat="46.261576" lon="13.659366">
        <ele>1911.7056</ele>
        <time>2012-01-28T11:29:17Z</time>
      </trkpt>
      <trkpt lat="46.261581" lon="13.659370">
        <ele>1911.7056</ele>
        <time>2012-01-28T11:29:34Z</time>
      </trkpt>
      <trkpt lat="46.261590" lon="13.659372">
        <ele>1911.096</ele>
        <time>2012-01-28T11:29:49Z</time>
      </trkpt>
      <trkpt lat="46.261582" lon="13.659366">
        <ele>1911.7056</ele>
        <time>2012-01-28T11:30:04Z</time>
      </trkpt>
      <trkpt lat="46.261582" lon="13.659366">
        <ele>1911.7056</ele>
        <time>2012-01-28T11:30:28Z</time>
      </trkpt>
      <trkpt lat="46.261584" lon="13.659368">
        <ele>1911.7056</ele>
        <time>2012-01-28T11:30:53Z</time>
      </trkpt>
      <trkpt lat="46.261583" lon="13.659369">
        <ele>1911.7056</ele>
        <time>2012-01-28T11:31:20Z</time>
      </trkpt>
      <trkpt lat="46.261583" lon="13.659373">
        <ele>1911.7056</ele>
        <time>2012-01-28T11:31:40Z</time>
      </trkpt>
      <trkpt lat="46.261583" lon="13.659373">
        <ele>1911.7056</ele>
        <time>2012-01-28T11:32:07Z</time>
      </trkpt>
      <trkpt lat="46.261582" lon="13.659374">
        <ele>1911.7056</ele>
        <time>2012-01-28T11:32:34Z</time>
      </trkpt>
      <trkpt lat="46.261582" lon="13.659374">
        <ele>1911.7056</ele>
        <time>2012-01-28T11:32:58Z</time>
      </trkpt>
      <trkpt lat="46.261582" lon="13.659374">
        <ele>1911.7056</ele>
        <time>2012-01-28T11:33:20Z</time>
      </trkpt>
      <trkpt lat="46.261582" lon="13.659373">
        <ele>1911.7056</ele>
        <time>2012-01-28T11:33:44Z</time>
      </trkpt>
      <trkpt lat="46.261582" lon="13.659373">
        <ele>1912.3152</ele>
        <time>2012-01-28T11:34:04Z</time>
      </trkpt>
      <trkpt lat="46.261580" lon="13.659373">
        <ele>1912.3152</ele>
        <time>2012-01-28T11:34:31Z</time>
      </trkpt>
      <trkpt lat="46.261578" lon="13.659372">
        <ele>1912.62</ele>
        <time>2012-01-28T11:34:57Z</time>
      </trkpt>
      <trkpt lat="46.261566" lon="13.659307">
        <ele>1911.7056</ele>
        <time>2012-01-28T11:35:13Z</time>
      </trkpt>
      <trkpt lat="46.261560" lon="13.659294">
        <ele>1911.7056</ele>
        <time>2012-01-28T11:35:13Z</time>
      </trkpt>
      <trkpt lat="46.261514" lon="13.659200">
        <ele>1909.2672</ele>
        <time>2012-01-28T11:35:21Z</time>
      </trkpt>
      <trkpt lat="46.261478" lon="13.659177">
        <ele>1907.4384</ele>
        <time>2012-01-28T11:35:25Z</time>
      </trkpt>
      <trkpt lat="46.261431" lon="13.659156">
        <ele>1904.3904</ele>
        <time>2012-01-28T11:35:31Z</time>
      </trkpt>
      <trkpt lat="46.261411" lon="13.659128">
        <ele>1902.5616</ele>
        <time>2012-01-28T11:35:33Z</time>
      </trkpt>
      <trkpt lat="46.261352" lon="13.659098">
        <ele>1899.2088</ele>
        <time>2012-01-28T11:35:40Z</time>
      </trkpt>
      <trkpt lat="46.261342" lon="13.659092">
        <ele>1898.2944</ele>
        <time>2012-01-28T11:35:42Z</time>
      </trkpt>
      <trkpt lat="46.261328" lon="13.659056">
        <ele>1896.7704</ele>
        <time>2012-01-28T11:35:44Z</time>
      </trkpt>
      <trkpt lat="46.261274" lon="13.658946">
        <ele>1893.1128</ele>
        <time>2012-01-28T11:35:54Z</time>
      </trkpt>
      <trkpt lat="46.261235" lon="13.658913">
        <ele>1889.76</ele>
        <time>2012-01-28T11:35:59Z</time>
      </trkpt>
      <trkpt lat="46.261227" lon="13.658893">
        <ele>1888.236</ele>
        <time>2012-01-28T11:36:11Z</time>
      </trkpt>
      <trkpt lat="46.261220" lon="13.658885">
        <ele>1887.3216</ele>
        <time>2012-01-28T11:36:18Z</time>
      </trkpt>
      <trkpt lat="46.261189" lon="13.658847">
        <ele>1884.2736</ele>
        <time>2012-01-28T11:36:22Z</time>
      </trkpt>
      <trkpt lat="46.261124" lon="13.658838">
        <ele>1880.0064</ele>
        <time>2012-01-28T11:36:29Z</time>
      </trkpt>
      <trkpt lat="46.261123" lon="13.658782">
        <ele>1878.4824</ele>
        <time>2012-01-28T11:36:32Z</time>
      </trkpt>
      <trkpt lat="46.261086" lon="13.658697">
        <ele>1876.6536</ele>
        <time>2012-01-28T11:36:38Z</time>
      </trkpt>
      <trkpt lat="46.261076" lon="13.658655">
        <ele>1875.1296</ele>
        <time>2012-01-28T11:36:41Z</time>
      </trkpt>
      <trkpt lat="46.261049" lon="13.658582">
        <ele>1873.3008</ele>
        <time>2012-01-28T11:36:48Z</time>
      </trkpt>
      <trkpt lat="46.261030" lon="13.658556">
        <ele>1871.7768</ele>
        <time>2012-01-28T11:36:49Z</time>
      </trkpt>
      <trkpt lat="46.261008" lon="13.658495">
        <ele>1870.2528</ele>
        <time>2012-01-28T11:36:53Z</time>
      </trkpt>
      <trkpt lat="46.260980" lon="13.658363">
        <ele>1866.9</ele>
        <time>2012-01-28T11:37:03Z</time>
      </trkpt>
      <trkpt lat="46.260980" lon="13.658353">
        <ele>1866.9</ele>
        <time>2012-01-28T11:37:04Z</time>
      </trkpt>
      <trkpt lat="46.260975" lon="13.658315">
        <ele>1866.9</ele>
        <time>2012-01-28T11:37:07Z</time>
      </trkpt>
      <trkpt lat="46.260926" lon="13.658142">
        <ele>1863.5472</ele>
        <time>2012-01-28T11:37:17Z</time>
      </trkpt>
      <trkpt lat="46.260927" lon="13.658116">
        <ele>1863.5472</ele>
        <time>2012-01-28T11:37:20Z</time>
      </trkpt>
      <trkpt lat="46.260946" lon="13.658067">
        <ele>1864.4616</ele>
        <time>2012-01-28T11:37:24Z</time>
      </trkpt>
      <trkpt lat="46.260951" lon="13.657975">
        <ele>1865.0712</ele>
        <time>2012-01-28T11:37:31Z</time>
      </trkpt>
      <trkpt lat="46.260940" lon="13.657804">
        <ele>1863.5472</ele>
        <time>2012-01-28T11:37:42Z</time>
      </trkpt>
      <trkpt lat="46.260933" lon="13.657754">
        <ele>1863.2424</ele>
        <time>2012-01-28T11:37:44Z</time>
      </trkpt>
      <trkpt lat="46.260916" lon="13.657673">
        <ele>1861.7184</ele>
        <time>2012-01-28T11:37:48Z</time>
      </trkpt>
      <trkpt lat="46.260896" lon="13.657650">
        <ele>1861.1088</ele>
        <time>2012-01-28T11:37:51Z</time>
      </trkpt>
      <trkpt lat="46.260885" lon="13.657546">
        <ele>1858.9752</ele>
        <time>2012-01-28T11:37:57Z</time>
      </trkpt>
      <trkpt lat="46.260868" lon="13.657509">
        <ele>1857.756</ele>
        <time>2012-01-28T11:37:59Z</time>
      </trkpt>
      <trkpt lat="46.260853" lon="13.657377">
        <ele>1855.6224</ele>
        <time>2012-01-28T11:38:06Z</time>
      </trkpt>
      <trkpt lat="46.260843" lon="13.657340">
        <ele>1854.0984</ele>
        <time>2012-01-28T11:38:20Z</time>
      </trkpt>
      <trkpt lat="46.260825" lon="13.657318">
        <ele>1852.5744</ele>
        <time>2012-01-28T11:38:22Z</time>
      </trkpt>
      <trkpt lat="46.260807" lon="13.657291">
        <ele>1851.66</ele>
        <time>2012-01-28T11:38:25Z</time>
      </trkpt>
      <trkpt lat="46.260765" lon="13.657241">
        <ele>1848.3072</ele>
        <time>2012-01-28T11:38:29Z</time>
      </trkpt>
      <trkpt lat="46.260714" lon="13.657199">
        <ele>1844.3448</ele>
        <time>2012-01-28T11:38:33Z</time>
      </trkpt>
      <trkpt lat="46.260669" lon="13.657146">
        <ele>1840.992</ele>
        <time>2012-01-28T11:38:38Z</time>
      </trkpt>
      <trkpt lat="46.260626" lon="13.657121">
        <ele>1837.6392</ele>
        <time>2012-01-28T11:38:44Z</time>
      </trkpt>
      <trkpt lat="46.260579" lon="13.657105">
        <ele>1834.2864</ele>
        <time>2012-01-28T11:38:49Z</time>
      </trkpt>
      <trkpt lat="46.260566" lon="13.657102">
        <ele>1832.4576</ele>
        <time>2012-01-28T11:38:52Z</time>
      </trkpt>
      <trkpt lat="46.260552" lon="13.657086">
        <ele>1830.0192</ele>
        <time>2012-01-28T11:39:01Z</time>
      </trkpt>
      <trkpt lat="46.260514" lon="13.657050">
        <ele>1826.6664</ele>
        <time>2012-01-28T11:39:08Z</time>
      </trkpt>
      <trkpt lat="46.260476" lon="13.657075">
        <ele>1823.3136</ele>
        <time>2012-01-28T11:39:14Z</time>
      </trkpt>
      <trkpt lat="46.260441" lon="13.657101">
        <ele>1821.4848</ele>
        <time>2012-01-28T11:39:16Z</time>
      </trkpt>
      <trkpt lat="46.260423" lon="13.657105">
        <ele>1819.0464</ele>
        <time>2012-01-28T11:39:19Z</time>
      </trkpt>
      <trkpt lat="46.260408" lon="13.657050">
        <ele>1816.608</ele>
        <time>2012-01-28T11:39:23Z</time>
      </trkpt>
      <trkpt lat="46.260401" lon="13.657012">
        <ele>1815.6936</ele>
        <time>2012-01-28T11:39:24Z</time>
      </trkpt>
      <trkpt lat="46.260384" lon="13.656993">
        <ele>1814.1696</ele>
        <time>2012-01-28T11:39:27Z</time>
      </trkpt>
      <trkpt lat="46.260320" lon="13.657047">
        <ele>1810.2072</ele>
        <time>2012-01-28T11:39:32Z</time>
      </trkpt>
      <trkpt lat="46.260306" lon="13.657031">
        <ele>1808.3784</ele>
        <time>2012-01-28T11:39:35Z</time>
      </trkpt>
      <trkpt lat="46.260263" lon="13.656954">
        <ele>1805.0256</ele>
        <time>2012-01-28T11:39:41Z</time>
      </trkpt>
      <trkpt lat="46.260247" lon="13.656954">
        <ele>1802.5872</ele>
        <time>2012-01-28T11:39:43Z</time>
      </trkpt>
      <trkpt lat="46.260205" lon="13.656906">
        <ele>1798.6248</ele>
        <time>2012-01-28T11:39:47Z</time>
      </trkpt>
      <trkpt lat="46.260179" lon="13.656866">
        <ele>1797.4056</ele>
        <time>2012-01-28T11:39:50Z</time>
      </trkpt>
      <trkpt lat="46.260143" lon="13.656888">
        <ele>1794.3576</ele>
        <time>2012-01-28T11:39:54Z</time>
      </trkpt>
      <trkpt lat="46.260085" lon="13.656887">
        <ele>1790.7</ele>
        <time>2012-01-28T11:39:58Z</time>
      </trkpt>
      <trkpt lat="46.260073" lon="13.656884">
        <ele>1790.0904</ele>
        <time>2012-01-28T11:39:59Z</time>
      </trkpt>
      <trkpt lat="46.260062" lon="13.656893">
        <ele>1786.7376</ele>
        <time>2012-01-28T11:40:05Z</time>
      </trkpt>
      <trkpt lat="46.260076" lon="13.656923">
        <ele>1786.7376</ele>
        <time>2012-01-28T11:40:16Z</time>
      </trkpt>
      <trkpt lat="46.260072" lon="13.656878">
        <ele>1786.7376</ele>
        <time>2012-01-28T11:40:18Z</time>
      </trkpt>
      <trkpt lat="46.260068" lon="13.656846">
        <ele>1786.128</ele>
        <time>2012-01-28T11:40:21Z</time>
      </trkpt>
      <trkpt lat="46.260015" lon="13.656755">
        <ele>1783.9944</ele>
        <time>2012-01-28T11:40:25Z</time>
      </trkpt>
      <trkpt lat="46.259949" lon="13.656618">
        <ele>1779.4224</ele>
        <time>2012-01-28T11:40:32Z</time>
      </trkpt>
      <trkpt lat="46.259922" lon="13.656585">
        <ele>1778.2032</ele>
        <time>2012-01-28T11:40:33Z</time>
      </trkpt>
      <trkpt lat="46.259836" lon="13.656499">
        <ele>1773.6312</ele>
        <time>2012-01-28T11:40:40Z</time>
      </trkpt>
      <trkpt lat="46.259784" lon="13.656421">
        <ele>1770.888</ele>
        <time>2012-01-28T11:40:44Z</time>
      </trkpt>
      <trkpt lat="46.259744" lon="13.656408">
        <ele>1768.1448</ele>
        <time>2012-01-28T11:40:48Z</time>
      </trkpt>
      <trkpt lat="46.259677" lon="13.656376">
        <ele>1764.1824</ele>
        <time>2012-01-28T11:40:53Z</time>
      </trkpt>
      <trkpt lat="46.259647" lon="13.656388">
        <ele>1760.22</ele>
        <time>2012-01-28T11:40:59Z</time>
      </trkpt>
      <trkpt lat="46.259647" lon="13.656377">
        <ele>1760.22</ele>
        <time>2012-01-28T11:41:00Z</time>
      </trkpt>
      <trkpt lat="46.259594" lon="13.656335">
        <ele>1757.4768</ele>
        <time>2012-01-28T11:41:06Z</time>
      </trkpt>
      <trkpt lat="46.259538" lon="13.656316">
        <ele>1754.4288</ele>
        <time>2012-01-28T11:41:08Z</time>
      </trkpt>
      <trkpt lat="46.259505" lon="13.656431">
        <ele>1750.1616</ele>
        <time>2012-01-28T11:41:15Z</time>
      </trkpt>
      <trkpt lat="46.259480" lon="13.656528">
        <ele>1745.8944</ele>
        <time>2012-01-28T11:41:19Z</time>
      </trkpt>
      <trkpt lat="46.259428" lon="13.656514">
        <ele>1741.6272</ele>
        <time>2012-01-28T11:41:23Z</time>
      </trkpt>
      <trkpt lat="46.259417" lon="13.656507">
        <ele>1740.7128</ele>
        <time>2012-01-28T11:41:24Z</time>
      </trkpt>
      <trkpt lat="46.259353" lon="13.656582">
        <ele>1736.1408</ele>
        <time>2012-01-28T11:41:30Z</time>
      </trkpt>
      <trkpt lat="46.259321" lon="13.656561">
        <ele>1734.0072</ele>
        <time>2012-01-28T11:41:33Z</time>
      </trkpt>
      <trkpt lat="46.259260" lon="13.656522">
        <ele>1730.0448</ele>
        <time>2012-01-28T11:41:37Z</time>
      </trkpt>
      <trkpt lat="46.259243" lon="13.656498">
        <ele>1728.5208</ele>
        <time>2012-01-28T11:41:38Z</time>
      </trkpt>
      <trkpt lat="46.259200" lon="13.656473">
        <ele>1726.692</ele>
        <time>2012-01-28T11:41:42Z</time>
      </trkpt>
      <trkpt lat="46.259166" lon="13.656508">
        <ele>1723.3392</ele>
        <time>2012-01-28T11:41:46Z</time>
      </trkpt>
      <trkpt lat="46.259156" lon="13.656510">
        <ele>1722.4248</ele>
        <time>2012-01-28T11:41:46Z</time>
      </trkpt>
      <trkpt lat="46.259095" lon="13.656470">
        <ele>1719.072</ele>
        <time>2012-01-28T11:41:53Z</time>
      </trkpt>
      <trkpt lat="46.259044" lon="13.656430">
        <ele>1715.1096</ele>
        <time>2012-01-28T11:41:57Z</time>
      </trkpt>
      <trkpt lat="46.258987" lon="13.656401">
        <ele>1711.7568</ele>
        <time>2012-01-28T11:42:00Z</time>
      </trkpt>
      <trkpt lat="46.258963" lon="13.656387">
        <ele>1708.404</ele>
        <time>2012-01-28T11:42:02Z</time>
      </trkpt>
      <trkpt lat="46.258963" lon="13.656387">
        <ele>1708.404</ele>
        <time>2012-01-28T11:42:04Z</time>
      </trkpt>
      <trkpt lat="46.258965" lon="13.656394">
        <ele>1708.404</ele>
        <time>2012-01-28T11:42:09Z</time>
      </trkpt>
      <trkpt lat="46.258872" lon="13.656392">
        <ele>1704.1368</ele>
        <time>2012-01-28T11:42:16Z</time>
      </trkpt>
      <trkpt lat="46.258826" lon="13.656409">
        <ele>1699.8696</ele>
        <time>2012-01-28T11:42:18Z</time>
      </trkpt>
      <trkpt lat="46.258820" lon="13.656410">
        <ele>1698.6504</ele>
        <time>2012-01-28T11:42:21Z</time>
      </trkpt>
      <trkpt lat="46.258789" lon="13.656410">
        <ele>1696.5168</ele>
        <time>2012-01-28T11:42:31Z</time>
      </trkpt>
      <trkpt lat="46.258772" lon="13.656377">
        <ele>1694.9928</ele>
        <time>2012-01-28T11:42:33Z</time>
      </trkpt>
      <trkpt lat="46.258761" lon="13.656334">
        <ele>1694.3832</ele>
        <time>2012-01-28T11:42:36Z</time>
      </trkpt>
      <trkpt lat="46.258710" lon="13.656279">
        <ele>1691.64</ele>
        <time>2012-01-28T11:42:43Z</time>
      </trkpt>
      <trkpt lat="46.258688" lon="13.656323">
        <ele>1689.5064</ele>
        <time>2012-01-28T11:42:44Z</time>
      </trkpt>
      <trkpt lat="46.258628" lon="13.656305">
        <ele>1685.2392</ele>
        <time>2012-01-28T11:42:50Z</time>
      </trkpt>
      <trkpt lat="46.258586" lon="13.656236">
        <ele>1682.8008</ele>
        <time>2012-01-28T11:42:55Z</time>
      </trkpt>
      <trkpt lat="46.258522" lon="13.656278">
        <ele>1679.448</ele>
        <time>2012-01-28T11:42:59Z</time>
      </trkpt>
      <trkpt lat="46.258505" lon="13.656316">
        <ele>1677.6192</ele>
        <time>2012-01-28T11:43:00Z</time>
      </trkpt>
      <trkpt lat="46.258446" lon="13.656250">
        <ele>1672.4376</ele>
        <time>2012-01-28T11:43:07Z</time>
      </trkpt>
      <trkpt lat="46.258427" lon="13.656219">
        <ele>1670.9136</ele>
        <time>2012-01-28T11:43:10Z</time>
      </trkpt>
      <trkpt lat="46.258419" lon="13.656207">
        <ele>1669.9992</ele>
        <time>2012-01-28T11:43:15Z</time>
      </trkpt>
      <trkpt lat="46.258342" lon="13.656169">
        <ele>1666.0368</ele>
        <time>2012-01-28T11:43:19Z</time>
      </trkpt>
      <trkpt lat="46.258266" lon="13.656133">
        <ele>1661.7696</ele>
        <time>2012-01-28T11:43:23Z</time>
      </trkpt>
      <trkpt lat="46.258219" lon="13.656122">
        <ele>1657.5024</ele>
        <time>2012-01-28T11:43:26Z</time>
      </trkpt>
      <trkpt lat="46.258193" lon="13.656121">
        <ele>1654.4544</ele>
        <time>2012-01-28T11:43:29Z</time>
      </trkpt>
      <trkpt lat="46.258175" lon="13.656128">
        <ele>1654.1496</ele>
        <time>2012-01-28T11:43:30Z</time>
      </trkpt>
      <trkpt lat="46.258101" lon="13.656160">
        <ele>1650.1872</ele>
        <time>2012-01-28T11:43:34Z</time>
      </trkpt>
      <trkpt lat="46.258101" lon="13.656177">
        <ele>1648.6632</ele>
        <time>2012-01-28T11:43:37Z</time>
      </trkpt>
      <trkpt lat="46.258068" lon="13.656158">
        <ele>1647.7488</ele>
        <time>2012-01-28T11:43:39Z</time>
      </trkpt>
      <trkpt lat="46.258063" lon="13.656162">
        <ele>1645.92</ele>
        <time>2012-01-28T11:43:49Z</time>
      </trkpt>
      <trkpt lat="46.258063" lon="13.656162">
        <ele>1645.92</ele>
        <time>2012-01-28T11:44:13Z</time>
      </trkpt>
      <trkpt lat="46.258062" lon="13.656164">
        <ele>1645.92</ele>
        <time>2012-01-28T11:44:40Z</time>
      </trkpt>
      <trkpt lat="46.258061" lon="13.656165">
        <ele>1645.92</ele>
        <time>2012-01-28T11:45:03Z</time>
      </trkpt>
      <trkpt lat="46.258055" lon="13.656157">
        <ele>1646.8344</ele>
        <time>2012-01-28T11:45:17Z</time>
      </trkpt>
      <trkpt lat="46.258034" lon="13.656148">
        <ele>1646.5296</ele>
        <time>2012-01-28T11:45:18Z</time>
      </trkpt>
      <trkpt lat="46.257930" lon="13.656115">
        <ele>1642.5672</ele>
        <time>2012-01-28T11:45:25Z</time>
      </trkpt>
      <trkpt lat="46.257869" lon="13.656092">
        <ele>1639.5192</ele>
        <time>2012-01-28T11:45:29Z</time>
      </trkpt>
      <trkpt lat="46.257780" lon="13.656088">
        <ele>1635.252</ele>
        <time>2012-01-28T11:45:33Z</time>
      </trkpt>
      <trkpt lat="46.257736" lon="13.656113">
        <ele>1631.8992</ele>
        <time>2012-01-28T11:45:34Z</time>
      </trkpt>
      <trkpt lat="46.257719" lon="13.656157">
        <ele>1629.4608</ele>
        <time>2012-01-28T11:45:37Z</time>
      </trkpt>
      <trkpt lat="46.257662" lon="13.656263">
        <ele>1625.8032</ele>
        <time>2012-01-28T11:45:45Z</time>
      </trkpt>
      <trkpt lat="46.257626" lon="13.656299">
        <ele>1623.3648</ele>
        <time>2012-01-28T11:45:48Z</time>
      </trkpt>
      <trkpt lat="46.257562" lon="13.656350">
        <ele>1619.4024</ele>
        <time>2012-01-28T11:45:53Z</time>
      </trkpt>
      <trkpt lat="46.257485" lon="13.656361">
        <ele>1615.7448</ele>
        <time>2012-01-28T11:45:59Z</time>
      </trkpt>
      <trkpt lat="46.257447" lon="13.656366">
        <ele>1613.3064</ele>
        <time>2012-01-28T11:46:03Z</time>
      </trkpt>
      <trkpt lat="46.257413" lon="13.656362">
        <ele>1611.7824</ele>
        <time>2012-01-28T11:46:05Z</time>
      </trkpt>
      <trkpt lat="46.257390" lon="13.656360">
        <ele>1610.868</ele>
        <time>2012-01-28T11:46:08Z</time>
      </trkpt>
      <trkpt lat="46.257356" lon="13.656374">
        <ele>1608.4296</ele>
        <time>2012-01-28T11:46:19Z</time>
      </trkpt>
      <trkpt lat="46.257350" lon="13.656379">
        <ele>1609.0392</ele>
        <time>2012-01-28T11:46:21Z</time>
      </trkpt>
      <trkpt lat="46.257328" lon="13.656375">
        <ele>1607.5152</ele>
        <time>2012-01-28T11:46:24Z</time>
      </trkpt>
      <trkpt lat="46.257306" lon="13.656385">
        <ele>1606.6008</ele>
        <time>2012-01-28T11:46:26Z</time>
      </trkpt>
      <trkpt lat="46.257231" lon="13.656399">
        <ele>1602.6384</ele>
        <time>2012-01-28T11:46:32Z</time>
      </trkpt>
      <trkpt lat="46.257189" lon="13.656465">
        <ele>1599.8952</ele>
        <time>2012-01-28T11:46:38Z</time>
      </trkpt>
      <trkpt lat="46.257174" lon="13.656477">
        <ele>1598.3712</ele>
        <time>2012-01-28T11:46:51Z</time>
      </trkpt>
      <trkpt lat="46.257167" lon="13.656533">
        <ele>1597.4568</ele>
        <time>2012-01-28T11:47:02Z</time>
      </trkpt>
      <trkpt lat="46.257170" lon="13.656650">
        <ele>1595.9328</ele>
        <time>2012-01-28T11:47:06Z</time>
      </trkpt>
      <trkpt lat="46.257154" lon="13.656860">
        <ele>1592.58</ele>
        <time>2012-01-28T11:47:18Z</time>
      </trkpt>
      <trkpt lat="46.257186" lon="13.657025">
        <ele>1590.1416</ele>
        <time>2012-01-28T11:47:26Z</time>
      </trkpt>
      <trkpt lat="46.257196" lon="13.657088">
        <ele>1589.532</ele>
        <time>2012-01-28T11:47:29Z</time>
      </trkpt>
      <trkpt lat="46.257277" lon="13.657266">
        <ele>1587.7032</ele>
        <time>2012-01-28T11:47:42Z</time>
      </trkpt>
      <trkpt lat="46.257313" lon="13.657315">
        <ele>1586.1792</ele>
        <time>2012-01-28T11:47:45Z</time>
      </trkpt>
      <trkpt lat="46.257378" lon="13.657491">
        <ele>1585.8744</ele>
        <time>2012-01-28T11:47:57Z</time>
      </trkpt>
      <trkpt lat="46.257283" lon="13.657605">
        <ele>1583.436</ele>
        <time>2012-01-28T11:48:08Z</time>
      </trkpt>
      <trkpt lat="46.257265" lon="13.657631">
        <ele>1582.8264</ele>
        <time>2012-01-28T11:48:11Z</time>
      </trkpt>
      <trkpt lat="46.257235" lon="13.657790">
        <ele>1580.9976</ele>
        <time>2012-01-28T11:48:19Z</time>
      </trkpt>
      <trkpt lat="46.257219" lon="13.657877">
        <ele>1579.4736</ele>
        <time>2012-01-28T11:48:24Z</time>
      </trkpt>
      <trkpt lat="46.257205" lon="13.657939">
        <ele>1578.2544</ele>
        <time>2012-01-28T11:48:30Z</time>
      </trkpt>
      <trkpt lat="46.257157" lon="13.657977">
        <ele>1576.1208</ele>
        <time>2012-01-28T11:48:35Z</time>
      </trkpt>
      <trkpt lat="46.257137" lon="13.657999">
        <ele>1574.9016</ele>
        <time>2012-01-28T11:48:38Z</time>
      </trkpt>
      <trkpt lat="46.257083" lon="13.658124">
        <ele>1570.9392</ele>
        <time>2012-01-28T11:48:46Z</time>
      </trkpt>
      <trkpt lat="46.257053" lon="13.658217">
        <ele>1569.1104</ele>
        <time>2012-01-28T11:48:51Z</time>
      </trkpt>
      <trkpt lat="46.257047" lon="13.658351">
        <ele>1565.7576</ele>
        <time>2012-01-28T11:49:02Z</time>
      </trkpt>
      <trkpt lat="46.257046" lon="13.658413">
        <ele>1563.624</ele>
        <time>2012-01-28T11:49:08Z</time>
      </trkpt>
      <trkpt lat="46.257057" lon="13.658442">
        <ele>1563.3192</ele>
        <time>2012-01-28T11:49:10Z</time>
      </trkpt>
      <trkpt lat="46.257053" lon="13.658500">
        <ele>1562.7096</ele>
        <time>2012-01-28T11:49:13Z</time>
      </trkpt>
      <trkpt lat="46.257046" lon="13.658551">
        <ele>1561.1856</ele>
        <time>2012-01-28T11:49:17Z</time>
      </trkpt>
      <trkpt lat="46.257061" lon="13.658593">
        <ele>1560.2712</ele>
        <time>2012-01-28T11:49:20Z</time>
      </trkpt>
      <trkpt lat="46.257049" lon="13.658677">
        <ele>1557.8328</ele>
        <time>2012-01-28T11:49:25Z</time>
      </trkpt>
      <trkpt lat="46.257045" lon="13.658689">
        <ele>1557.8328</ele>
        <time>2012-01-28T11:49:26Z</time>
      </trkpt>
      <trkpt lat="46.257048" lon="13.658717">
        <ele>1556.9184</ele>
        <time>2012-01-28T11:49:29Z</time>
      </trkpt>
      <trkpt lat="46.257031" lon="13.658792">
        <ele>1555.0896</ele>
        <time>2012-01-28T11:49:33Z</time>
      </trkpt>
      <trkpt lat="46.257027" lon="13.658870">
        <ele>1553.5656</ele>
        <time>2012-01-28T11:49:39Z</time>
      </trkpt>
      <trkpt lat="46.257023" lon="13.658914">
        <ele>1552.0416</ele>
        <time>2012-01-28T11:49:41Z</time>
      </trkpt>
      <trkpt lat="46.257025" lon="13.658981">
        <ele>1551.1272</ele>
        <time>2012-01-28T11:49:45Z</time>
      </trkpt>
      <trkpt lat="46.257039" lon="13.658996">
        <ele>1550.8224</ele>
        <time>2012-01-28T11:49:48Z</time>
      </trkpt>
      <trkpt lat="46.257142" lon="13.659079">
        <ele>1546.86</ele>
        <time>2012-01-28T11:49:59Z</time>
      </trkpt>
      <trkpt lat="46.257146" lon="13.659113">
        <ele>1546.5552</ele>
        <time>2012-01-28T11:50:00Z</time>
      </trkpt>
      <trkpt lat="46.257140" lon="13.659159">
        <ele>1545.9456</ele>
        <time>2012-01-28T11:50:04Z</time>
      </trkpt>
      <trkpt lat="46.257103" lon="13.659271">
        <ele>1543.5072</ele>
        <time>2012-01-28T11:50:11Z</time>
      </trkpt>
      <trkpt lat="46.257053" lon="13.659379">
        <ele>1541.6784</ele>
        <time>2012-01-28T11:50:18Z</time>
      </trkpt>
      <trkpt lat="46.257001" lon="13.659548">
        <ele>1538.3256</ele>
        <time>2012-01-28T11:50:27Z</time>
      </trkpt>
      <trkpt lat="46.256969" lon="13.659651">
        <ele>1536.192</ele>
        <time>2012-01-28T11:50:33Z</time>
      </trkpt>
      <trkpt lat="46.256975" lon="13.659725">
        <ele>1535.2776</ele>
        <time>2012-01-28T11:50:37Z</time>
      </trkpt>
      <trkpt lat="46.256965" lon="13.659759">
        <ele>1535.2776</ele>
        <time>2012-01-28T11:50:38Z</time>
      </trkpt>
      <trkpt lat="46.256922" lon="13.659888">
        <ele>1534.0584</ele>
        <time>2012-01-28T11:50:46Z</time>
      </trkpt>
      <trkpt lat="46.256921" lon="13.659981">
        <ele>1534.0584</ele>
        <time>2012-01-28T11:50:51Z</time>
      </trkpt>
      <trkpt lat="46.256916" lon="13.660045">
        <ele>1531.9248</ele>
        <time>2012-01-28T11:50:54Z</time>
      </trkpt>
      <trkpt lat="46.256896" lon="13.660107">
        <ele>1530.7056</ele>
        <time>2012-01-28T11:50:58Z</time>
      </trkpt>
      <trkpt lat="46.256877" lon="13.660186">
        <ele>1529.4864</ele>
        <time>2012-01-28T11:51:01Z</time>
      </trkpt>
      <trkpt lat="46.256834" lon="13.660331">
        <ele>1526.7432</ele>
        <time>2012-01-28T11:51:10Z</time>
      </trkpt>
      <trkpt lat="46.256780" lon="13.660474">
        <ele>1524.9144</ele>
        <time>2012-01-28T11:51:20Z</time>
      </trkpt>
      <trkpt lat="46.256771" lon="13.660510">
        <ele>1524.3048</ele>
        <time>2012-01-28T11:51:23Z</time>
      </trkpt>
      <trkpt lat="46.256755" lon="13.660566">
        <ele>1522.7808</ele>
        <time>2012-01-28T11:51:25Z</time>
      </trkpt>
      <trkpt lat="46.256724" lon="13.660671">
        <ele>1520.3424</ele>
        <time>2012-01-28T11:51:32Z</time>
      </trkpt>
      <trkpt lat="46.256717" lon="13.660800">
        <ele>1518.5136</ele>
        <time>2012-01-28T11:51:39Z</time>
      </trkpt>
      <trkpt lat="46.256726" lon="13.660853">
        <ele>1516.9896</ele>
        <time>2012-01-28T11:51:41Z</time>
      </trkpt>
      <trkpt lat="46.256735" lon="13.660944">
        <ele>1515.1608</ele>
        <time>2012-01-28T11:51:48Z</time>
      </trkpt>
      <trkpt lat="46.256721" lon="13.660966">
        <ele>1513.6368</ele>
        <time>2012-01-28T11:51:50Z</time>
      </trkpt>
      <trkpt lat="46.256699" lon="13.661023">
        <ele>1512.7224</ele>
        <time>2012-01-28T11:51:54Z</time>
      </trkpt>
      <trkpt lat="46.256653" lon="13.661137">
        <ele>1510.284</ele>
        <time>2012-01-28T11:52:00Z</time>
      </trkpt>
      <trkpt lat="46.256628" lon="13.661209">
        <ele>1509.0648</ele>
        <time>2012-01-28T11:52:04Z</time>
      </trkpt>
      <trkpt lat="46.256590" lon="13.661164">
        <ele>1506.6264</ele>
        <time>2012-01-28T11:52:11Z</time>
      </trkpt>
      <trkpt lat="46.256575" lon="13.661141">
        <ele>1505.712</ele>
        <time>2012-01-28T11:52:14Z</time>
      </trkpt>
      <trkpt lat="46.256553" lon="13.661052">
        <ele>1503.2736</ele>
        <time>2012-01-28T11:52:21Z</time>
      </trkpt>
      <trkpt lat="46.256490" lon="13.660981">
        <ele>1500.8352</ele>
        <time>2012-01-28T11:52:27Z</time>
      </trkpt>
      <trkpt lat="46.256443" lon="13.660929">
        <ele>1499.3112</ele>
        <time>2012-01-28T11:52:33Z</time>
      </trkpt>
      <trkpt lat="46.256410" lon="13.660849">
        <ele>1497.4824</ele>
        <time>2012-01-28T11:52:38Z</time>
      </trkpt>
      <trkpt lat="46.256406" lon="13.660823">
        <ele>1496.8728</ele>
        <time>2012-01-28T11:52:39Z</time>
      </trkpt>
      <trkpt lat="46.256405" lon="13.660791">
        <ele>1496.568</ele>
        <time>2012-01-28T11:52:53Z</time>
      </trkpt>
      <trkpt lat="46.256405" lon="13.660791">
        <ele>1495.9584</ele>
        <time>2012-01-28T11:53:16Z</time>
      </trkpt>
      <trkpt lat="46.256391" lon="13.660757">
        <ele>1495.9584</ele>
        <time>2012-01-28T11:53:24Z</time>
      </trkpt>
      <trkpt lat="46.256373" lon="13.660680">
        <ele>1494.4344</ele>
        <time>2012-01-28T11:53:28Z</time>
      </trkpt>
      <trkpt lat="46.256334" lon="13.660500">
        <ele>1491.996</ele>
        <time>2012-01-28T11:53:40Z</time>
      </trkpt>
      <trkpt lat="46.256337" lon="13.660433">
        <ele>1490.7768</ele>
        <time>2012-01-28T11:53:43Z</time>
      </trkpt>
      <trkpt lat="46.256345" lon="13.660335">
        <ele>1489.2528</ele>
        <time>2012-01-28T11:53:48Z</time>
      </trkpt>
      <trkpt lat="46.256354" lon="13.660230">
        <ele>1487.424</ele>
        <time>2012-01-28T11:54:00Z</time>
      </trkpt>
      <trkpt lat="46.256348" lon="13.660180">
        <ele>1487.424</ele>
        <time>2012-01-28T11:54:13Z</time>
      </trkpt>
      <trkpt lat="46.256348" lon="13.660180">
        <ele>1487.424</ele>
        <time>2012-01-28T11:54:34Z</time>
      </trkpt>
      <trkpt lat="46.256337" lon="13.660151">
        <ele>1487.424</ele>
        <time>2012-01-28T11:54:52Z</time>
      </trkpt>
      <trkpt lat="46.256337" lon="13.660151">
        <ele>1487.424</ele>
        <time>2012-01-28T11:55:26Z</time>
      </trkpt>
      <trkpt lat="46.256323" lon="13.660132">
        <ele>1487.424</ele>
        <time>2012-01-28T11:56:02Z</time>
      </trkpt>
      <trkpt lat="46.256321" lon="13.660131">
        <ele>1487.7288</ele>
        <time>2012-01-28T11:56:38Z</time>
      </trkpt>
      <trkpt lat="46.256316" lon="13.660125">
        <ele>1487.7288</ele>
        <time>2012-01-28T11:57:11Z</time>
      </trkpt>
      <trkpt lat="46.256311" lon="13.660122">
        <ele>1487.7288</ele>
        <time>2012-01-28T11:57:47Z</time>
      </trkpt>
      <trkpt lat="46.256311" lon="13.660121">
        <ele>1488.3384</ele>
        <time>2012-01-28T11:58:22Z</time>
      </trkpt>
      <trkpt lat="46.256309" lon="13.660119">
        <ele>1488.3384</ele>
        <time>2012-01-28T11:58:59Z</time>
      </trkpt>
      <trkpt lat="46.256309" lon="13.660118">
        <ele>1488.3384</ele>
        <time>2012-01-28T11:59:34Z</time>
      </trkpt>
      <trkpt lat="46.256310" lon="13.660117">
        <ele>1488.3384</ele>
        <time>2012-01-28T12:00:10Z</time>
      </trkpt>
      <trkpt lat="46.256310" lon="13.660117">
        <ele>1488.6432</ele>
        <time>2012-01-28T12:00:44Z</time>
      </trkpt>
      <trkpt lat="46.256304" lon="13.660117">
        <ele>1488.6432</ele>
        <time>2012-01-28T12:01:02Z</time>
      </trkpt>
      <trkpt lat="46.256305" lon="13.660124">
        <ele>1488.6432</ele>
        <time>2012-01-28T12:01:15Z</time>
      </trkpt>
      <trkpt lat="46.256303" lon="13.660124">
        <ele>1490.1672</ele>
        <time>2012-01-28T12:01:30Z</time>
      </trkpt>
      <trkpt lat="46.256303" lon="13.660124">
        <ele>1489.2528</ele>
        <time>2012-01-28T12:01:31Z</time>
      </trkpt>
      <trkpt lat="46.256303" lon="13.660124">
        <ele>1489.2528</ele>
        <time>2012-01-28T12:01:57Z</time>
      </trkpt>
      <trkpt lat="46.256302" lon="13.660125">
        <ele>1489.2528</ele>
        <time>2012-01-28T12:02:20Z</time>
      </trkpt>
      <trkpt lat="46.256300" lon="13.660119">
        <ele>1489.2528</ele>
        <time>2012-01-28T12:02:24Z</time>
      </trkpt>
      <trkpt lat="46.256273" lon="13.660104">
        <ele>1488.3384</ele>
        <time>2012-01-28T12:02:29Z</time>
      </trkpt>
      <trkpt lat="46.256228" lon="13.660065">
        <ele>1486.2048</ele>
        <time>2012-01-28T12:02:36Z</time>
      </trkpt>
      <trkpt lat="46.256207" lon="13.660009">
        <ele>1484.9856</ele>
        <time>2012-01-28T12:02:42Z</time>
      </trkpt>
      <trkpt lat="46.256184" lon="13.659898">
        <ele>1482.852</ele>
        <time>2012-01-28T12:02:47Z</time>
      </trkpt>
      <trkpt lat="46.256183" lon="13.659818">
        <ele>1482.5472</ele>
        <time>2012-01-28T12:02:52Z</time>
      </trkpt>
      <trkpt lat="46.256172" lon="13.659682">
        <ele>1481.0232</ele>
        <time>2012-01-28T12:02:59Z</time>
      </trkpt>
      <trkpt lat="46.256180" lon="13.659640">
        <ele>1480.7184</ele>
        <time>2012-01-28T12:03:03Z</time>
      </trkpt>
      <trkpt lat="46.256180" lon="13.659543">
        <ele>1479.4992</ele>
        <time>2012-01-28T12:03:09Z</time>
      </trkpt>
      <trkpt lat="46.256193" lon="13.659448">
        <ele>1478.5848</ele>
        <time>2012-01-28T12:03:14Z</time>
      </trkpt>
      <trkpt lat="46.256205" lon="13.659379">
        <ele>1478.28</ele>
        <time>2012-01-28T12:03:19Z</time>
      </trkpt>
      <trkpt lat="46.256189" lon="13.659321">
        <ele>1478.28</ele>
        <time>2012-01-28T12:03:23Z</time>
      </trkpt>
      <trkpt lat="46.256127" lon="13.659263">
        <ele>1477.6704</ele>
        <time>2012-01-28T12:03:30Z</time>
      </trkpt>
      <trkpt lat="46.256077" lon="13.659232">
        <ele>1477.0608</ele>
        <time>2012-01-28T12:03:34Z</time>
      </trkpt>
      <trkpt lat="46.255964" lon="13.659086">
        <ele>1475.232</ele>
        <time>2012-01-28T12:03:45Z</time>
      </trkpt>
      <trkpt lat="46.255907" lon="13.658948">
        <ele>1473.708</ele>
        <time>2012-01-28T12:03:54Z</time>
      </trkpt>
      <trkpt lat="46.255871" lon="13.658879">
        <ele>1473.4032</ele>
        <time>2012-01-28T12:03:59Z</time>
      </trkpt>
      <trkpt lat="46.255846" lon="13.658821">
        <ele>1472.4888</ele>
        <time>2012-01-28T12:04:03Z</time>
      </trkpt>
      <trkpt lat="46.255838" lon="13.658795">
        <ele>1471.8792</ele>
        <time>2012-01-28T12:04:04Z</time>
      </trkpt>
      <trkpt lat="46.255819" lon="13.658753">
        <ele>1471.5744</ele>
        <time>2012-01-28T12:04:08Z</time>
      </trkpt>
      <trkpt lat="46.255780" lon="13.658673">
        <ele>1470.3552</ele>
        <time>2012-01-28T12:04:16Z</time>
      </trkpt>
      <trkpt lat="46.255766" lon="13.658652">
        <ele>1470.0504</ele>
        <time>2012-01-28T12:04:17Z</time>
      </trkpt>
      <trkpt lat="46.255729" lon="13.658578">
        <ele>1469.136</ele>
        <time>2012-01-28T12:04:24Z</time>
      </trkpt>
      <trkpt lat="46.255696" lon="13.658536">
        <ele>1468.2216</ele>
        <time>2012-01-28T12:04:28Z</time>
      </trkpt>
      <trkpt lat="46.255637" lon="13.658438">
        <ele>1466.088</ele>
        <time>2012-01-28T12:04:34Z</time>
      </trkpt>
      <trkpt lat="46.255557" lon="13.658295">
        <ele>1465.1736</ele>
        <time>2012-01-28T12:04:43Z</time>
      </trkpt>
      <trkpt lat="46.255512" lon="13.658270">
        <ele>1463.6496</ele>
        <time>2012-01-28T12:04:47Z</time>
      </trkpt>
      <trkpt lat="46.255472" lon="13.658155">
        <ele>1461.2112</ele>
        <time>2012-01-28T12:04:55Z</time>
      </trkpt>
      <trkpt lat="46.255470" lon="13.658141">
        <ele>1461.2112</ele>
        <time>2012-01-28T12:04:57Z</time>
      </trkpt>
      <trkpt lat="46.255478" lon="13.658072">
        <ele>1459.992</ele>
        <time>2012-01-28T12:05:01Z</time>
      </trkpt>
      <trkpt lat="46.255511" lon="13.658009">
        <ele>1457.8584</ele>
        <time>2012-01-28T12:05:07Z</time>
      </trkpt>
      <trkpt lat="46.255523" lon="13.657914">
        <ele>1456.0296</ele>
        <time>2012-01-28T12:05:14Z</time>
      </trkpt>
      <trkpt lat="46.255505" lon="13.657884">
        <ele>1455.1152</ele>
        <time>2012-01-28T12:05:15Z</time>
      </trkpt>
      <trkpt lat="46.255458" lon="13.657883">
        <ele>1453.5912</ele>
        <time>2012-01-28T12:05:20Z</time>
      </trkpt>
      <trkpt lat="46.255419" lon="13.657874">
        <ele>1452.0672</ele>
        <time>2012-01-28T12:05:22Z</time>
      </trkpt>
      <trkpt lat="46.255407" lon="13.657871">
        <ele>1451.7624</ele>
        <time>2012-01-28T12:05:24Z</time>
      </trkpt>
      <trkpt lat="46.255377" lon="13.657873">
        <ele>1451.1528</ele>
        <time>2012-01-28T12:05:25Z</time>
      </trkpt>
      <trkpt lat="46.255304" lon="13.657807">
        <ele>1448.7144</ele>
        <time>2012-01-28T12:05:33Z</time>
      </trkpt>
      <trkpt lat="46.255288" lon="13.657739">
        <ele>1447.8</ele>
        <time>2012-01-28T12:05:38Z</time>
      </trkpt>
      <trkpt lat="46.255273" lon="13.657596">
        <ele>1444.4472</ele>
        <time>2012-01-28T12:05:47Z</time>
      </trkpt>
      <trkpt lat="46.255259" lon="13.657465">
        <ele>1442.6184</ele>
        <time>2012-01-28T12:05:56Z</time>
      </trkpt>
      <trkpt lat="46.255247" lon="13.657375">
        <ele>1440.7896</ele>
        <time>2012-01-28T12:06:01Z</time>
      </trkpt>
      <trkpt lat="46.255239" lon="13.657350">
        <ele>1440.7896</ele>
        <time>2012-01-28T12:06:04Z</time>
      </trkpt>
      <trkpt lat="46.255196" lon="13.657257">
        <ele>1438.656</ele>
        <time>2012-01-28T12:06:09Z</time>
      </trkpt>
      <trkpt lat="46.255136" lon="13.657198">
        <ele>1436.8272</ele>
        <time>2012-01-28T12:06:15Z</time>
      </trkpt>
      <trkpt lat="46.255109" lon="13.657154">
        <ele>1436.2176</ele>
        <time>2012-01-28T12:06:18Z</time>
      </trkpt>
      <trkpt lat="46.255062" lon="13.657117">
        <ele>1434.9984</ele>
        <time>2012-01-28T12:06:22Z</time>
      </trkpt>
      <trkpt lat="46.255033" lon="13.657093">
        <ele>1434.3888</ele>
        <time>2012-01-28T12:06:24Z</time>
      </trkpt>
      <trkpt lat="46.254957" lon="13.657005">
        <ele>1432.8648</ele>
        <time>2012-01-28T12:06:31Z</time>
      </trkpt>
      <trkpt lat="46.254928" lon="13.656992">
        <ele>1431.9504</ele>
        <time>2012-01-28T12:06:35Z</time>
      </trkpt>
      <trkpt lat="46.254827" lon="13.656868">
        <ele>1428.5976</ele>
        <time>2012-01-28T12:06:46Z</time>
      </trkpt>
      <trkpt lat="46.254756" lon="13.656778">
        <ele>1426.1592</ele>
        <time>2012-01-28T12:06:51Z</time>
      </trkpt>
      <trkpt lat="46.254711" lon="13.656694">
        <ele>1424.94</ele>
        <time>2012-01-28T12:06:58Z</time>
      </trkpt>
      <trkpt lat="46.254631" lon="13.656534">
        <ele>1421.5872</ele>
        <time>2012-01-28T12:07:08Z</time>
      </trkpt>
      <trkpt lat="46.254612" lon="13.656521">
        <ele>1420.9776</ele>
        <time>2012-01-28T12:07:10Z</time>
      </trkpt>
      <trkpt lat="46.254529" lon="13.656326">
        <ele>1417.6248</ele>
        <time>2012-01-28T12:07:21Z</time>
      </trkpt>
      <trkpt lat="46.254470" lon="13.656193">
        <ele>1416.1008</ele>
        <time>2012-01-28T12:07:30Z</time>
      </trkpt>
      <trkpt lat="46.254460" lon="13.656168">
        <ele>1416.1008</ele>
        <time>2012-01-28T12:07:33Z</time>
      </trkpt>
      <trkpt lat="46.254450" lon="13.656057">
        <ele>1413.6624</ele>
        <time>2012-01-28T12:07:40Z</time>
      </trkpt>
      <trkpt lat="46.254412" lon="13.655956">
        <ele>1411.8336</ele>
        <time>2012-01-28T12:07:47Z</time>
      </trkpt>
      <trkpt lat="46.254371" lon="13.655778">
        <ele>1407.8712</ele>
        <time>2012-01-28T12:07:57Z</time>
      </trkpt>
      <trkpt lat="46.254367" lon="13.655719">
        <ele>1406.0424</ele>
        <time>2012-01-28T12:08:02Z</time>
      </trkpt>
      <trkpt lat="46.254350" lon="13.655631">
        <ele>1404.2136</ele>
        <time>2012-01-28T12:08:07Z</time>
      </trkpt>
      <trkpt lat="46.254344" lon="13.655580">
        <ele>1403.2992</ele>
        <time>2012-01-28T12:08:11Z</time>
      </trkpt>
      <trkpt lat="46.254355" lon="13.655555">
        <ele>1402.6896</ele>
        <time>2012-01-28T12:08:12Z</time>
      </trkpt>
      <trkpt lat="46.254307" lon="13.655395">
        <ele>1399.3368</ele>
        <time>2012-01-28T12:08:24Z</time>
      </trkpt>
      <trkpt lat="46.254295" lon="13.655334">
        <ele>1397.8128</ele>
        <time>2012-01-28T12:08:37Z</time>
      </trkpt>
      <trkpt lat="46.254303" lon="13.655312">
        <ele>1397.508</ele>
        <time>2012-01-28T12:08:43Z</time>
      </trkpt>
      <trkpt lat="46.254341" lon="13.655266">
        <ele>1396.8984</ele>
        <time>2012-01-28T12:08:47Z</time>
      </trkpt>
      <trkpt lat="46.254327" lon="13.655144">
        <ele>1393.2408</ele>
        <time>2012-01-28T12:08:56Z</time>
      </trkpt>
      <trkpt lat="46.254324" lon="13.655128">
        <ele>1392.6312</ele>
        <time>2012-01-28T12:08:57Z</time>
      </trkpt>
      <trkpt lat="46.254314" lon="13.655110">
        <ele>1392.6312</ele>
        <time>2012-01-28T12:08:58Z</time>
      </trkpt>
      <trkpt lat="46.254281" lon="13.655094">
        <ele>1390.8024</ele>
        <time>2012-01-28T12:09:01Z</time>
      </trkpt>
      <trkpt lat="46.254242" lon="13.655066">
        <ele>1389.2784</ele>
        <time>2012-01-28T12:09:05Z</time>
      </trkpt>
      <trkpt lat="46.254189" lon="13.655047">
        <ele>1387.4496</ele>
        <time>2012-01-28T12:09:12Z</time>
      </trkpt>
      <trkpt lat="46.254111" lon="13.655056">
        <ele>1383.4872</ele>
        <time>2012-01-28T12:09:21Z</time>
      </trkpt>
      <trkpt lat="46.254042" lon="13.655065">
        <ele>1381.6584</ele>
        <time>2012-01-28T12:09:28Z</time>
      </trkpt>
      <trkpt lat="46.254024" lon="13.655065">
        <ele>1380.4392</ele>
        <time>2012-01-28T12:09:29Z</time>
      </trkpt>
      <trkpt lat="46.253907" lon="13.655000">
        <ele>1377.0864</ele>
        <time>2012-01-28T12:09:40Z</time>
      </trkpt>
      <trkpt lat="46.253876" lon="13.654994">
        <ele>1376.172</ele>
        <time>2012-01-28T12:09:44Z</time>
      </trkpt>
      <trkpt lat="46.253819" lon="13.655015">
        <ele>1373.7336</ele>
        <time>2012-01-28T12:09:50Z</time>
      </trkpt>
      <trkpt lat="46.253767" lon="13.654996">
        <ele>1371.9048</ele>
        <time>2012-01-28T12:09:55Z</time>
      </trkpt>
      <trkpt lat="46.253676" lon="13.655015">
        <ele>1368.552</ele>
        <time>2012-01-28T12:10:03Z</time>
      </trkpt>
      <trkpt lat="46.253647" lon="13.655015">
        <ele>1366.7232</ele>
        <time>2012-01-28T12:10:06Z</time>
      </trkpt>
      <trkpt lat="46.253599" lon="13.655079">
        <ele>1363.3704</ele>
        <time>2012-01-28T12:10:14Z</time>
      </trkpt>
      <trkpt lat="46.253583" lon="13.655098">
        <ele>1361.8464</ele>
        <time>2012-01-28T12:10:17Z</time>
      </trkpt>
      <trkpt lat="46.253567" lon="13.655177">
        <ele>1360.3224</ele>
        <time>2012-01-28T12:10:29Z</time>
      </trkpt>
      <trkpt lat="46.253561" lon="13.655183">
        <ele>1360.3224</ele>
        <time>2012-01-28T12:10:50Z</time>
      </trkpt>
      <trkpt lat="46.253561" lon="13.655183">
        <ele>1360.932</ele>
        <time>2012-01-28T12:11:00Z</time>
      </trkpt>
      <trkpt lat="46.253541" lon="13.655222">
        <ele>1360.0176</ele>
        <time>2012-01-28T12:11:04Z</time>
      </trkpt>
      <trkpt lat="46.253509" lon="13.655259">
        <ele>1358.4936</ele>
        <time>2012-01-28T12:11:08Z</time>
      </trkpt>
      <trkpt lat="46.253480" lon="13.655293">
        <ele>1356.9696</ele>
        <time>2012-01-28T12:11:12Z</time>
      </trkpt>
      <trkpt lat="46.253395" lon="13.655335">
        <ele>1353.6168</ele>
        <time>2012-01-28T12:11:20Z</time>
      </trkpt>
      <trkpt lat="46.253294" lon="13.655373">
        <ele>1350.8736</ele>
        <time>2012-01-28T12:11:28Z</time>
      </trkpt>
      <trkpt lat="46.253278" lon="13.655417">
        <ele>1348.74</ele>
        <time>2012-01-28T12:11:32Z</time>
      </trkpt>
      <trkpt lat="46.253203" lon="13.655455">
        <ele>1345.9968</ele>
        <time>2012-01-28T12:11:40Z</time>
      </trkpt>
      <trkpt lat="46.253181" lon="13.655469">
        <ele>1345.3872</ele>
        <time>2012-01-28T12:11:43Z</time>
      </trkpt>
      <trkpt lat="46.253132" lon="13.655589">
        <ele>1342.644</ele>
        <time>2012-01-28T12:11:51Z</time>
      </trkpt>
      <trkpt lat="46.253112" lon="13.655602">
        <ele>1342.0344</ele>
        <time>2012-01-28T12:11:52Z</time>
      </trkpt>
      <trkpt lat="46.253072" lon="13.655751">
        <ele>1338.6816</ele>
        <time>2012-01-28T12:12:00Z</time>
      </trkpt>
      <trkpt lat="46.253008" lon="13.655940">
        <ele>1335.024</ele>
        <time>2012-01-28T12:12:10Z</time>
      </trkpt>
      <trkpt lat="46.252906" lon="13.656048">
        <ele>1331.976</ele>
        <time>2012-01-28T12:12:19Z</time>
      </trkpt>
      <trkpt lat="46.252876" lon="13.656079">
        <ele>1331.0616</ele>
        <time>2012-01-28T12:12:25Z</time>
      </trkpt>
      <trkpt lat="46.252870" lon="13.656089">
        <ele>1330.452</ele>
        <time>2012-01-28T12:12:26Z</time>
      </trkpt>
      <trkpt lat="46.252783" lon="13.656214">
        <ele>1327.0992</ele>
        <time>2012-01-28T12:12:37Z</time>
      </trkpt>
      <trkpt lat="46.252779" lon="13.656234">
        <ele>1327.0992</ele>
        <time>2012-01-28T12:12:37Z</time>
      </trkpt>
      <trkpt lat="46.252764" lon="13.656252">
        <ele>1326.7944</ele>
        <time>2012-01-28T12:12:40Z</time>
      </trkpt>
      <trkpt lat="46.252707" lon="13.656286">
        <ele>1324.9656</ele>
        <time>2012-01-28T12:12:45Z</time>
      </trkpt>
      <trkpt lat="46.252617" lon="13.656357">
        <ele>1321.0032</ele>
        <time>2012-01-28T12:12:54Z</time>
      </trkpt>
      <trkpt lat="46.252605" lon="13.656379">
        <ele>1320.0888</ele>
        <time>2012-01-28T12:12:57Z</time>
      </trkpt>
      <trkpt lat="46.252545" lon="13.656466">
        <ele>1316.736</ele>
        <time>2012-01-28T12:13:08Z</time>
      </trkpt>
      <trkpt lat="46.252530" lon="13.656495">
        <ele>1315.8216</ele>
        <time>2012-01-28T12:13:12Z</time>
      </trkpt>
      <trkpt lat="46.252481" lon="13.656563">
        <ele>1313.688</ele>
        <time>2012-01-28T12:13:17Z</time>
      </trkpt>
      <trkpt lat="46.252408" lon="13.656630">
        <ele>1310.3352</ele>
        <time>2012-01-28T12:13:28Z</time>
      </trkpt>
      <trkpt lat="46.252381" lon="13.656722">
        <ele>1307.8968</ele>
        <time>2012-01-28T12:13:35Z</time>
      </trkpt>
      <trkpt lat="46.252376" lon="13.656751">
        <ele>1307.592</ele>
        <time>2012-01-28T12:13:38Z</time>
      </trkpt>
      <trkpt lat="46.252378" lon="13.656777">
        <ele>1306.9824</ele>
        <time>2012-01-28T12:13:39Z</time>
      </trkpt>
      <trkpt lat="46.252349" lon="13.656912">
        <ele>1304.2392</ele>
        <time>2012-01-28T12:13:48Z</time>
      </trkpt>
      <trkpt lat="46.252278" lon="13.657088">
        <ele>1301.1912</ele>
        <time>2012-01-28T12:13:59Z</time>
      </trkpt>
      <trkpt lat="46.252268" lon="13.657126">
        <ele>1300.2768</ele>
        <time>2012-01-28T12:14:02Z</time>
      </trkpt>
      <trkpt lat="46.252249" lon="13.657271">
        <ele>1297.8384</ele>
        <time>2012-01-28T12:14:10Z</time>
      </trkpt>
      <trkpt lat="46.252174" lon="13.657383">
        <ele>1296.6192</ele>
        <time>2012-01-28T12:14:18Z</time>
      </trkpt>
      <trkpt lat="46.252096" lon="13.657481">
        <ele>1294.1808</ele>
        <time>2012-01-28T12:14:26Z</time>
      </trkpt>
      <trkpt lat="46.252096" lon="13.657503">
        <ele>1292.9616</ele>
        <time>2012-01-28T12:14:38Z</time>
      </trkpt>
      <trkpt lat="46.252090" lon="13.657513">
        <ele>1293.5712</ele>
        <time>2012-01-28T12:14:56Z</time>
      </trkpt>
      <trkpt lat="46.252068" lon="13.657565">
        <ele>1292.6568</ele>
        <time>2012-01-28T12:15:00Z</time>
      </trkpt>
      <trkpt lat="46.252062" lon="13.657595">
        <ele>1293.5712</ele>
        <time>2012-01-28T12:15:03Z</time>
      </trkpt>
      <trkpt lat="46.252011" lon="13.657629">
        <ele>1291.1328</ele>
        <time>2012-01-28T12:15:08Z</time>
      </trkpt>
      <trkpt lat="46.251890" lon="13.657710">
        <ele>1288.3896</ele>
        <time>2012-01-28T12:15:18Z</time>
      </trkpt>
      <trkpt lat="46.251866" lon="13.657733">
        <ele>1287.4752</ele>
        <time>2012-01-28T12:15:28Z</time>
      </trkpt>
      <trkpt lat="46.251859" lon="13.657752">
        <ele>1287.4752</ele>
        <time>2012-01-28T12:15:49Z</time>
      </trkpt>
      <trkpt lat="46.251773" lon="13.657817">
        <ele>1285.9512</ele>
        <time>2012-01-28T12:15:57Z</time>
      </trkpt>
      <trkpt lat="46.251754" lon="13.657822">
        <ele>1285.0368</ele>
        <time>2012-01-28T12:15:58Z</time>
      </trkpt>
      <trkpt lat="46.251697" lon="13.657837">
        <ele>1282.5984</ele>
        <time>2012-01-28T12:16:10Z</time>
      </trkpt>
      <trkpt lat="46.251679" lon="13.657835">
        <ele>1281.0744</ele>
        <time>2012-01-28T12:16:18Z</time>
      </trkpt>
      <trkpt lat="46.251650" lon="13.657824">
        <ele>1279.5504</ele>
        <time>2012-01-28T12:16:25Z</time>
      </trkpt>
      <trkpt lat="46.251556" lon="13.657791">
        <ele>1276.1976</ele>
        <time>2012-01-28T12:16:36Z</time>
      </trkpt>
      <trkpt lat="46.251540" lon="13.657805">
        <ele>1275.2832</ele>
        <time>2012-01-28T12:16:37Z</time>
      </trkpt>
      <trkpt lat="46.251481" lon="13.657842">
        <ele>1273.7592</ele>
        <time>2012-01-28T12:16:44Z</time>
      </trkpt>
      <trkpt lat="46.251426" lon="13.657881">
        <ele>1271.9304</ele>
        <time>2012-01-28T12:16:56Z</time>
      </trkpt>
      <trkpt lat="46.251377" lon="13.657991">
        <ele>1269.1872</ele>
        <time>2012-01-28T12:17:07Z</time>
      </trkpt>
      <trkpt lat="46.251330" lon="13.658047">
        <ele>1266.7488</ele>
        <time>2012-01-28T12:17:12Z</time>
      </trkpt>
      <trkpt lat="46.251293" lon="13.658063">
        <ele>1265.8344</ele>
        <time>2012-01-28T12:17:15Z</time>
      </trkpt>
      <trkpt lat="46.251291" lon="13.658095">
        <ele>1264.6152</ele>
        <time>2012-01-28T12:17:18Z</time>
      </trkpt>
      <trkpt lat="46.251305" lon="13.658160">
        <ele>1262.7864</ele>
        <time>2012-01-28T12:17:24Z</time>
      </trkpt>
      <trkpt lat="46.251258" lon="13.658205">
        <ele>1261.2624</ele>
        <time>2012-01-28T12:17:29Z</time>
      </trkpt>
      <trkpt lat="46.251221" lon="13.658218">
        <ele>1259.1288</ele>
        <time>2012-01-28T12:17:39Z</time>
      </trkpt>
      <trkpt lat="46.251223" lon="13.658214">
        <ele>1259.1288</ele>
        <time>2012-01-28T12:18:00Z</time>
      </trkpt>
      <trkpt lat="46.251219" lon="13.658212">
        <ele>1259.1288</ele>
        <time>2012-01-28T12:18:04Z</time>
      </trkpt>
      <trkpt lat="46.251185" lon="13.658205">
        <ele>1257.9096</ele>
        <time>2012-01-28T12:18:08Z</time>
      </trkpt>
      <trkpt lat="46.251138" lon="13.658209">
        <ele>1256.0808</ele>
        <time>2012-01-28T12:18:13Z</time>
      </trkpt>
      <trkpt lat="46.251058" lon="13.658203">
        <ele>1253.6424</ele>
        <time>2012-01-28T12:18:18Z</time>
      </trkpt>
      <trkpt lat="46.251037" lon="13.658173">
        <ele>1253.3376</ele>
        <time>2012-01-28T12:18:21Z</time>
      </trkpt>
      <trkpt lat="46.250936" lon="13.658124">
        <ele>1250.8992</ele>
        <time>2012-01-28T12:18:29Z</time>
      </trkpt>
      <trkpt lat="46.250860" lon="13.658163">
        <ele>1247.5464</ele>
        <time>2012-01-28T12:18:36Z</time>
      </trkpt>
      <trkpt lat="46.250842" lon="13.658172">
        <ele>1246.632</ele>
        <time>2012-01-28T12:18:36Z</time>
      </trkpt>
      <trkpt lat="46.250790" lon="13.658250">
        <ele>1244.4984</ele>
        <time>2012-01-28T12:18:41Z</time>
      </trkpt>
      <trkpt lat="46.250758" lon="13.658280">
        <ele>1243.584</ele>
        <time>2012-01-28T12:18:44Z</time>
      </trkpt>
      <trkpt lat="46.250681" lon="13.658271">
        <ele>1241.7552</ele>
        <time>2012-01-28T12:18:51Z</time>
      </trkpt>
      <trkpt lat="46.250656" lon="13.658237">
        <ele>1242.06</ele>
        <time>2012-01-28T12:19:04Z</time>
      </trkpt>
      <trkpt lat="46.250656" lon="13.658258">
        <ele>1240.8408</ele>
        <time>2012-01-28T12:19:19Z</time>
      </trkpt>
      <trkpt lat="46.250565" lon="13.658290">
        <ele>1236.8784</ele>
        <time>2012-01-28T12:19:29Z</time>
      </trkpt>
      <trkpt lat="46.250558" lon="13.658290">
        <ele>1236.2688</ele>
        <time>2012-01-28T12:19:30Z</time>
      </trkpt>
      <trkpt lat="46.250521" lon="13.658287">
        <ele>1235.3544</ele>
        <time>2012-01-28T12:19:33Z</time>
      </trkpt>
      <trkpt lat="46.250464" lon="13.658295">
        <ele>1234.1352</ele>
        <time>2012-01-28T12:19:42Z</time>
      </trkpt>
      <trkpt lat="46.250389" lon="13.658284">
        <ele>1232.916</ele>
        <time>2012-01-28T12:19:46Z</time>
      </trkpt>
      <trkpt lat="46.250347" lon="13.658258">
        <ele>1233.5256</ele>
        <time>2012-01-28T12:19:50Z</time>
      </trkpt>
      <trkpt lat="46.250305" lon="13.658223">
        <ele>1233.5256</ele>
        <time>2012-01-28T12:19:54Z</time>
      </trkpt>
      <trkpt lat="46.250226" lon="13.658189">
        <ele>1233.5256</ele>
        <time>2012-01-28T12:20:01Z</time>
      </trkpt>
      <trkpt lat="46.250106" lon="13.658201">
        <ele>1232.6112</ele>
        <time>2012-01-28T12:20:11Z</time>
      </trkpt>
      <trkpt lat="46.250046" lon="13.658210">
        <ele>1232.0016</ele>
        <time>2012-01-28T12:20:16Z</time>
      </trkpt>
      <trkpt lat="46.249997" lon="13.658220">
        <ele>1231.0872</ele>
        <time>2012-01-28T12:20:28Z</time>
      </trkpt>
      <trkpt lat="46.249989" lon="13.658218">
        <ele>1231.6968</ele>
        <time>2012-01-28T12:20:38Z</time>
      </trkpt>
      <trkpt lat="46.249966" lon="13.658200">
        <ele>1230.4776</ele>
        <time>2012-01-28T12:20:50Z</time>
      </trkpt>
      <trkpt lat="46.249959" lon="13.658194">
        <ele>1230.4776</ele>
        <time>2012-01-28T12:21:13Z</time>
      </trkpt>
      <trkpt lat="46.249959" lon="13.658194">
        <ele>1231.0872</ele>
        <time>2012-01-28T12:21:32Z</time>
      </trkpt>
      <trkpt lat="46.249928" lon="13.658178">
        <ele>1230.1728</ele>
        <time>2012-01-28T12:21:34Z</time>
      </trkpt>
      <trkpt lat="46.249882" lon="13.658178">
        <ele>1229.5632</ele>
        <time>2012-01-28T12:21:38Z</time>
      </trkpt>
      <trkpt lat="46.249744" lon="13.658180">
        <ele>1226.2104</ele>
        <time>2012-01-28T12:21:49Z</time>
      </trkpt>
      <trkpt lat="46.249692" lon="13.658202">
        <ele>1225.296</ele>
        <time>2012-01-28T12:21:56Z</time>
      </trkpt>
      <trkpt lat="46.249677" lon="13.658226">
        <ele>1223.772</ele>
        <time>2012-01-28T12:21:59Z</time>
      </trkpt>
      <trkpt lat="46.249616" lon="13.658198">
        <ele>1221.6384</ele>
        <time>2012-01-28T12:22:05Z</time>
      </trkpt>
      <trkpt lat="46.249539" lon="13.658243">
        <ele>1217.9808</ele>
        <time>2012-01-28T12:22:15Z</time>
      </trkpt>
      <trkpt lat="46.249527" lon="13.658340">
        <ele>1215.8472</ele>
        <time>2012-01-28T12:22:27Z</time>
      </trkpt>
      <trkpt lat="46.249525" lon="13.658358">
        <ele>1215.2376</ele>
        <time>2012-01-28T12:22:30Z</time>
      </trkpt>
      <trkpt lat="46.249540" lon="13.658433">
        <ele>1213.7136</ele>
        <time>2012-01-28T12:22:35Z</time>
      </trkpt>
      <trkpt lat="46.249504" lon="13.658523">
        <ele>1210.3608</ele>
        <time>2012-01-28T12:22:44Z</time>
      </trkpt>
      <trkpt lat="46.249475" lon="13.658587">
        <ele>1207.008</ele>
        <time>2012-01-28T12:22:55Z</time>
      </trkpt>
      <trkpt lat="46.249471" lon="13.658596">
        <ele>1207.008</ele>
        <time>2012-01-28T12:22:55Z</time>
      </trkpt>
      <trkpt lat="46.249459" lon="13.658636">
        <ele>1205.484</ele>
        <time>2012-01-28T12:22:58Z</time>
      </trkpt>
      <trkpt lat="46.249418" lon="13.658724">
        <ele>1204.2648</ele>
        <time>2012-01-28T12:23:06Z</time>
      </trkpt>
      <trkpt lat="46.249395" lon="13.658782">
        <ele>1201.2168</ele>
        <time>2012-01-28T12:23:10Z</time>
      </trkpt>
      <trkpt lat="46.249337" lon="13.658908">
        <ele>1197.864</ele>
        <time>2012-01-28T12:23:18Z</time>
      </trkpt>
      <trkpt lat="46.249301" lon="13.658928">
        <ele>1196.6448</ele>
        <time>2012-01-28T12:23:25Z</time>
      </trkpt>
      <trkpt lat="46.249282" lon="13.658942">
        <ele>1195.4256</ele>
        <time>2012-01-28T12:23:26Z</time>
      </trkpt>
      <trkpt lat="46.249220" lon="13.658946">
        <ele>1192.9872</ele>
        <time>2012-01-28T12:23:34Z</time>
      </trkpt>
      <trkpt lat="46.249194" lon="13.658972">
        <ele>1192.0728</ele>
        <time>2012-01-28T12:23:37Z</time>
      </trkpt>
      <trkpt lat="46.249167" lon="13.659043">
        <ele>1191.1584</ele>
        <time>2012-01-28T12:23:44Z</time>
      </trkpt>
      <trkpt lat="46.249127" lon="13.659078">
        <ele>1189.6344</ele>
        <time>2012-01-28T12:23:48Z</time>
      </trkpt>
      <trkpt lat="46.249056" lon="13.659184">
        <ele>1186.2816</ele>
        <time>2012-01-28T12:23:57Z</time>
      </trkpt>
      <trkpt lat="46.248983" lon="13.659213">
        <ele>1182.9288</ele>
        <time>2012-01-28T12:24:08Z</time>
      </trkpt>
      <trkpt lat="46.248937" lon="13.659193">
        <ele>1180.4904</ele>
        <time>2012-01-28T12:24:15Z</time>
      </trkpt>
      <trkpt lat="46.248921" lon="13.659235">
        <ele>1179.576</ele>
        <time>2012-01-28T12:24:19Z</time>
      </trkpt>
      <trkpt lat="46.248883" lon="13.659222">
        <ele>1178.6616</ele>
        <time>2012-01-28T12:24:23Z</time>
      </trkpt>
      <trkpt lat="46.248789" lon="13.659275">
        <ele>1174.3944</ele>
        <time>2012-01-28T12:24:31Z</time>
      </trkpt>
      <trkpt lat="46.248760" lon="13.659281">
        <ele>1173.48</ele>
        <time>2012-01-28T12:24:35Z</time>
      </trkpt>
      <trkpt lat="46.248730" lon="13.659260">
        <ele>1171.0416</ele>
        <time>2012-01-28T12:24:39Z</time>
      </trkpt>
      <trkpt lat="46.248684" lon="13.659301">
        <ele>1169.5176</ele>
        <time>2012-01-28T12:24:43Z</time>
      </trkpt>
      <trkpt lat="46.248650" lon="13.659329">
        <ele>1167.9936</ele>
        <time>2012-01-28T12:24:46Z</time>
      </trkpt>
      <trkpt lat="46.248575" lon="13.659417">
        <ele>1164.6408</ele>
        <time>2012-01-28T12:24:55Z</time>
      </trkpt>
      <trkpt lat="46.248519" lon="13.659457">
        <ele>1161.8976</ele>
        <time>2012-01-28T12:25:02Z</time>
      </trkpt>
      <trkpt lat="46.248507" lon="13.659441">
        <ele>1161.288</ele>
        <time>2012-01-28T12:25:05Z</time>
      </trkpt>
      <trkpt lat="46.248470" lon="13.659389">
        <ele>1159.4592</ele>
        <time>2012-01-28T12:25:10Z</time>
      </trkpt>
      <trkpt lat="46.248391" lon="13.659425">
        <ele>1156.1064</ele>
        <time>2012-01-28T12:25:20Z</time>
      </trkpt>
      <trkpt lat="46.248341" lon="13.659462">
        <ele>1153.3632</ele>
        <time>2012-01-28T12:25:26Z</time>
      </trkpt>
      <trkpt lat="46.248282" lon="13.659404">
        <ele>1151.8392</ele>
        <time>2012-01-28T12:25:33Z</time>
      </trkpt>
      <trkpt lat="46.248252" lon="13.659395">
        <ele>1150.9248</ele>
        <time>2012-01-28T12:25:36Z</time>
      </trkpt>
      <trkpt lat="46.248238" lon="13.659399">
        <ele>1150.0104</ele>
        <time>2012-01-28T12:25:37Z</time>
      </trkpt>
      <trkpt lat="46.248219" lon="13.659450">
        <ele>1148.4864</ele>
        <time>2012-01-28T12:25:43Z</time>
      </trkpt>
      <trkpt lat="46.248173" lon="13.659452">
        <ele>1146.6576</ele>
        <time>2012-01-28T12:25:48Z</time>
      </trkpt>
      <trkpt lat="46.248128" lon="13.659462">
        <ele>1144.524</ele>
        <time>2012-01-28T12:25:53Z</time>
      </trkpt>
      <trkpt lat="46.248101" lon="13.659467">
        <ele>1143</ele>
        <time>2012-01-28T12:25:57Z</time>
      </trkpt>
      <trkpt lat="46.248050" lon="13.659467">
        <ele>1141.7808</ele>
        <time>2012-01-28T12:26:03Z</time>
      </trkpt>
      <trkpt lat="46.248024" lon="13.659492">
        <ele>1140.8664</ele>
        <time>2012-01-28T12:26:04Z</time>
      </trkpt>
      <trkpt lat="46.247997" lon="13.659521">
        <ele>1138.7328</ele>
        <time>2012-01-28T12:26:08Z</time>
      </trkpt>
      <trkpt lat="46.247979" lon="13.659498">
        <ele>1137.8184</ele>
        <time>2012-01-28T12:26:11Z</time>
      </trkpt>
      <trkpt lat="46.247918" lon="13.659493">
        <ele>1135.9896</ele>
        <time>2012-01-28T12:26:15Z</time>
      </trkpt>
      <trkpt lat="46.247901" lon="13.659468">
        <ele>1135.0752</ele>
        <time>2012-01-28T12:26:19Z</time>
      </trkpt>
      <trkpt lat="46.247841" lon="13.659460">
        <ele>1131.7224</ele>
        <time>2012-01-28T12:26:27Z</time>
      </trkpt>
      <trkpt lat="46.247769" lon="13.659454">
        <ele>1128.3696</ele>
        <time>2012-01-28T12:26:34Z</time>
      </trkpt>
      <trkpt lat="46.247701" lon="13.659460">
        <ele>1126.236</ele>
        <time>2012-01-28T12:26:39Z</time>
      </trkpt>
      <trkpt lat="46.247652" lon="13.659500">
        <ele>1125.0168</ele>
        <time>2012-01-28T12:26:43Z</time>
      </trkpt>
      <trkpt lat="46.247599" lon="13.659452">
        <ele>1122.5784</ele>
        <time>2012-01-28T12:26:50Z</time>
      </trkpt>
      <trkpt lat="46.247535" lon="13.659538">
        <ele>1119.5304</ele>
        <time>2012-01-28T12:26:58Z</time>
      </trkpt>
      <trkpt lat="46.247516" lon="13.659544">
        <ele>1118.616</ele>
        <time>2012-01-28T12:27:01Z</time>
      </trkpt>
      <trkpt lat="46.247461" lon="13.659547">
        <ele>1115.8728</ele>
        <time>2012-01-28T12:27:10Z</time>
      </trkpt>
      <trkpt lat="46.247454" lon="13.659573">
        <ele>1115.2632</ele>
        <time>2012-01-28T12:27:13Z</time>
      </trkpt>
      <trkpt lat="46.247424" lon="13.659553">
        <ele>1113.7392</ele>
        <time>2012-01-28T12:27:17Z</time>
      </trkpt>
      <trkpt lat="46.247418" lon="13.659541">
        <ele>1113.4344</ele>
        <time>2012-01-28T12:27:17Z</time>
      </trkpt>
      <trkpt lat="46.247385" lon="13.659522">
        <ele>1111.3008</ele>
        <time>2012-01-28T12:27:24Z</time>
      </trkpt>
      <trkpt lat="46.247318" lon="13.659599">
        <ele>1108.5576</ele>
        <time>2012-01-28T12:27:33Z</time>
      </trkpt>
      <trkpt lat="46.247276" lon="13.659631">
        <ele>1106.7288</ele>
        <time>2012-01-28T12:27:40Z</time>
      </trkpt>
      <trkpt lat="46.247195" lon="13.659643">
        <ele>1103.376</ele>
        <time>2012-01-28T12:27:48Z</time>
      </trkpt>
      <trkpt lat="46.247149" lon="13.659650">
        <ele>1101.2424</ele>
        <time>2012-01-28T12:27:55Z</time>
      </trkpt>
      <trkpt lat="46.247122" lon="13.659630">
        <ele>1100.0232</ele>
        <time>2012-01-28T12:27:59Z</time>
      </trkpt>
      <trkpt lat="46.247082" lon="13.659640">
        <ele>1098.4992</ele>
        <time>2012-01-28T12:28:03Z</time>
      </trkpt>
      <trkpt lat="46.247051" lon="13.659573">
        <ele>1096.6704</ele>
        <time>2012-01-28T12:28:08Z</time>
      </trkpt>
      <trkpt lat="46.246974" lon="13.659502">
        <ele>1092.708</ele>
        <time>2012-01-28T12:28:17Z</time>
      </trkpt>
      <trkpt lat="46.246863" lon="13.659513">
        <ele>1089.66</ele>
        <time>2012-01-28T12:28:26Z</time>
      </trkpt>
      <trkpt lat="46.246823" lon="13.659548">
        <ele>1087.8312</ele>
        <time>2012-01-28T12:28:30Z</time>
      </trkpt>
      <trkpt lat="46.246708" lon="13.659520">
        <ele>1084.4784</ele>
        <time>2012-01-28T12:28:39Z</time>
      </trkpt>
      <trkpt lat="46.246646" lon="13.659507">
        <ele>1082.04</ele>
        <time>2012-01-28T12:28:46Z</time>
      </trkpt>
      <trkpt lat="46.246540" lon="13.659519">
        <ele>1078.3824</ele>
        <time>2012-01-28T12:28:57Z</time>
      </trkpt>
      <trkpt lat="46.246529" lon="13.659520">
        <ele>1077.7728</ele>
        <time>2012-01-28T12:28:57Z</time>
      </trkpt>
      <trkpt lat="46.246432" lon="13.659519">
        <ele>1074.42</ele>
        <time>2012-01-28T12:29:06Z</time>
      </trkpt>
      <trkpt lat="46.246354" lon="13.659555">
        <ele>1071.0672</ele>
        <time>2012-01-28T12:29:13Z</time>
      </trkpt>
      <trkpt lat="46.246349" lon="13.659560">
        <ele>1070.1528</ele>
        <time>2012-01-28T12:29:15Z</time>
      </trkpt>
      <trkpt lat="46.246332" lon="13.659585">
        <ele>1069.2384</ele>
        <time>2012-01-28T12:29:17Z</time>
      </trkpt>
      <trkpt lat="46.246289" lon="13.659582">
        <ele>1066.1904</ele>
        <time>2012-01-28T12:29:24Z</time>
      </trkpt>
      <trkpt lat="46.246275" lon="13.659607">
        <ele>1065.8856</ele>
        <time>2012-01-28T12:29:27Z</time>
      </trkpt>
      <trkpt lat="46.246262" lon="13.659646">
        <ele>1065.276</ele>
        <time>2012-01-28T12:29:28Z</time>
      </trkpt>
      <trkpt lat="46.246228" lon="13.659692">
        <ele>1063.4472</ele>
        <time>2012-01-28T12:29:36Z</time>
      </trkpt>
      <trkpt lat="46.246172" lon="13.659802">
        <ele>1061.3136</ele>
        <time>2012-01-28T12:29:47Z</time>
      </trkpt>
      <trkpt lat="46.246111" lon="13.659837">
        <ele>1059.4848</ele>
        <time>2012-01-28T12:29:51Z</time>
      </trkpt>
      <trkpt lat="46.246035" lon="13.659779">
        <ele>1057.0464</ele>
        <time>2012-01-28T12:29:59Z</time>
      </trkpt>
      <trkpt lat="46.245967" lon="13.659800">
        <ele>1055.5224</ele>
        <time>2012-01-28T12:30:03Z</time>
      </trkpt>
      <trkpt lat="46.245867" lon="13.659829">
        <ele>1053.6936</ele>
        <time>2012-01-28T12:30:11Z</time>
      </trkpt>
      <trkpt lat="46.245758" lon="13.659886">
        <ele>1051.8648</ele>
        <time>2012-01-28T12:30:21Z</time>
      </trkpt>
      <trkpt lat="46.245739" lon="13.659957">
        <ele>1050.9504</ele>
        <time>2012-01-28T12:30:26Z</time>
      </trkpt>
      <trkpt lat="46.245712" lon="13.659961">
        <ele>1049.4264</ele>
        <time>2012-01-28T12:30:29Z</time>
      </trkpt>
      <trkpt lat="46.245673" lon="13.659957">
        <ele>1046.988</ele>
        <time>2012-01-28T12:30:36Z</time>
      </trkpt>
      <trkpt lat="46.245637" lon="13.659943">
        <ele>1046.0736</ele>
        <time>2012-01-28T12:30:38Z</time>
      </trkpt>
      <trkpt lat="46.245537" lon="13.659941">
        <ele>1044.5496</ele>
        <time>2012-01-28T12:30:45Z</time>
      </trkpt>
      <trkpt lat="46.245478" lon="13.659945">
        <ele>1043.6352</ele>
        <time>2012-01-28T12:30:49Z</time>
      </trkpt>
      <trkpt lat="46.245423" lon="13.659941">
        <ele>1042.1112</ele>
        <time>2012-01-28T12:30:53Z</time>
      </trkpt>
      <trkpt lat="46.245398" lon="13.659954">
        <ele>1041.1968</ele>
        <time>2012-01-28T12:30:56Z</time>
      </trkpt>
      <trkpt lat="46.245370" lon="13.659957">
        <ele>1040.892</ele>
        <time>2012-01-28T12:30:57Z</time>
      </trkpt>
      <trkpt lat="46.245335" lon="13.659976">
        <ele>1039.6728</ele>
        <time>2012-01-28T12:31:01Z</time>
      </trkpt>
      <trkpt lat="46.245313" lon="13.659987">
        <ele>1039.368</ele>
        <time>2012-01-28T12:31:03Z</time>
      </trkpt>
      <trkpt lat="46.245216" lon="13.660004">
        <ele>1037.844</ele>
        <time>2012-01-28T12:31:09Z</time>
      </trkpt>
      <trkpt lat="46.245153" lon="13.660009">
        <ele>1036.9296</ele>
        <time>2012-01-28T12:31:13Z</time>
      </trkpt>
      <trkpt lat="46.245122" lon="13.659982">
        <ele>1036.32</ele>
        <time>2012-01-28T12:31:16Z</time>
      </trkpt>
      <trkpt lat="46.244972" lon="13.660038">
        <ele>1033.5768</ele>
        <time>2012-01-28T12:31:28Z</time>
      </trkpt>
      <trkpt lat="46.244837" lon="13.660106">
        <ele>1030.5288</ele>
        <time>2012-01-28T12:31:39Z</time>
      </trkpt>
      <trkpt lat="46.244810" lon="13.660103">
        <ele>1030.224</ele>
        <time>2012-01-28T12:31:42Z</time>
      </trkpt>
      <trkpt lat="46.244734" lon="13.660073">
        <ele>1027.7856</ele>
        <time>2012-01-28T12:31:51Z</time>
      </trkpt>
      <trkpt lat="46.244663" lon="13.660100">
        <ele>1025.9568</ele>
        <time>2012-01-28T12:31:57Z</time>
      </trkpt>
      <trkpt lat="46.244603" lon="13.660056">
        <ele>1023.5184</ele>
        <time>2012-01-28T12:32:02Z</time>
      </trkpt>
      <trkpt lat="46.244556" lon="13.660087">
        <ele>1021.9944</ele>
        <time>2012-01-28T12:32:06Z</time>
      </trkpt>
      <trkpt lat="46.244460" lon="13.660024">
        <ele>1019.2512</ele>
        <time>2012-01-28T12:32:17Z</time>
      </trkpt>
      <trkpt lat="46.244421" lon="13.659971">
        <ele>1017.7272</ele>
        <time>2012-01-28T12:32:22Z</time>
      </trkpt>
      <trkpt lat="46.244321" lon="13.659911">
        <ele>1015.2888</ele>
        <time>2012-01-28T12:32:32Z</time>
      </trkpt>
      <trkpt lat="46.244143" lon="13.659899">
        <ele>1011.936</ele>
        <time>2012-01-28T12:32:45Z</time>
      </trkpt>
      <trkpt lat="46.243988" lon="13.659891">
        <ele>1008.5832</ele>
        <time>2012-01-28T12:32:56Z</time>
      </trkpt>
      <trkpt lat="46.243898" lon="13.659897">
        <ele>1007.0592</ele>
        <time>2012-01-28T12:33:04Z</time>
      </trkpt>
      <trkpt lat="46.243819" lon="13.659912">
        <ele>1007.0592</ele>
        <time>2012-01-28T12:33:09Z</time>
      </trkpt>
      <trkpt lat="46.243778" lon="13.659911">
        <ele>1005.2304</ele>
        <time>2012-01-28T12:33:12Z</time>
      </trkpt>
      <trkpt lat="46.243701" lon="13.659971">
        <ele>1003.4016</ele>
        <time>2012-01-28T12:33:19Z</time>
      </trkpt>
      <trkpt lat="46.243662" lon="13.659986">
        <ele>1002.792</ele>
        <time>2012-01-28T12:33:30Z</time>
      </trkpt>
      <trkpt lat="46.243626" lon="13.659973">
        <ele>1001.8776</ele>
        <time>2012-01-28T12:33:32Z</time>
      </trkpt>
      <trkpt lat="46.243582" lon="13.659974">
        <ele>1001.268</ele>
        <time>2012-01-28T12:33:36Z</time>
      </trkpt>
      <trkpt lat="46.243533" lon="13.659973">
        <ele>1000.3536</ele>
        <time>2012-01-28T12:33:50Z</time>
      </trkpt>
      <trkpt lat="46.243533" lon="13.659973">
        <ele>1000.0488</ele>
        <time>2012-01-28T12:33:54Z</time>
      </trkpt>
      <trkpt lat="46.243511" lon="13.659978">
        <ele>1000.0488</ele>
        <time>2012-01-28T12:33:57Z</time>
      </trkpt>
      <trkpt lat="46.243328" lon="13.660052">
        <ele>996.3912</ele>
        <time>2012-01-28T12:34:10Z</time>
      </trkpt>
      <trkpt lat="46.243129" lon="13.660119">
        <ele>993.648</ele>
        <time>2012-01-28T12:34:22Z</time>
      </trkpt>
      <trkpt lat="46.243066" lon="13.660151">
        <ele>992.7336</ele>
        <time>2012-01-28T12:34:26Z</time>
      </trkpt>
      <trkpt lat="46.242857" lon="13.660159">
        <ele>989.3808</ele>
        <time>2012-01-28T12:34:40Z</time>
      </trkpt>
      <trkpt lat="46.242830" lon="13.660138">
        <ele>989.3808</ele>
        <time>2012-01-28T12:34:43Z</time>
      </trkpt>
      <trkpt lat="46.242766" lon="13.660129">
        <ele>988.4664</ele>
        <time>2012-01-28T12:34:47Z</time>
      </trkpt>
      <trkpt lat="46.242653" lon="13.660150">
        <ele>986.028</ele>
        <time>2012-01-28T12:34:53Z</time>
      </trkpt>
      <trkpt lat="46.242409" lon="13.660162">
        <ele>983.5896</ele>
        <time>2012-01-28T12:35:10Z</time>
      </trkpt>
      <trkpt lat="46.242299" lon="13.660296">
        <ele>982.6752</ele>
        <time>2012-01-28T12:35:20Z</time>
      </trkpt>
      <trkpt lat="46.242278" lon="13.660517">
        <ele>981.7608</ele>
        <time>2012-01-28T12:35:33Z</time>
      </trkpt>
      <trkpt lat="46.242248" lon="13.660743">
        <ele>979.6272</ele>
        <time>2012-01-28T12:35:45Z</time>
      </trkpt>
      <trkpt lat="46.242262" lon="13.660776">
        <ele>979.3224</ele>
        <time>2012-01-28T12:35:46Z</time>
      </trkpt>
      <trkpt lat="46.242333" lon="13.661029">
        <ele>976.884</ele>
        <time>2012-01-28T12:36:00Z</time>
      </trkpt>
      <trkpt lat="46.242347" lon="13.661253">
        <ele>975.36</ele>
        <time>2012-01-28T12:36:10Z</time>
      </trkpt>
      <trkpt lat="46.242348" lon="13.661465">
        <ele>973.5312</ele>
        <time>2012-01-28T12:36:21Z</time>
      </trkpt>
      <trkpt lat="46.242334" lon="13.661545">
        <ele>972.9216</ele>
        <time>2012-01-28T12:36:25Z</time>
      </trkpt>
      <trkpt lat="46.242369" lon="13.661719">
        <ele>971.3976</ele>
        <time>2012-01-28T12:36:35Z</time>
      </trkpt>
      <trkpt lat="46.242391" lon="13.661936">
        <ele>970.1784</ele>
        <time>2012-01-28T12:36:45Z</time>
      </trkpt>
      <trkpt lat="46.242414" lon="13.662080">
        <ele>968.6544</ele>
        <time>2012-01-28T12:36:54Z</time>
      </trkpt>
      <trkpt lat="46.242468" lon="13.662326">
        <ele>967.1304</ele>
        <time>2012-01-28T12:37:07Z</time>
      </trkpt>
      <trkpt lat="46.242382" lon="13.662522">
        <ele>966.8256</ele>
        <time>2012-01-28T12:37:19Z</time>
      </trkpt>
      <trkpt lat="46.242273" lon="13.662692">
        <ele>965.9112</ele>
        <time>2012-01-28T12:37:34Z</time>
      </trkpt>
      <trkpt lat="46.242129" lon="13.662794">
        <ele>966.216</ele>
        <time>2012-01-28T12:37:46Z</time>
      </trkpt>
      <trkpt lat="46.241980" lon="13.662802">
        <ele>966.8256</ele>
        <time>2012-01-28T12:38:00Z</time>
      </trkpt>
      <trkpt lat="46.241842" lon="13.662800">
        <ele>967.1304</ele>
        <time>2012-01-28T12:38:11Z</time>
      </trkpt>
      <trkpt lat="46.241681" lon="13.662838">
        <ele>969.5688</ele>
        <time>2012-01-28T12:38:24Z</time>
      </trkpt>
      <trkpt lat="46.241625" lon="13.662837">
        <ele>970.1784</ele>
        <time>2012-01-28T12:38:29Z</time>
      </trkpt>
      <trkpt lat="46.241529" lon="13.662891">
        <ele>971.0928</ele>
        <time>2012-01-28T12:38:42Z</time>
      </trkpt>
      <trkpt lat="46.241477" lon="13.662922">
        <ele>971.0928</ele>
        <time>2012-01-28T12:38:47Z</time>
      </trkpt>
      <trkpt lat="46.241392" lon="13.663067">
        <ele>970.1784</ele>
        <time>2012-01-28T12:38:59Z</time>
      </trkpt>
      <trkpt lat="46.241365" lon="13.663043">
        <ele>972.0072</ele>
        <time>2012-01-28T12:39:13Z</time>
      </trkpt>
      <trkpt lat="46.241398" lon="13.663075">
        <ele>970.4832</ele>
        <time>2012-01-28T12:39:26Z</time>
      </trkpt>
      <trkpt lat="46.241398" lon="13.663075">
        <ele>970.4832</ele>
        <time>2012-01-28T12:39:45Z</time>
      </trkpt>
      <trkpt lat="46.241402" lon="13.663075">
        <ele>971.3976</ele>
        <time>2012-01-28T12:40:03Z</time>
      </trkpt>
      <trkpt lat="46.241403" lon="13.663076">
        <ele>971.0928</ele>
        <time>2012-01-28T12:40:27Z</time>
      </trkpt>
      <trkpt lat="46.241403" lon="13.663076">
        <ele>971.0928</ele>
        <time>2012-01-28T12:40:51Z</time>
      </trkpt>
      <trkpt lat="46.241403" lon="13.663075">
        <ele>972.0072</ele>
        <time>2012-01-28T12:41:15Z</time>
      </trkpt>
      <trkpt lat="46.241403" lon="13.663075">
        <ele>969.5688</ele>
        <time>2012-01-28T12:41:42Z</time>
      </trkpt>
      <trkpt lat="46.241403" lon="13.663075">
        <ele>969.5688</ele>
        <time>2012-01-28T12:41:44Z</time>
      </trkpt>
    </trkseg>
  </trk>
</gpx>
